GFSMA_sfc_30mbdewp_000.txt.gz
Dewpoint
59 59 59 59 59 59 58 58 58 57 57 57 57 56 56 56 56 55 55 55 56 56 57 58 57 55 53 54 55 57 59 61 62 62 60 60 60 60 59 58 58 58 57
60 60 60 59 59 59 59 58 58 58 58 58 57 57 57 57 57 57 56 56 57 57 57 58 58 58 57 55 53 56 58 59 61 62 63 61 60 60 60 60 59 59 59
60 60 60 59 59 59 59 59 58 58 58 58 57 57 57 56 56 56 56 56 56 57 57 57 59 59 58 58 57 57 58 59 59 61 62 62 62 61 60 60 60 60 60
59 59 59 59 59 59 58 57 57 56 56 56 56 56 57 56 56 55 55 55 55 55 55 57 57 58 59 59 59 59 60 59 59 59 60 61 62 62 61 61 60 60 60
59 59 57 55 53 54 54 54 53 53 54 53 54 54 54 54 55 55 55 55 54 54 54 54 56 57 57 57 59 59 60 60 60 60 59 59 59 61 61 61 61 61 61
46 46 44 42 43 43 42 42 43 43 44 46 46 46 50 49 50 52 52 53 55 55 55 55 55 55 55 55 56 57 59 61 61 60 60 60 60 59 60 61 61 62 61
38 39 38 38 38 38 38 38 39 38 38 39 38 39 39 42 44 43 53 48 47 50 53 54 55 56 55 56 57 56 56 58 59 60 61 61 60 60 60 60 60 61 62
36 35 36 35 36 36 36 37 37 37 36 36 36 37 34 37 36 40 40 39 41 42 48 54 55 55 55 56 56 56 57 57 58 59 60 61 61 62 61 61 60 60 60
31 31 32 31 31 32 32 32 31 32 32 32 34 34 34 33 37 37 37 37 39 39 40 44 45 45 47 50 54 55 56 56 56 57 58 59 60 60 62 62 62 62 61
25 24 25 26 25 26 27 27 26 29 31 29 30 31 33 33 34 35 33 35 35 38 37 39 40 41 42 43 47 51 54 56 57 57 57 58 59 59 59 61 62 62 62
22 19 19 21 21 21 23 24 24 27 28 27 26 30 31 32 32 32 32 29 30 29 30 33 35 39 40 43 46 50 52 52 53 55 55 56 58 58 57 60 62 62 62
17 17 17 18 19 20 19 20 22 27 27 23 25 27 30 29 28 25 24 27 27 27 25 30 34 37 39 42 45 48 46 42 41 41 46 52 54 56 58 59 56 57 59
13 14 16 16 16 16 15 17 19 25 23 22 24 28 27 22 21 20 22 28 28 31 32 33 32 34 34 35 35 40 35 37 38 40 46 47 49 53 53 53 54 54 55
11 14 14 14 14 13 13 14 15 17 17 17 17 22 24 21 22 24 28 30 32 31 29 25 26 28 26 28 32 37 31 33 35 38 36 35 41 48 49 49 51 52 52
9 11 12 12 13 12 12 12 11 12 13 14 16 20 21 21 23 24 23 26 24 26 25 26 23 20 20 21 27 30 28 29 36 36 37 37 37 47 47 47 47 50 52
10 11 10 10 10 10 9 10 11 11 10 13 16 17 20 20 21 18 17 17 20 22 22 22 22 23 22 27 28 26 26 32 34 31 31 37 40 34 38 43 49 51 52
9 9 9 9 8 7 8 8 8 8 11 13 15 16 17 18 18 16 16 17 18 19 22 23 24 23 21 22 23 24 27 28 27 30 34 39 35 39 41 45 45 45 49
8 9 9 8 6 7 8 7 7 9 12 13 14 14 15 15 16 16 16 17 19 20 22 23 22 22 22 23 25 24 22 24 25 26 27 31 37 39 40 42 46 44 45
8 8 8 7 7 8 8 8 6 10 12 14 15 15 15 16 15 16 17 18 20 21 24 23 24 25 25 24 24 25 25 23 25 28 28 27 32 35 39 42 41 42 44
9 8 8 7 8 8 8 5 11 14 15 15 16 17 17 17 16 18 18 19 21 23 22 23 26 25 25 24 23 23 23 26 27 28 29 31 33 37 37 39 40 41 46
10 9 9 8 8 9 4 13 16 17 17 17 18 17 17 18 19 20 21 23 24 23 24 26 25 23 21 21 22 23 23 25 28 29 32 33 33 35 35 34 36 38 41
10 10 9 8 8 7 10 16 21 20 19 18 17 17 16 16 17 21 22 24 22 25 27 29 25 21 21 21 21 22 25 25 25 32 27 29 30 31 32 34 35 40 40
10 10 9 8 7 8 11 18 21 21 19 18 17 16 15 15 20 23 22 20 26 27 22 21 21 20 21 23 24 26 27 26 26 28 28 29 30 32 32 34 33 35 39
9 9 9 8 8 8 13 18 22 20 18 16 16 16 16 20 22 19 20 29 25 20 19 18 18 23 27 25 23 24 28 29 29 29 30 29 29 29 31 34 36 37 39
10 9 8 8 8 9 13 19 21 18 16 15 16 17 21 22 19 19 30 28 22 18 16 20 21 20 19 20 23 26 27 27 24 26 27 28 29 30 32 28 31 35 37
9 8 8 8 9 10 14 19 20 18 16 17 18 21 21 18 21 26 21 19 20 17 20 21 18 18 19 21 21 24 27 24 24 23 25 28 25 28 24 30 32 31 33

GFSMA_sfc_30mbdewp_003.txt.gz
Dewpoint
59 59 59 59 59 59 59 59 59 58 58 57 57 57 57 57 57 57 58 58 58 59 58 58 59 60 60 58 56 58 60 60 61 62 62 63 62 61 61 60 60 60 59
60 60 60 59 60 59 59 58 59 57 57 57 56 56 56 56 56 56 57 57 58 59 60 59 59 60 61 61 59 59 59 60 60 61 62 62 63 62 62 62 61 60 60
60 60 60 59 59 59 58 57 55 55 54 53 53 53 54 55 55 55 55 56 57 58 60 60 60 60 60 62 62 62 61 60 60 60 60 61 62 63 62 62 62 61 61
60 59 58 56 52 52 51 49 48 47 48 48 49 51 51 52 51 52 53 54 55 55 56 59 60 60 60 59 60 61 62 62 61 60 61 60 61 62 64 63 62 62 62
51 49 44 42 41 42 41 41 40 41 41 42 43 43 43 46 49 48 48 51 52 54 55 56 57 59 60 59 58 58 60 62 62 62 61 61 61 61 61 62 62 62 62
40 40 38 37 38 39 39 39 38 40 40 40 38 39 42 41 42 44 47 45 43 43 44 47 55 57 58 59 60 59 59 59 60 62 62 62 62 61 61 61 61 61 62
35 36 36 36 36 36 36 34 34 35 35 35 35 37 37 37 37 39 37 37 40 43 41 43 47 54 57 58 56 58 59 60 59 60 60 61 61 62 62 61 61 60 62
31 31 31 30 30 31 30 30 29 30 30 31 31 32 31 32 34 34 35 36 35 39 38 42 44 44 46 46 49 52 55 55 57 56 58 58 58 58 59 62 63 62 61
24 24 24 24 24 26 27 26 25 28 29 29 29 27 28 28 31 34 31 32 31 31 36 35 36 37 38 38 39 40 45 50 51 52 53 55 56 57 57 58 59 63 63
21 19 20 22 21 22 23 25 23 27 29 26 26 24 27 27 28 26 28 30 28 27 28 31 29 29 29 34 39 40 44 51 50 51 52 52 53 55 57 59 59 59 62
19 18 18 20 20 21 22 23 24 25 28 25 22 25 24 27 26 23 22 23 24 24 27 26 28 29 31 34 38 45 47 45 45 46 46 47 49 54 55 56 56 60 60
17 17 17 18 18 19 19 20 22 24 26 24 23 23 20 22 24 21 20 22 24 27 30 29 31 33 33 34 35 36 36 32 35 39 40 42 44 48 46 46 50 50 54
14 14 16 15 16 16 17 17 18 20 19 21 21 20 20 22 23 22 21 24 25 27 27 26 24 27 24 27 23 28 28 29 36 35 36 37 40 39 40 41 39 45 50
11 12 14 13 13 14 13 14 16 16 16 17 19 20 20 22 22 22 23 24 23 22 22 21 24 21 21 22 23 29 25 33 34 31 33 32 32 38 37 35 40 44 41
8 10 12 11 11 11 11 12 12 13 14 14 16 19 19 19 22 22 23 22 20 19 18 18 20 20 24 22 25 25 22 24 28 27 29 34 35 36 33 37 41 37 36
9 10 10 9 9 9 9 10 11 12 12 12 14 16 17 18 19 20 21 20 19 19 18 20 20 22 23 24 23 25 26 28 27 26 25 29 32 33 37 36 36 37 37
7 8 8 8 8 8 8 9 9 10 10 12 14 15 16 17 17 17 18 19 19 20 19 19 21 23 23 23 24 25 26 26 25 25 24 25 29 32 34 37 37 38 41
7 8 8 8 8 8 9 9 8 9 8 10 13 14 15 15 18 19 18 18 19 19 19 19 22 22 22 24 25 24 23 23 24 25 23 25 26 29 31 33 36 37 40
7 8 8 9 9 10 10 9 9 6 10 13 14 15 16 17 18 19 18 18 19 20 22 22 22 22 24 25 25 23 22 22 23 25 24 23 25 28 30 34 35 38 40
9 10 10 10 11 10 11 11 8 12 15 16 17 18 18 18 17 18 18 20 21 23 24 24 23 25 24 26 24 21 20 20 21 22 24 26 26 28 32 32 30 32 35
11 11 11 12 12 12 10 11 15 17 19 19 19 18 17 19 18 18 18 21 24 25 23 24 25 24 24 21 21 19 18 21 23 24 26 27 28 29 28 28 29 32 34
11 11 12 12 14 11 10 14 17 20 20 20 19 17 17 17 16 17 20 21 21 21 26 26 28 25 22 19 17 20 22 24 21 23 24 25 26 27 28 30 29 32 33
10 11 11 11 10 9 11 14 18 20 21 20 18 16 16 15 17 22 23 22 24 24 23 22 24 19 17 21 24 25 25 20 20 23 26 25 29 29 30 28 28 29 33
10 11 10 9 9 9 11 14 18 21 19 18 16 16 16 19 22 22 22 27 27 26 20 20 18 17 22 24 25 20 22 27 26 26 25 25 27 30 27 30 27 30 27
11 10 9 9 8 7 11 15 20 20 18 17 17 18 19 21 21 26 25 25 17 16 19 19 19 19 19 18 19 21 24 24 22 22 23 23 26 26 27 27 27 30 34
10 8 8 7 6 7 12 17 19 19 19 18 19 22 21 20 22 25 22 16 17 19 22 21 19 17 17 19 19 22 23 23 22 20 21 22 23 25 24 23 29 27 27

GFSMA_sfc_30mbdewp_006.txt.gz
Dewpoint
60 60 60 60 60 60 60 59 58 58 58 57 57 56 56 57 57 57 58 58 59 60 60 60 60 60 60 60 62 63 62 61 61 61 61 62 62 63 62 62 61 61 61
60 60 60 60 59 59 58 58 56 54 54 54 53 53 54 54 54 54 55 55 56 59 60 61 61 61 61 61 60 61 62 63 61 61 61 61 62 62 63 63 62 62 61
60 60 59 56 55 54 51 46 46 46 46 47 48 50 52 53 53 53 52 53 54 55 58 60 60 60 60 61 61 60 61 62 62 62 61 61 62 61 62 62 63 63 62
56 48 45 41 42 43 43 41 41 41 42 42 42 41 42 41 42 47 46 47 50 49 54 57 58 57 59 57 59 59 60 62 62 62 62 62 61 61 61 61 61 62 62
42 42 40 39 39 41 41 39 38 40 38 39 37 34 38 40 37 40 41 36 36 39 42 44 48 51 56 56 57 57 60 59 60 61 61 61 62 62 62 62 61 61 62
37 38 38 37 37 37 37 33 32 32 33 34 31 35 33 34 36 36 34 32 36 36 38 39 39 46 46 53 53 50 51 52 55 58 59 60 60 59 60 62 62 62 61
34 32 32 32 31 33 31 29 29 29 30 31 32 28 31 32 32 29 31 36 30 33 32 32 36 33 34 40 42 43 41 38 44 47 53 53 57 57 58 59 58 62 63
26 26 26 27 26 29 27 27 27 30 31 31 28 27 27 24 27 30 32 28 30 28 29 29 24 23 30 27 29 36 38 41 43 46 49 52 53 54 55 55 57 58 58
21 23 24 24 24 27 26 26 26 27 30 29 27 24 24 25 24 29 27 28 23 27 23 24 24 24 25 28 31 28 33 45 45 47 49 50 50 51 51 52 53 56 58
20 21 22 23 23 25 24 25 25 25 28 28 27 24 25 25 23 22 26 23 22 22 23 26 25 27 26 22 33 36 41 38 36 38 40 41 46 47 48 48 50 53 51
20 20 21 21 21 22 22 22 22 22 26 26 25 24 23 22 21 20 21 20 21 21 26 25 27 26 22 21 22 26 32 30 31 33 34 38 42 43 43 44 46 45 46
21 18 19 18 19 19 19 20 19 21 21 23 23 21 22 19 19 20 21 19 20 21 24 24 25 20 20 20 20 26 28 27 28 30 33 34 37 39 40 38 37 38 42
16 16 17 16 16 16 17 17 17 18 18 18 20 18 21 20 20 22 20 20 21 21 21 20 19 21 21 17 20 28 27 27 27 28 29 29 29 31 30 32 34 35 36
12 14 15 14 14 14 14 14 15 16 15 17 16 16 19 19 20 21 19 22 19 19 18 19 19 18 17 21 24 25 25 25 25 26 29 27 27 28 30 28 30 33 32
10 12 13 12 12 12 12 12 12 13 14 14 14 16 16 18 18 19 22 20 20 17 18 17 16 19 20 21 22 23 22 23 25 25 26 27 26 27 27 27 26 28 30
10 10 10 10 10 10 10 10 12 13 12 12 13 13 14 16 17 18 19 20 20 19 17 17 19 18 18 21 22 22 22 24 25 25 23 23 24 25 26 27 28 27 32
8 9 9 9 9 10 10 10 11 11 10 11 11 11 14 16 16 18 19 20 20 19 19 18 18 18 21 21 21 23 24 25 24 23 23 22 22 23 24 25 25 27 32
8 9 10 10 10 11 11 11 11 11 11 10 12 14 16 16 18 18 20 19 20 19 18 17 21 22 21 22 23 24 24 25 23 22 20 21 19 21 23 24 25 26 29
9 10 11 11 11 12 13 12 12 12 13 15 16 18 19 19 18 19 19 19 18 18 21 23 22 23 23 23 24 24 24 22 20 17 18 21 22 23 25 26 26 29 32
11 12 13 12 13 14 14 13 12 14 16 18 20 21 20 20 19 19 18 19 19 21 23 23 26 27 24 24 29 23 19 17 17 19 21 24 23 22 24 25 24 27 28
12 13 13 13 14 14 13 13 15 17 18 19 21 21 21 21 22 18 18 19 22 21 25 28 25 26 24 23 20 18 17 19 19 20 24 19 21 22 24 25 27 27 28
12 12 12 13 14 12 12 14 16 17 18 20 20 21 19 18 18 19 20 20 20 26 27 27 25 19 17 17 21 18 19 20 21 21 19 21 23 23 25 29 26 30 31
10 11 12 12 11 10 12 14 15 16 19 20 20 19 17 17 19 20 22 24 31 30 24 18 16 15 20 25 23 24 25 24 20 20 22 22 24 25 23 24 26 28 32
11 12 12 11 10 9 11 12 14 18 19 20 19 18 18 18 20 22 23 30 28 23 18 17 16 20 23 22 20 18 19 22 23 23 22 21 23 20 22 26 26 25 28
12 12 10 9 8 7 11 12 16 18 19 19 19 19 21 22 22 21 25 28 24 19 17 18 25 24 17 16 17 19 22 21 18 18 20 22 20 20 22 23 27 28 32
13 11 10 8 9 7 11 14 17 17 17 19 20 22 23 21 19 23 24 21 19 16 18 25 16 15 16 18 19 20 23 20 19 18 18 20 21 22 20 22 25 23 26

GFSMA_sfc_30mbdewp_009.txt.gz
Dewpoint
59 60 60 60 59 59 59 57 55 52 51 51 51 50 51 53 53 54 54 55 55 57 57 57 59 60 60 60 61 62 62 63 63 63 63 62 62 62 63 63 63 63 62
60 60 58 56 54 51 46 44 43 44 44 44 42 43 47 46 45 46 49 52 53 54 56 54 57 58 57 57 59 60 61 62 61 61 62 63 62 62 62 62 62 63 62
59 53 42 41 44 43 41 40 39 41 39 40 40 42 37 38 41 39 41 42 44 40 43 45 48 49 55 53 54 57 58 59 60 60 61 61 62 62 62 62 62 62 62
43 42 39 38 41 41 37 36 36 33 35 36 35 32 35 37 34 37 37 32 33 38 39 42 40 48 41 44 46 48 50 54 54 54 56 58 59 60 61 62 62 62 62
38 38 36 35 37 35 33 32 29 31 33 31 30 32 29 32 35 32 32 30 36 30 33 33 40 35 35 33 39 40 40 40 43 45 48 50 52 56 56 59 58 61 62
32 33 31 29 33 30 29 28 26 29 31 30 31 27 27 33 30 26 24 30 28 31 29 29 27 23 27 33 33 35 38 36 35 37 42 46 49 51 54 53 56 56 58
27 27 28 26 30 28 27 28 27 28 29 31 29 22 29 29 26 20 24 31 26 23 28 21 22 23 26 28 32 32 32 35 41 43 44 46 49 49 50 52 54 55 55
24 25 25 24 27 26 25 26 26 27 31 30 27 26 21 22 23 22 24 22 25 23 22 22 23 25 24 29 26 25 32 36 39 39 42 43 44 44 44 49 50 51 52
22 23 24 23 25 25 23 24 24 24 27 28 27 23 20 20 21 25 15 23 16 23 21 24 24 22 28 25 23 27 25 29 33 35 37 39 39 41 43 47 48 50 50
20 22 22 23 23 24 21 22 22 23 23 22 25 26 24 23 20 19 22 18 23 20 22 24 23 27 22 22 20 23 25 27 31 33 34 36 37 39 41 43 46 46 47
19 20 20 20 20 21 20 19 18 19 20 20 23 22 21 21 21 19 17 17 20 21 21 22 26 22 22 18 22 21 22 27 30 31 33 34 34 33 35 37 39 41 41
19 18 17 17 17 18 18 18 17 16 16 18 19 20 19 16 16 19 15 16 19 18 21 22 21 21 20 22 19 19 26 27 26 28 32 32 31 31 32 33 33 34 36
15 15 16 14 15 15 15 15 14 14 15 15 15 17 18 17 21 17 18 19 16 18 19 18 20 21 19 18 19 23 23 21 26 28 29 30 29 28 28 30 31 30 31
12 13 13 12 12 12 12 12 13 14 14 14 14 14 15 17 19 18 18 18 18 16 16 18 18 18 18 22 21 20 20 24 23 23 26 27 26 28 27 27 28 27 27
11 11 11 10 10 11 11 11 11 11 13 14 14 15 16 15 15 18 20 20 18 18 17 17 17 19 20 19 18 21 21 21 22 24 24 25 26 27 25 28 26 25 26
9 9 9 10 10 10 11 11 12 13 12 13 12 13 13 14 15 17 18 21 21 19 19 18 18 19 18 18 21 21 21 23 23 24 24 25 25 23 24 23 26 24 25
8 9 9 10 11 11 12 12 12 12 12 12 13 14 16 17 18 19 20 20 21 21 19 19 18 18 19 21 21 22 23 22 24 25 25 22 22 22 21 21 24 26 26
9 10 11 12 12 13 13 13 13 13 13 13 15 17 19 19 21 21 20 20 21 20 19 18 19 21 22 22 23 25 23 24 26 25 21 20 19 19 21 21 22 26 29
10 11 12 13 13 14 14 14 14 13 13 16 18 20 20 20 21 21 21 20 20 19 20 22 25 24 23 27 27 26 26 24 19 18 18 17 18 20 24 23 21 22 24
11 12 13 13 14 14 15 15 14 15 17 18 20 21 20 21 21 21 20 19 20 21 22 21 22 28 27 26 20 17 15 18 20 19 18 20 23 25 19 21 22 23 25
12 13 13 13 14 15 11 15 16 17 17 18 19 20 20 21 21 20 20 20 20 20 23 28 27 25 20 16 15 15 19 22 21 20 23 26 19 19 21 22 23 24 25
11 11 12 13 13 12 14 15 17 16 16 18 20 19 20 20 19 20 20 21 22 24 29 27 26 20 17 16 16 20 24 23 18 20 19 20 20 20 22 22 25 24 21
10 11 12 12 11 11 13 14 15 15 17 19 19 20 20 19 20 21 22 23 25 28 27 24 20 18 17 18 25 24 19 18 19 20 21 21 21 20 20 23 21 20 23
12 13 13 12 10 10 13 13 15 16 17 19 20 20 20 20 23 22 22 22 27 29 24 21 19 19 25 24 17 16 19 22 22 20 19 18 19 18 19 20 21 22 23
14 13 12 11 10 9 12 15 17 18 17 17 19 21 23 23 22 20 21 28 26 21 18 19 24 22 17 16 18 19 21 20 18 17 18 18 19 19 20 21 22 24 25
13 12 11 10 10 9 15 18 20 19 19 19 20 23 24 21 18 21 28 22 17 15 21 24 14 14 16 17 19 20 22 19 18 17 16 18 20 20 19 21 23 25 25

GFSMA_sfc_30mbdewp_012.txt.gz
Dewpoint
59 60 60 58 54 49 46 43 43 43 41 41 40 41 42 41 43 43 45 46 50 45 46 49 50 53 56 58 58 59 59 60 60 60 61 61 61 62 62 62 62 62 62
60 52 45 46 44 42 41 39 38 37 37 37 36 37 36 37 37 38 40 36 41 40 44 44 45 49 47 49 51 53 54 54 55 52 51 55 59 60 61 62 63 63 62
43 41 41 41 41 38 36 33 31 34 33 33 32 32 31 32 35 34 34 32 36 35 37 37 42 37 36 39 43 45 45 45 45 45 45 47 48 52 54 54 58 61 62
40 38 37 37 36 33 32 28 30 31 29 30 30 30 27 31 35 28 27 30 35 32 31 33 30 29 30 36 39 41 42 43 42 41 42 43 45 49 52 53 55 57 58
36 33 32 34 32 29 28 27 27 30 28 28 29 28 24 30 32 21 21 28 29 29 27 25 26 25 30 34 34 37 37 37 39 40 44 46 46 48 50 50 51 52 54
30 29 28 30 28 27 27 26 25 28 29 29 30 23 23 32 26 16 23 24 24 22 27 19 25 22 30 29 33 35 35 36 37 39 40 42 44 45 45 46 48 50 53
26 26 26 28 28 26 26 26 26 26 29 29 27 23 27 27 21 16 23 16 25 17 24 20 24 22 25 30 28 29 28 28 32 35 37 39 41 42 42 43 44 44 45
24 24 24 26 26 24 23 24 24 23 29 29 24 26 19 21 20 16 20 20 16 20 23 20 24 25 22 26 26 26 25 28 30 32 35 36 38 39 39 40 43 46 46
23 24 23 24 24 23 20 22 22 21 20 25 25 19 16 18 18 21 17 19 17 22 19 23 23 23 26 22 23 23 26 27 28 27 34 36 36 37 38 38 39 40 42
21 22 22 22 21 21 19 20 20 20 20 17 24 23 23 22 16 15 20 17 20 16 21 22 22 25 22 23 22 25 23 24 25 32 34 33 33 35 35 35 35 36 36
20 19 19 19 19 20 18 17 17 16 18 17 19 20 20 20 19 18 14 16 15 16 20 20 23 22 21 21 23 21 21 26 30 30 30 30 33 33 33 34 34 35 35
18 17 16 16 16 16 16 17 16 15 14 16 16 16 17 15 14 14 15 14 13 15 17 19 21 18 22 22 20 20 24 26 25 26 30 31 31 31 31 32 33 32 33
14 14 15 13 13 13 14 14 13 13 14 13 14 14 16 16 17 19 16 12 12 15 17 17 18 21 20 19 19 24 21 22 22 26 26 28 28 28 29 29 30 33 33
13 13 12 11 11 11 12 12 13 13 13 13 13 14 15 16 18 17 15 15 15 14 15 17 19 19 19 21 22 20 19 20 22 23 25 26 26 26 26 27 27 28 30
11 10 10 10 10 11 11 12 12 12 13 14 13 15 15 15 16 16 17 19 19 17 17 16 18 20 20 20 19 19 20 22 23 25 24 24 24 25 27 28 31 29 28
9 9 9 10 11 12 12 12 13 14 13 13 14 13 15 16 18 19 19 20 21 20 19 19 20 19 19 19 19 21 22 23 24 24 23 22 22 23 26 25 23 25 28
9 9 10 11 12 12 13 13 13 14 13 14 13 15 17 19 19 20 21 22 22 21 20 20 20 20 20 21 22 23 24 25 26 23 22 22 21 22 23 24 22 22 23
10 10 12 12 13 13 14 14 14 14 14 13 15 17 19 19 20 21 22 22 22 22 21 20 22 24 23 24 23 27 29 23 21 20 19 19 20 19 19 20 22 23 23
10 12 12 13 13 14 15 15 15 15 15 16 17 18 20 20 20 21 22 22 22 22 23 21 20 21 21 23 29 22 19 16 14 15 18 20 20 20 22 26 26 27 21
11 12 13 13 14 15 14 14 16 16 17 17 18 20 20 20 20 21 21 21 20 20 20 21 23 25 28 25 19 16 15 16 16 18 25 23 20 21 21 21 20 21 22
12 12 12 13 14 14 10 17 18 17 17 17 18 19 20 21 22 21 20 21 21 23 27 27 22 23 25 17 16 16 16 17 24 20 17 17 19 19 19 20 20 21 21
10 12 13 13 13 11 15 17 18 17 16 16 17 19 20 21 20 21 22 21 22 22 22 22 26 21 18 18 18 18 22 19 15 17 17 18 19 19 20 20 21 21 22
11 13 13 12 11 11 15 17 19 19 17 18 18 19 19 20 22 22 24 23 23 23 29 22 19 19 18 21 25 21 18 18 18 19 20 18 19 18 19 18 19 20 22
12 13 12 12 11 10 15 18 21 20 19 19 19 19 20 22 23 21 20 23 28 25 20 17 16 20 24 19 16 17 20 22 22 19 18 17 18 17 18 18 20 21 22
13 13 12 11 9 11 15 19 21 20 19 19 20 20 23 23 21 20 28 24 19 15 14 20 22 18 16 17 18 22 21 19 16 15 17 17 18 18 19 19 20 21 23
13 12 10 10 11 10 14 19 20 19 19 20 21 25 25 21 22 26 19 17 15 14 22 19 14 14 16 17 19 19 22 18 17 16 15 18 19 19 18 20 21 22 22

GFSMA_sfc_30mbdewp_015.txt.gz
Dewpoint
59 60 53 47 45 43 41 40 38 36 35 35 35 35 34 33 37 38 37 43 42 45 45 47 50 48 47 48 51 51 51 52 51 51 51 51 51 54 58 60 61 62 62
52 45 44 42 40 39 36 33 33 33 30 31 30 31 28 32 35 28 33 35 38 38 41 43 41 40 41 45 47 47 47 48 48 47 47 48 49 52 53 53 53 54 58
42 42 41 38 36 34 29 28 30 29 26 28 27 29 26 32 33 23 28 32 33 32 37 33 34 34 37 41 42 45 43 43 43 44 45 48 48 47 47 49 51 52 55
39 38 36 33 30 29 27 26 29 27 25 25 25 28 25 30 24 19 24 27 30 26 30 29 29 29 35 37 37 40 41 40 40 42 43 46 46 48 49 51 52 52 52
34 33 32 30 28 26 26 25 25 29 24 23 24 26 24 30 23 17 23 20 26 21 26 23 27 27 31 30 35 37 37 34 35 36 38 41 43 44 46 46 46 46 48
28 29 29 27 26 25 24 23 23 26 29 25 26 22 24 32 22 17 23 18 21 18 25 21 24 24 29 28 33 32 33 32 33 35 37 39 40 41 42 43 44 44 45
26 26 27 26 25 24 24 23 24 22 26 27 24 21 25 26 24 18 22 18 18 18 24 18 23 23 25 28 28 27 28 29 33 35 35 35 37 40 41 41 42 42 42
24 24 25 25 23 20 21 21 22 19 22 27 21 25 16 17 21 13 18 20 17 19 21 16 23 23 23 26 24 25 25 29 32 32 32 34 35 38 39 39 39 40 41
24 23 23 23 21 21 19 20 21 18 17 19 24 14 8 13 19 19 12 19 14 20 16 19 23 21 23 23 23 25 25 27 28 30 34 37 37 37 37 37 38 38 38
21 22 21 20 20 20 18 18 19 18 19 15 21 19 20 20 15 13 18 13 18 16 17 20 22 21 24 23 23 25 25 25 26 31 34 34 35 35 36 37 37 37 36
19 19 18 18 18 18 17 16 16 14 17 16 17 18 19 18 20 19 11 14 15 14 13 16 20 20 21 20 23 23 23 24 27 29 31 32 34 35 34 35 35 35 35
17 16 15 15 15 15 15 15 14 14 13 14 15 15 15 14 13 14 14 13 12 11 14 16 16 20 19 22 23 22 22 23 25 27 29 30 32 32 32 32 32 33 33
14 14 14 12 12 12 13 13 13 13 14 13 14 13 15 16 17 17 15 13 13 13 13 17 17 19 21 19 21 22 22 23 23 24 27 30 30 29 29 29 30 31 31
13 13 11 10 10 11 12 12 13 13 14 14 13 14 15 16 17 16 16 16 15 12 14 15 18 18 19 20 22 22 21 22 22 23 26 27 27 27 26 26 27 28 29
11 10 10 10 11 12 12 13 13 13 14 14 14 15 14 15 17 18 19 20 19 17 17 18 19 20 21 21 21 21 21 21 22 24 25 25 25 24 24 24 25 26 26
9 9 10 11 12 13 13 13 14 15 14 14 15 14 15 17 19 21 20 21 21 21 20 20 20 21 21 21 21 22 22 23 24 26 25 24 23 22 22 23 25 26 27
9 10 11 12 13 13 14 14 14 14 14 15 15 15 17 19 20 20 20 22 22 22 21 21 22 22 23 23 22 22 24 26 31 28 24 21 20 20 20 22 25 27 25
10 11 12 13 13 14 15 14 13 14 15 15 16 17 18 19 20 20 21 21 22 22 22 22 24 21 19 20 21 22 30 25 24 20 19 18 19 20 21 25 24 24 26
11 12 13 13 14 14 14 14 14 16 16 17 17 18 18 19 20 20 20 21 22 22 24 21 20 21 22 25 24 29 19 17 16 16 17 18 20 22 22 21 21 23 26
11 12 13 13 14 14 13 13 17 18 18 18 18 18 19 20 20 21 22 21 24 22 21 22 24 25 22 25 26 17 15 16 16 17 20 23 20 18 19 20 20 20 21
11 12 13 13 14 12 10 19 20 19 18 17 18 18 19 21 21 20 20 20 20 21 25 26 21 24 20 16 15 16 17 18 23 23 17 16 17 17 18 19 20 20 20
11 13 13 13 12 11 16 20 21 22 19 19 18 19 19 20 20 21 21 21 22 22 24 27 22 16 15 16 16 19 23 18 16 18 17 20 20 18 18 19 19 20 22
12 13 12 12 11 11 17 19 21 22 20 20 19 19 19 20 22 23 24 23 29 28 21 20 17 16 16 21 24 21 20 20 19 19 21 19 18 17 17 17 19 20 22
12 12 12 11 10 10 18 19 21 21 20 20 20 20 20 20 24 22 25 28 22 20 18 16 16 20 22 19 18 20 22 23 22 19 17 17 18 17 17 18 20 21 22
12 12 12 11 10 13 17 19 21 20 19 19 20 21 23 24 22 23 24 20 17 16 15 20 23 19 17 18 19 23 20 19 16 15 16 17 17 18 19 19 19 21 22
12 11 11 11 14 12 16 20 20 19 19 20 25 25 22 20 21 24 19 17 16 15 23 23 15 15 17 17 19 20 22 18 17 16 15 17 18 20 17 18 19 20 20

GFSMA_sfc_30mbdewp_018.txt.gz
Dewpoint
58 57 46 44 42 40 37 34 33 30 29 29 31 30 25 35 29 32 34 43 41 44 47 45 45 45 46 50 49 50 50 50 50 50 49 50 51 53 54 55 55 56 56
52 45 42 40 37 34 31 31 28 26 25 26 26 29 25 34 24 26 31 33 36 41 39 40 40 40 43 45 45 46 46 46 46 47 47 48 51 50 50 50 51 53 54
44 43 38 34 32 29 26 27 28 25 22 22 22 28 24 31 20 23 24 30 28 32 34 35 35 35 39 39 41 44 44 43 43 44 44 46 47 47 50 51 52 53 54
40 37 33 30 28 26 25 25 27 24 21 21 19 26 24 31 17 21 20 27 24 23 28 28 29 29 33 34 37 40 41 40 38 39 39 41 43 44 46 47 49 49 49
35 32 29 27 26 24 23 23 23 28 22 20 19 25 23 29 19 18 19 23 19 22 24 23 26 26 28 30 34 36 36 36 36 36 38 40 40 42 43 43 45 45 47
30 28 26 25 24 22 20 20 20 23 28 24 23 18 25 31 22 18 21 19 18 18 24 19 21 24 26 26 30 31 31 33 34 36 38 39 39 39 40 42 43 43 44
27 26 25 23 23 21 20 20 21 18 21 26 18 17 21 24 24 23 19 18 19 18 22 17 19 22 24 24 29 25 28 30 32 35 36 36 37 39 40 40 42 42 42
25 25 23 21 20 19 18 19 17 15 18 24 16 21 11 11 16 15 19 18 16 16 20 16 17 20 22 23 28 24 24 28 31 33 34 35 38 40 40 40 40 40 41
23 23 22 20 20 20 18 18 18 16 14 17 24 11 4 6 18 18 17 19 14 16 17 17 18 19 21 23 24 24 26 27 28 31 33 35 37 38 38 38 39 39 39
22 21 20 19 19 18 16 17 17 17 17 14 18 18 18 19 12 12 16 13 16 15 16 16 15 18 21 23 23 24 25 25 27 30 32 34 35 36 37 37 38 38 37
19 18 17 17 17 17 16 14 14 13 16 15 16 16 16 17 19 19 10 13 13 13 14 14 17 19 17 19 22 24 25 24 27 29 31 33 34 34 35 36 36 36 35
17 16 15 15 14 15 14 14 14 13 13 14 14 14 14 13 13 14 13 13 13 13 14 15 15 17 20 20 24 22 23 24 26 28 30 31 32 32 33 33 33 33 34
14 13 12 11 12 13 13 13 13 13 14 13 14 13 15 16 17 17 16 16 15 15 14 15 16 17 19 20 19 21 23 25 25 25 27 29 30 30 30 30 31 31 31
13 12 11 10 11 12 12 13 14 14 14 15 14 14 15 16 16 17 17 17 16 13 12 14 17 18 19 20 22 23 22 23 23 25 26 27 27 27 28 28 29 28 28
11 10 10 10 12 13 13 13 14 14 15 15 15 16 15 15 17 18 19 20 19 15 13 16 18 20 22 22 22 22 22 23 24 24 24 25 27 28 29 28 26 26 24
9 9 11 12 12 13 14 14 14 15 15 15 16 16 15 16 18 20 20 21 21 20 19 18 19 21 22 22 23 23 23 24 24 24 25 27 27 25 26 24 22 22 23
9 11 12 12 13 14 14 13 13 14 15 16 17 16 17 18 19 20 21 21 21 22 21 21 21 21 23 22 20 21 22 22 24 31 29 26 23 20 20 22 23 25 27
11 12 13 13 13 14 14 13 13 15 16 17 17 17 17 18 19 20 21 21 21 22 22 21 22 22 20 21 22 24 25 26 29 21 19 19 19 20 20 22 25 26 26
12 12 13 13 13 13 12 12 15 17 18 18 18 18 18 19 19 20 20 21 21 22 24 23 20 21 22 24 26 25 20 18 16 16 17 19 19 20 21 24 22 24 24
11 12 13 13 13 12 11 12 19 20 20 19 19 19 19 19 19 21 21 21 21 20 20 20 21 24 27 23 17 14 14 16 16 18 21 21 20 19 19 19 20 20 20
12 14 13 13 13 11 9 19 22 22 21 19 19 19 19 21 22 22 21 21 20 21 23 26 23 20 18 15 14 15 16 19 20 19 17 18 18 18 18 19 20 20 20
13 13 12 12 11 11 16 21 22 22 21 20 19 20 20 21 21 22 22 22 23 29 25 22 19 17 15 15 16 19 22 19 17 18 18 21 21 19 19 18 18 20 21
13 12 12 11 10 11 18 21 21 22 21 20 20 20 20 20 22 22 24 24 30 23 20 19 16 16 16 19 24 22 21 20 19 20 21 20 19 17 17 17 18 20 21
12 12 11 11 11 12 19 20 21 21 20 20 20 20 20 21 23 22 22 29 22 20 18 17 17 20 25 21 18 19 23 23 22 18 17 17 18 17 17 17 19 20 21
12 11 11 11 12 15 19 20 22 21 20 20 20 21 23 22 21 21 26 22 18 17 16 19 24 21 18 19 20 23 21 19 16 15 16 16 17 17 18 18 19 21 21
11 11 11 13 15 14 18 20 21 20 20 19 20 21 22 21 21 26 19 17 17 16 21 24 15 15 17 17 20 19 20 18 17 16 15 18 18 19 17 17 18 19 20

GFSMA_sfc_30mbdewp_021.txt.gz
Dewpoint
58 53 46 43 40 37 36 33 29 26 25 26 29 24 33 30 25 32 36 43 45 46 45 45 44 46 49 49 48 49 49 49 49 49 50 50 52 53 52 52 54 55 57
53 45 41 38 34 32 32 29 25 23 22 21 27 26 29 29 25 30 28 35 40 40 41 41 40 41 43 43 44 47 46 46 45 46 47 47 50 51 51 53 54 54 55
45 41 37 34 31 28 27 28 26 23 21 20 20 26 24 21 23 21 28 27 26 35 34 35 34 34 36 38 39 42 43 43 43 42 42 43 44 47 47 49 50 51 51
42 37 32 29 28 27 25 24 26 25 21 20 19 24 23 27 18 21 25 21 25 25 27 29 28 28 31 33 35 38 39 39 39 40 40 41 42 44 45 46 46 47 49
36 32 29 28 25 24 24 22 22 26 20 19 18 21 22 29 21 21 18 22 22 24 24 23 24 23 25 28 31 35 36 35 37 38 39 40 41 42 42 43 44 45 46
30 28 27 25 23 22 20 21 19 23 22 21 19 16 27 32 24 22 21 17 21 21 21 21 19 17 21 25 27 31 32 32 34 35 37 39 40 40 41 41 42 43 44
28 27 25 24 23 20 20 18 21 18 20 22 16 17 21 23 25 25 20 17 21 18 21 19 15 15 14 21 24 25 28 30 31 34 35 37 38 39 40 42 42 43 43
27 25 23 22 21 20 20 18 18 17 18 23 14 18 12 11 17 13 19 19 18 17 15 14 15 14 15 16 20 24 25 27 30 33 34 35 37 38 39 40 40 41 41
24 23 22 21 21 22 20 20 19 18 15 19 21 9 8 7 13 16 14 17 15 14 14 15 14 13 14 16 19 20 24 26 29 31 33 35 36 37 38 38 39 39 39
22 22 21 20 20 20 19 18 17 19 17 15 18 16 16 15 10 8 15 13 14 12 14 14 13 13 14 15 18 21 23 25 28 31 32 35 36 36 37 37 38 38 38
21 20 19 20 19 19 17 17 17 16 17 15 16 16 15 15 17 16 8 10 12 13 14 14 14 14 14 15 18 19 23 25 27 30 32 33 34 35 35 35 36 36 36
19 18 18 18 17 17 17 17 17 17 16 16 15 15 13 11 9 11 10 10 13 13 14 15 15 13 15 17 19 20 22 25 28 29 30 31 32 32 33 33 34 35 36
16 15 15 14 15 17 17 17 17 17 16 16 16 14 15 15 15 14 14 14 14 14 13 13 13 15 16 18 17 21 23 24 25 26 28 30 30 29 29 30 30 31 32
15 14 13 13 13 15 15 16 17 16 17 17 17 16 16 16 17 16 16 16 15 12 12 11 14 16 18 18 21 23 21 22 23 25 26 27 26 25 26 26 28 32 33
12 12 13 13 14 15 15 15 14 14 16 16 17 18 17 17 17 18 19 19 17 14 14 12 14 17 19 20 20 21 21 22 24 24 24 24 24 25 28 28 29 27 29
11 12 13 14 14 15 15 15 14 16 15 17 17 17 18 18 18 19 19 20 19 18 17 16 18 19 20 20 21 22 20 22 23 24 25 24 24 26 24 25 27 26 25
12 12 13 14 14 14 14 13 13 15 17 18 19 18 18 18 18 18 19 20 20 19 19 20 20 21 20 20 19 21 23 24 24 24 22 23 22 21 21 22 23 24 24
13 13 13 14 13 13 12 11 14 17 18 19 19 19 19 18 19 18 19 19 20 20 21 20 21 21 19 20 21 25 24 20 18 17 18 20 21 22 22 23 24 25 26
13 13 14 13 12 13 12 11 15 19 20 20 20 20 18 18 17 18 19 20 21 21 22 22 20 20 22 25 22 19 15 14 14 16 18 19 21 22 23 23 23 23 24
13 14 13 13 13 12 11 13 19 21 22 21 21 20 19 19 19 20 22 22 23 21 20 21 22 26 21 19 18 15 15 16 17 19 21 20 20 20 21 21 21 21 22
14 14 13 13 12 11 9 20 22 22 22 21 21 20 19 21 23 23 22 22 21 22 23 27 23 20 19 16 15 16 17 19 21 19 19 19 18 19 20 21 21 20 21
14 13 12 13 12 10 18 22 23 22 22 21 20 19 20 21 22 23 22 22 23 24 28 24 21 17 15 15 17 19 23 20 18 18 17 19 20 19 19 19 19 20 21
13 12 12 11 11 12 19 21 22 22 22 21 20 20 19 20 22 22 23 24 25 28 23 21 17 16 17 18 25 23 21 20 19 20 20 19 19 18 18 17 19 20 21
12 12 11 11 12 13 21 21 22 22 21 21 20 20 20 21 22 23 21 28 25 22 18 18 18 20 25 24 20 20 21 22 22 19 17 17 17 17 18 18 19 21 22
11 11 11 12 13 16 19 21 21 21 20 20 20 20 21 21 21 21 25 25 19 17 17 19 23 23 19 19 20 21 21 19 17 16 17 17 17 19 19 20 20 20 21
11 11 12 14 16 15 19 21 21 20 20 19 20 19 21 21 20 24 21 19 18 15 21 25 16 15 16 17 19 19 21 19 18 16 15 19 19 20 17 16 19 21 22

GFSMA_sfc_30mbdewp_027.txt.gz
Dewpoint
54 54 56 53 49 45 44 43 40 36 30 25 25 25 23 27 25 29 42 47 47 47 46 45 45 44 45 44 44 46 47 48 47 47 47 48 48 48 49 52 52 53 54
55 56 53 47 41 38 37 36 31 27 24 24 23 23 23 25 25 28 30 41 42 41 41 40 39 38 38 38 39 40 42 43 44 44 43 44 45 45 46 47 49 50 51
56 52 46 39 35 33 33 31 27 27 26 24 22 21 22 22 23 23 28 29 38 37 35 35 34 34 34 34 35 37 38 39 41 41 41 42 43 43 44 45 46 46 47
53 48 44 37 32 30 30 28 28 27 25 23 22 21 23 22 21 21 23 22 24 23 33 30 28 29 29 32 35 36 37 38 39 39 40 40 41 42 43 44 46 46 46
50 45 39 33 30 30 29 25 26 24 23 23 21 18 21 24 24 21 21 23 24 25 25 26 24 25 22 24 30 34 35 36 37 38 39 39 40 41 42 43 44 44 45
42 38 34 32 31 30 27 26 24 24 23 22 21 21 25 27 27 24 23 23 18 22 22 24 24 19 18 21 25 28 32 35 36 36 37 38 40 41 41 42 43 43 43
39 34 32 31 30 29 27 24 24 24 24 22 22 23 23 21 23 26 27 22 17 21 19 19 18 19 19 19 21 24 29 31 33 35 37 37 38 40 41 41 42 42 42
35 33 32 30 29 28 25 24 25 24 23 22 17 21 19 19 17 22 19 18 16 16 16 16 17 18 19 19 20 22 23 27 32 34 36 37 38 39 40 40 40 41 41
32 31 31 29 29 29 28 26 26 23 22 22 19 13 14 16 14 16 18 17 16 17 16 18 18 18 18 18 19 20 21 25 29 33 34 36 37 38 38 39 39 39 39
29 29 29 29 28 27 26 24 23 22 19 21 20 16 16 14 13 12 14 16 16 14 16 17 17 17 18 18 18 19 21 24 28 31 34 35 36 36 37 37 37 37 37
28 28 28 27 26 26 23 22 22 20 18 16 16 18 14 16 15 14 15 15 15 16 17 17 17 17 16 17 18 19 20 24 27 30 33 34 34 34 35 35 35 35 36
28 27 26 26 24 24 23 22 21 21 18 17 17 16 14 13 12 12 12 14 14 16 17 17 17 17 17 17 17 18 21 23 27 29 31 32 33 33 33 33 32 33 34
26 26 25 23 23 24 22 21 21 20 19 18 18 16 14 14 14 14 14 15 16 17 16 16 16 16 15 16 17 18 21 23 24 26 29 31 30 30 29 30 30 31 31
26 26 23 21 21 20 19 20 20 19 19 19 19 20 18 17 17 16 17 18 17 17 15 14 15 14 15 16 18 19 19 20 22 24 27 27 27 27 27 28 28 29 29
25 22 20 19 18 18 17 17 16 16 16 17 19 20 20 19 19 19 19 19 18 16 16 14 13 15 16 17 18 19 19 20 22 24 24 25 25 25 26 26 27 27 28
21 20 19 18 17 16 16 16 16 16 15 16 18 18 19 19 19 19 19 18 18 17 16 16 16 16 17 18 19 20 20 21 22 22 23 24 23 23 24 25 26 27 28
19 18 18 17 15 15 14 14 13 14 15 17 18 19 19 19 18 17 17 17 17 17 16 17 19 20 20 20 20 20 22 22 21 21 20 20 21 23 25 26 26 27 28
17 16 15 14 14 13 12 11 12 14 16 17 18 19 19 17 18 17 17 17 17 17 18 18 20 20 20 20 21 23 23 22 18 17 18 20 22 23 24 25 25 26 27
16 14 14 13 13 13 12 11 12 14 17 18 19 19 19 18 18 17 17 18 20 20 20 20 19 20 21 23 25 26 20 19 16 17 18 20 22 23 24 24 24 25 25
15 14 14 13 13 12 12 12 16 19 20 20 19 19 19 19 17 18 20 21 20 20 20 20 21 23 24 26 23 18 16 17 18 19 20 23 21 22 22 22 23 24 24
14 14 13 14 13 12 10 18 20 20 20 19 19 18 18 18 19 21 21 22 22 22 23 24 24 24 25 20 17 16 17 20 20 23 21 20 21 20 21 22 22 22 22
14 14 14 16 17 11 19 22 24 21 19 18 18 17 17 18 17 19 21 21 21 22 25 25 27 25 20 19 17 19 21 21 22 21 20 20 21 21 22 21 21 22 23
14 13 13 12 12 12 18 22 23 22 19 18 17 17 17 16 18 19 19 20 22 23 24 25 21 19 18 18 21 22 24 24 20 21 21 22 23 20 21 20 21 23 24
14 12 12 11 12 13 18 21 22 21 17 17 17 17 17 17 18 19 20 23 25 26 24 19 18 18 19 21 26 29 24 22 22 21 21 21 21 19 20 22 22 23 24
12 11 11 12 12 11 17 19 22 19 15 15 16 16 17 18 18 20 21 24 25 19 18 17 18 21 23 22 20 20 21 22 20 19 20 20 20 21 21 21 22 22 22
11 11 11 12 11 12 12 16 20 18 16 16 16 17 17 17 19 20 21 21 19 18 17 21 23 21 18 17 19 20 22 23 22 19 19 20 21 22 19 18 21 22 23

GFSMA_sfc_30mbdewp_030.txt.gz
Dewpoint
54 55 58 53 49 47 46 44 39 34 27 25 25 26 24 27 26 42 48 48 48 47 47 45 44 43 42 42 42 42 43 44 45 45 45 45 46 46 47 48 49 51 52
54 56 51 47 43 41 38 34 28 26 27 26 25 23 23 24 25 31 42 45 44 43 42 40 38 37 37 38 38 38 40 41 42 43 43 43 44 44 45 46 47 47 48
56 53 47 43 39 37 35 31 29 29 27 26 25 24 23 23 23 24 35 38 40 38 35 34 33 33 33 35 37 39 39 39 40 41 41 43 42 43 44 45 46 46 47
53 48 44 39 34 33 32 30 28 29 26 26 24 22 24 23 23 22 23 26 33 32 35 32 28 28 29 29 33 37 38 39 40 40 41 41 42 43 43 44 45 46 46
51 47 41 36 32 32 31 28 26 26 25 25 22 20 26 26 26 22 23 24 25 26 25 30 26 27 26 25 29 32 34 37 38 39 39 41 41 42 42 44 44 45 45
49 43 37 33 34 32 29 28 26 26 25 24 23 23 26 28 28 24 24 24 22 23 23 23 24 22 23 24 26 28 31 34 36 37 39 39 40 41 42 42 43 43 43
41 38 35 34 32 31 30 26 26 27 24 24 25 23 26 22 26 27 27 27 22 22 22 21 20 20 21 21 22 23 28 30 33 36 37 39 39 40 40 41 42 42 42
38 35 33 32 32 28 25 26 27 25 24 23 18 21 21 22 21 23 25 19 18 18 18 17 17 18 19 21 21 23 24 27 31 34 37 37 38 39 40 40 40 40 41
36 34 33 32 30 30 28 28 26 25 24 23 19 16 15 18 14 20 18 21 16 18 17 17 19 19 19 18 20 22 21 24 28 32 35 36 37 38 38 38 38 39 39
33 33 32 31 32 31 28 26 26 23 23 22 21 18 17 16 14 12 18 18 18 15 18 18 18 19 18 18 21 22 20 23 27 31 34 35 36 37 37 37 37 37 37
32 31 31 30 29 30 24 23 22 21 19 20 19 19 16 17 17 16 14 16 16 17 18 18 19 18 18 18 18 20 19 23 27 30 32 34 34 35 35 36 37 37 37
33 30 30 29 28 26 25 24 23 21 19 18 18 17 15 14 14 14 14 14 15 17 18 18 18 18 17 18 20 19 21 23 25 28 30 31 33 34 34 33 33 33 34
31 29 28 26 26 26 25 24 24 21 21 20 19 19 17 16 17 16 16 17 17 18 18 19 18 18 18 18 18 21 22 23 24 26 28 30 31 31 30 30 31 31 32
32 29 27 26 25 23 23 23 23 21 21 21 20 21 21 20 19 18 18 18 18 18 18 17 18 16 17 18 20 20 20 22 23 24 27 28 28 27 27 28 29 30 30
29 27 25 23 22 21 21 21 20 18 17 19 19 20 21 21 20 20 20 20 19 17 16 17 16 18 18 18 20 21 21 22 22 24 26 25 25 26 26 26 26 27 28
25 23 22 21 19 19 18 18 17 16 16 18 19 18 20 20 20 20 20 20 19 18 16 17 17 18 19 20 21 21 21 22 23 24 24 24 24 24 25 25 27 28 30
23 21 20 19 18 17 16 16 15 16 16 17 19 19 20 20 20 20 19 18 18 18 17 17 18 20 21 21 21 22 22 22 24 24 23 23 22 23 25 26 26 27 28
20 19 18 17 16 15 13 13 13 13 16 17 19 19 20 20 19 20 18 18 19 19 19 19 21 20 21 21 21 22 23 27 24 20 22 20 22 23 24 25 26 27 27
18 17 16 15 14 14 12 11 13 14 17 18 20 20 20 20 19 20 18 19 21 21 22 21 21 22 21 22 24 25 28 22 19 18 19 21 21 23 26 24 25 25 25
16 16 15 15 15 13 13 13 16 19 21 21 21 21 20 19 19 19 20 21 21 22 22 22 22 23 24 25 26 23 19 19 18 20 20 22 25 24 23 23 23 24 25
16 15 15 14 14 14 15 19 22 23 21 20 19 19 19 20 20 20 20 21 22 23 22 23 23 22 23 26 20 21 18 19 20 21 22 23 21 21 21 22 22 23 24
15 16 15 18 17 12 20 23 24 23 22 20 18 19 18 20 19 19 20 21 21 22 23 22 25 25 21 20 19 19 19 19 20 23 21 20 21 20 21 23 23 23 24
16 15 15 14 13 18 21 22 23 23 22 21 19 18 18 17 19 19 21 20 21 22 23 23 22 21 19 19 20 21 22 24 24 23 21 20 21 21 22 21 22 23 24
16 13 12 12 13 17 20 20 22 22 20 18 18 17 17 17 18 20 20 22 23 25 26 24 20 19 20 21 24 28 26 23 22 22 21 20 20 20 20 21 22 23 24
12 12 12 12 13 14 20 18 20 21 19 16 17 17 19 19 20 19 21 21 22 23 21 20 20 21 23 23 21 20 20 21 19 19 21 21 20 21 21 20 21 22 22
12 12 13 12 15 11 14 16 20 20 19 19 19 20 20 19 20 21 21 21 22 20 19 20 23 23 20 19 19 20 20 21 21 19 19 20 21 21 17 17 19 20 21

GFSMA_sfc_30mbdewp_033.txt.gz
Dewpoint
57 57 58 59 57 53 47 45 37 29 26 24 24 24 23 27 43 47 50 50 49 48 47 45 43 41 40 40 40 41 41 42 43 45 44 44 45 46 46 47 48 48 50
55 56 55 53 47 43 38 33 28 27 27 25 24 23 22 24 35 44 46 47 46 45 42 39 38 37 37 38 39 41 41 42 42 44 43 43 45 44 45 46 47 48 48
55 52 49 46 42 39 33 28 29 28 27 25 24 25 22 23 23 40 41 41 41 39 35 34 33 33 33 34 37 39 40 41 42 42 43 43 43 44 45 45 45 46 47
53 49 46 43 39 36 32 30 30 28 26 25 23 22 24 24 22 28 35 37 34 34 35 31 29 29 30 30 33 36 37 40 41 41 41 42 43 43 44 44 46 45 46
50 47 44 40 34 33 31 28 26 26 24 23 22 21 26 26 25 23 23 26 26 28 28 31 28 29 26 28 31 34 34 36 38 39 41 42 42 43 43 43 44 44 45
49 46 41 36 33 32 29 27 25 26 24 23 23 25 27 29 26 22 23 24 26 24 23 22 24 21 25 24 27 29 30 33 35 38 39 40 41 41 42 42 42 43 43
47 43 39 34 34 29 27 26 27 25 22 23 22 23 27 24 28 26 27 27 24 22 22 22 19 19 20 25 24 25 28 30 33 34 37 39 40 40 41 41 41 41 42
44 42 38 34 32 29 27 26 25 25 24 22 18 23 19 21 21 22 26 23 19 20 19 18 17 18 19 20 22 23 23 26 29 33 35 38 38 39 39 39 40 40 40
42 39 35 34 30 28 26 26 27 26 24 22 18 17 18 17 15 20 19 20 17 18 18 19 19 18 19 18 21 22 24 23 27 30 33 36 37 37 38 38 39 39 39
38 36 34 31 30 29 28 27 26 25 25 21 20 19 17 15 11 9 17 18 19 17 18 18 19 19 19 19 21 26 24 22 26 30 33 34 36 36 37 37 37 38 40
37 36 34 32 30 30 27 25 23 21 23 22 22 19 17 18 17 15 13 15 16 16 17 19 19 18 19 19 19 21 24 22 25 28 31 33 34 34 35 35 36 36 37
38 36 34 32 31 27 24 24 22 19 18 18 18 17 15 14 14 14 14 15 15 17 18 19 19 19 19 19 22 24 23 23 25 28 29 30 32 32 33 34 34 33 34
36 33 33 31 29 27 26 25 22 20 20 20 19 18 17 16 17 16 16 16 17 19 18 19 19 18 18 18 20 23 24 24 24 26 28 30 30 31 31 31 31 30 31
34 33 32 30 29 26 25 24 23 22 21 21 20 20 20 20 20 19 18 18 17 18 18 17 19 18 18 19 22 21 22 24 24 25 27 28 29 29 28 28 29 31 31
33 32 31 30 28 25 24 23 21 19 19 21 20 21 21 22 21 21 21 21 18 16 16 17 17 18 19 19 21 23 22 22 24 24 25 26 27 27 27 28 27 28 29
31 29 29 28 26 22 22 21 19 18 17 19 20 19 19 21 21 21 20 20 20 18 16 17 17 19 19 21 22 23 22 24 23 24 26 27 25 26 26 26 27 27 29
29 28 28 28 24 19 18 18 18 17 16 17 19 19 20 21 20 20 20 19 18 18 17 18 19 21 22 21 22 22 22 21 23 25 25 25 24 25 25 26 26 27 27
27 27 24 21 18 17 16 15 14 15 15 17 18 19 20 20 20 20 20 19 19 19 20 19 21 22 22 22 22 22 23 24 25 26 23 23 22 23 24 25 27 28 27
26 24 22 22 18 14 13 13 14 15 17 18 19 20 20 20 20 20 20 19 20 21 21 21 21 23 22 24 24 25 26 27 22 21 20 20 22 24 26 26 26 25 26
21 21 19 16 16 14 13 14 17 20 22 21 21 21 21 20 19 20 19 20 20 21 22 22 22 23 24 23 24 26 20 21 20 19 20 21 23 25 25 24 24 24 25
21 22 22 19 15 15 18 22 24 23 22 21 20 19 19 21 22 21 21 21 21 22 22 22 23 23 22 23 21 21 20 20 20 20 20 22 23 23 22 22 22 23 25
22 20 18 18 15 22 28 28 25 23 22 21 20 20 19 21 20 20 21 20 21 21 22 22 24 22 22 21 20 20 20 20 20 22 23 23 22 21 21 22 23 24 24
30 28 26 27 29 27 23 23 24 23 21 20 19 18 18 17 20 19 21 21 21 22 22 22 23 23 22 21 20 21 23 24 24 25 22 21 21 21 21 21 22 23 24
28 30 28 18 15 21 22 22 23 21 20 18 17 17 18 19 19 21 21 21 23 23 23 25 24 22 21 21 25 27 24 22 21 21 21 19 20 20 21 21 22 22 24
26 14 13 13 13 22 20 19 21 20 19 19 19 20 21 20 21 21 22 22 22 22 24 22 21 22 24 24 22 21 21 20 18 18 19 20 20 20 21 20 20 22 22
12 12 13 12 15 11 16 17 19 19 19 19 20 21 22 20 20 21 22 22 21 20 20 21 22 22 20 19 20 20 20 20 19 19 18 20 20 20 17 18 18 20 20

GFSMA_sfc_30mbdewp_036.txt.gz
Dewpoint
61 60 60 61 60 56 49 47 39 28 25 24 25 23 26 41 47 49 52 52 51 49 47 45 43 42 42 42 42 43 43 44 44 45 45 45 47 46 47 47 48 48 49
59 59 58 59 57 54 47 38 29 27 26 25 24 23 24 34 44 47 48 49 48 45 42 39 37 37 37 38 40 42 43 43 44 44 45 44 45 46 46 47 47 47 48
57 57 56 56 50 42 35 28 28 28 26 25 24 24 23 25 41 43 43 43 43 39 36 35 33 34 34 35 38 40 40 42 43 43 43 44 45 45 45 46 46 47 47
56 54 53 52 44 37 30 30 29 27 26 24 22 21 24 23 26 39 38 38 34 36 36 32 30 30 30 33 35 38 38 39 40 41 42 43 43 44 44 45 45 45 45
54 52 50 46 40 35 31 29 28 26 24 23 22 21 25 25 23 29 34 34 31 33 30 32 32 28 27 28 31 34 34 35 38 39 41 42 42 42 43 43 43 44 44
52 50 47 42 36 33 30 27 26 26 24 22 23 25 27 29 25 23 25 25 27 26 24 23 24 22 26 24 26 28 31 33 35 36 38 39 41 41 41 42 42 42 43
50 48 44 37 34 31 29 26 26 23 22 24 24 25 27 24 27 26 26 25 24 23 23 22 20 19 20 26 25 26 27 29 32 33 36 38 40 40 40 40 41 41 41
50 46 42 36 33 30 27 27 27 25 23 21 20 24 21 21 22 22 26 26 22 22 20 18 18 18 19 21 22 25 23 24 28 31 33 36 38 39 39 39 40 40 40
50 48 41 37 32 30 27 26 27 27 24 21 19 20 20 19 18 19 21 19 18 19 18 19 18 19 19 19 22 23 26 23 26 30 33 35 37 37 38 39 39 39 39
50 45 40 37 32 30 27 27 28 28 25 21 20 18 17 16 12 10 17 19 18 17 17 18 20 19 19 20 23 26 28 25 26 28 32 34 35 36 37 37 38 37 38
46 44 39 36 32 31 28 27 26 26 25 23 23 19 17 18 17 13 11 14 18 17 18 19 19 19 19 19 22 26 28 27 28 29 32 34 34 35 35 36 36 36 36
43 42 38 36 33 31 29 27 25 24 23 21 21 17 16 14 15 15 14 15 15 16 19 19 19 19 19 19 20 24 25 26 28 29 30 32 33 33 34 34 34 35 35
41 40 39 37 34 30 29 27 24 21 20 19 18 17 17 16 17 16 15 15 16 19 18 20 19 19 18 19 21 23 24 25 26 28 30 31 31 32 31 32 32 31 32
42 41 39 37 33 31 29 27 24 22 22 20 19 19 19 19 19 18 18 17 16 18 19 17 19 18 19 19 22 23 23 25 26 27 28 29 28 29 29 30 30 29 31
40 39 37 34 31 29 27 26 24 22 22 21 21 21 21 22 22 21 21 21 18 16 16 17 16 18 19 20 22 24 23 25 24 25 25 26 27 28 29 28 28 29 30
37 37 36 32 29 28 28 27 23 21 20 21 21 20 20 21 21 21 21 21 21 19 16 18 17 19 20 22 23 22 23 24 24 25 26 27 27 27 27 27 29 28 29
36 33 30 29 28 26 24 25 24 23 18 19 20 19 19 21 20 21 21 20 19 19 17 18 19 21 22 22 22 23 23 23 23 26 25 26 26 26 26 26 26 27 27
31 30 28 27 29 30 33 33 28 17 17 17 18 19 20 21 20 20 20 19 19 19 19 18 20 21 22 23 23 23 24 24 25 26 26 25 25 24 25 26 27 27 28
28 28 28 28 29 30 28 23 21 18 17 18 19 20 21 21 20 21 20 20 20 20 21 21 21 22 23 23 24 24 24 25 26 24 23 22 23 24 26 27 27 27 26
28 28 28 27 27 26 23 18 20 22 24 25 26 26 24 22 20 20 20 20 20 20 21 21 22 22 23 24 24 24 22 21 21 21 21 22 24 25 25 25 26 25 25
26 26 25 26 26 26 26 28 30 30 30 29 25 21 20 21 24 23 21 21 22 21 21 21 21 22 23 22 21 21 21 20 20 21 21 22 23 24 24 24 23 23 24
29 29 27 27 29 32 34 34 32 30 24 20 19 20 20 21 20 21 21 21 21 21 21 22 22 23 22 22 22 21 21 20 20 22 23 23 22 21 22 22 23 24 25
30 30 29 30 33 34 35 32 28 22 20 19 18 17 17 18 21 19 21 22 22 23 23 23 22 22 23 23 23 21 21 23 23 23 22 20 20 20 21 21 22 23 24
32 32 33 33 31 29 26 24 24 20 19 18 18 19 19 21 21 22 22 22 23 23 23 23 23 24 24 24 26 28 25 22 22 21 20 18 19 19 20 21 22 23 24
33 32 28 24 22 27 25 22 22 20 18 18 20 20 22 22 22 22 22 22 23 23 24 22 22 22 24 24 22 21 21 21 18 18 19 19 19 19 19 19 20 22 22
25 20 16 14 19 18 21 19 22 20 18 18 19 21 22 21 21 21 23 23 21 20 20 21 21 19 18 18 20 20 20 19 19 17 18 18 19 20 17 18 19 20 19

GFSMA_sfc_30mbdewp_039.txt.gz
Dewpoint
62 62 61 61 61 58 53 48 40 27 25 25 24 25 34 46 48 51 53 54 52 50 48 45 44 43 42 42 43 44 45 45 45 46 46 46 46 47 48 48 48 48 49
61 61 60 60 60 56 49 45 34 27 25 24 23 23 29 43 46 48 49 51 49 46 43 41 39 38 38 39 41 42 43 44 45 45 45 46 46 46 47 47 48 48 48
59 60 60 59 58 55 46 33 28 27 26 25 23 23 24 39 43 45 45 45 45 41 38 37 36 36 35 37 39 40 41 42 42 43 44 45 45 45 46 46 46 46 46
58 58 58 57 54 46 37 30 28 27 26 24 22 23 24 25 40 41 41 40 36 37 36 33 31 31 33 33 34 37 38 38 40 41 43 44 44 44 44 44 45 45 45
57 56 56 55 49 38 31 30 28 27 24 23 21 22 25 24 29 38 37 34 33 35 30 32 32 30 28 28 30 32 34 35 37 38 40 41 43 43 43 43 43 43 44
56 55 53 51 44 36 31 30 28 26 24 23 23 25 28 29 25 29 32 31 28 29 26 27 26 23 28 25 25 27 31 32 34 36 36 39 41 42 42 42 42 42 42
54 53 51 46 41 36 32 28 26 24 23 24 24 26 27 25 25 24 25 25 26 25 24 22 20 19 19 29 27 26 28 28 30 32 35 36 39 40 41 41 41 41 41
55 52 48 44 39 35 30 27 26 24 23 24 21 25 21 22 23 22 27 27 24 24 21 19 18 19 19 21 24 29 29 26 27 31 33 36 38 39 40 40 40 41 41
54 53 49 44 38 35 30 28 27 26 24 21 21 23 22 21 20 19 21 21 18 20 19 19 19 19 19 19 22 25 30 31 29 30 33 35 37 38 39 39 39 40 40
53 53 48 43 39 35 32 30 29 28 25 22 20 18 17 21 17 14 17 19 18 17 18 18 19 19 19 20 25 30 30 30 30 32 34 35 37 38 38 38 38 39 39
53 53 49 44 41 39 38 33 29 28 27 24 22 19 18 18 16 14 12 15 18 18 18 19 19 19 19 20 21 26 27 29 31 32 34 34 35 36 37 37 37 37 37
51 50 47 45 43 41 39 35 30 29 27 25 24 19 18 17 16 15 14 15 15 16 19 20 19 19 19 19 21 25 26 27 28 29 31 33 34 35 35 35 36 35 36
49 48 46 44 43 40 37 34 32 30 26 24 22 19 18 16 17 16 15 15 14 18 18 20 20 19 19 19 22 24 25 26 27 29 31 33 33 33 33 33 33 33 33
51 48 45 43 41 37 35 33 32 30 26 22 19 18 18 19 18 17 17 16 15 18 19 17 19 19 19 20 23 24 24 25 25 27 29 30 30 30 30 31 31 32 31
48 45 44 41 38 37 34 31 29 27 25 23 21 22 21 22 22 21 21 20 17 14 15 16 16 19 19 20 22 24 23 24 25 26 27 28 29 29 29 29 29 30 29
45 44 42 40 36 32 29 29 27 26 24 25 25 21 21 22 22 22 22 21 20 18 16 18 17 18 19 21 23 24 24 25 24 26 27 28 27 28 28 28 28 29 30
41 41 40 36 31 28 27 26 27 28 29 28 28 26 20 21 21 21 21 21 21 20 18 18 19 19 20 21 22 23 24 24 24 25 25 27 27 28 28 27 28 28 28
40 38 34 29 27 28 29 29 32 32 31 30 28 26 21 21 21 21 21 20 20 20 19 18 19 20 21 22 23 23 23 24 24 25 26 27 27 26 26 27 27 27 28
34 32 30 30 31 31 32 31 30 28 28 27 23 20 21 21 21 22 22 21 21 20 20 20 20 22 22 23 23 24 24 24 25 24 23 23 24 25 26 27 27 27 27
31 30 30 32 31 30 30 29 28 27 28 29 30 30 30 30 28 24 21 20 20 20 20 21 21 22 22 23 24 23 21 21 21 21 22 23 25 25 26 25 26 26 27
29 29 29 29 29 29 30 32 32 33 33 33 32 31 28 25 27 25 23 22 22 21 21 21 21 21 22 23 22 22 22 21 22 22 21 22 23 23 24 25 24 24 24
29 29 29 30 32 33 34 35 35 33 32 31 28 23 19 20 20 23 24 24 24 22 21 21 21 21 23 22 22 22 21 22 20 22 22 22 22 21 21 21 23 24 26
31 31 32 33 34 36 37 35 33 31 28 20 18 17 18 19 22 20 22 23 23 24 24 23 23 22 21 23 23 23 23 23 22 23 22 20 21 20 20 20 22 23 24
32 33 33 33 32 34 35 34 30 22 18 18 18 19 19 21 22 23 23 23 23 23 24 24 24 24 24 24 25 27 27 24 22 21 21 18 18 18 19 20 22 23 24
33 32 32 32 31 33 31 29 22 19 18 18 19 20 22 22 23 22 22 22 23 23 23 22 22 23 24 23 22 20 20 20 18 18 19 18 18 19 19 19 20 22 23
31 30 27 24 29 28 24 22 23 20 18 18 19 20 22 21 21 22 23 23 19 19 19 21 20 17 17 17 20 20 20 19 19 17 18 17 18 20 17 18 19 20 19

GFSMA_sfc_30mbdewp_042.txt.gz
Dewpoint
63 62 62 62 62 60 56 49 40 28 27 25 25 30 43 47 50 52 54 54 53 51 49 46 45 44 43 44 45 45 46 47 47 47 47 47 48 48 48 49 49 49 49
62 62 61 61 60 58 53 48 36 26 25 24 23 26 40 45 47 49 51 52 50 47 45 43 40 40 40 41 43 43 44 45 45 45 46 47 47 47 47 47 47 47 48
62 61 61 60 59 57 49 42 30 27 26 24 23 23 32 43 45 46 48 47 46 44 41 39 39 37 37 40 40 42 42 41 42 43 45 45 45 46 46 46 46 46 47
60 61 60 60 58 55 45 35 29 27 26 24 23 23 24 36 42 43 43 42 38 38 37 35 33 34 34 33 35 37 37 38 39 41 43 43 44 44 44 44 45 45 45
59 59 59 59 56 51 42 32 29 27 25 24 22 23 25 24 35 40 39 36 35 36 32 32 32 31 29 29 31 32 34 36 36 38 39 40 41 43 43 43 43 43 44
58 58 58 57 53 47 39 31 28 27 26 24 22 24 28 29 26 36 35 34 31 32 27 30 27 24 32 29 26 28 31 32 33 35 36 38 39 41 42 42 42 42 43
57 57 56 55 51 46 37 31 28 26 24 25 25 26 27 26 25 25 29 29 26 27 24 23 21 19 20 28 32 29 30 32 31 32 34 36 38 40 41 42 41 42 42
56 56 55 53 49 45 35 30 28 26 24 26 23 25 22 22 24 24 27 25 25 25 22 20 18 19 20 20 24 31 32 30 31 32 34 35 37 39 40 41 41 41 41
56 56 54 52 47 45 39 31 29 29 25 23 24 25 23 23 21 20 22 25 22 22 20 19 19 19 19 19 23 26 32 31 31 33 34 36 37 39 39 40 40 41 41
57 56 54 51 47 45 42 35 34 35 28 24 21 20 19 23 20 17 18 20 19 19 19 18 19 19 19 22 28 32 31 32 33 35 36 38 38 39 39 39 39 40 40
57 56 54 51 47 44 42 39 38 34 32 28 24 20 18 17 16 16 15 17 19 19 18 18 19 19 19 20 22 27 28 29 30 32 33 35 36 37 38 38 39 39 39
55 55 54 51 48 44 43 42 40 37 33 29 26 21 19 18 16 15 15 15 16 16 19 20 19 19 19 19 22 27 27 28 29 30 33 34 36 36 37 37 37 37 37
53 54 53 50 47 45 44 43 40 38 35 31 28 23 21 18 19 17 17 16 14 17 18 20 20 20 19 20 22 25 26 26 27 29 31 34 34 34 34 34 35 35 35
54 53 52 50 48 46 44 42 40 38 34 32 27 23 20 19 19 17 17 16 15 17 18 17 20 20 19 20 23 24 24 26 26 28 30 30 30 31 32 32 32 33 33
54 52 50 49 48 45 41 40 38 33 31 29 24 23 24 26 22 22 21 19 15 12 14 16 16 19 19 20 21 25 25 26 26 26 26 28 29 30 30 30 30 30 31
51 49 48 46 43 41 39 37 32 30 27 27 27 24 24 24 25 25 24 22 20 17 15 18 17 18 18 19 21 25 24 26 26 26 26 27 27 28 29 29 29 29 30
46 46 44 41 40 37 35 32 28 28 28 28 28 28 27 27 26 25 24 24 22 21 19 20 19 19 19 20 21 22 24 24 24 25 25 26 27 28 29 29 28 28 28
43 41 39 36 34 31 30 29 29 30 31 31 30 30 30 31 28 27 26 25 24 23 22 18 19 19 20 21 22 22 23 23 24 24 25 27 27 27 27 28 28 28 28
40 37 33 31 31 32 33 33 33 33 32 32 31 28 27 28 29 31 31 31 29 22 21 20 19 21 22 23 23 23 23 24 24 25 24 24 25 26 27 28 28 27 27
33 32 32 32 32 32 31 30 29 29 30 32 32 33 33 33 32 32 31 30 23 21 21 21 21 22 22 22 23 23 23 22 22 22 23 24 25 25 25 25 26 26 27
33 33 31 31 32 32 32 32 33 33 33 33 33 32 32 32 32 32 29 24 23 22 22 22 21 21 21 22 23 23 22 22 22 23 22 22 22 23 23 24 24 24 25
32 32 32 33 33 34 34 34 34 33 33 32 30 30 30 29 28 27 25 24 24 24 23 22 21 21 22 24 22 22 22 22 21 22 22 21 23 21 21 22 23 24 25
33 34 34 34 35 37 37 37 35 31 30 28 26 19 20 21 25 22 23 24 24 25 24 24 24 23 22 23 23 22 23 23 23 23 23 20 21 20 21 20 22 23 24
33 33 33 34 34 36 36 34 31 29 23 19 19 19 20 22 22 23 23 23 23 24 24 24 24 24 24 24 24 25 25 23 21 21 21 19 19 18 19 20 21 23 24
32 32 32 32 32 33 34 31 24 19 17 18 20 20 23 22 22 22 22 22 24 23 22 22 22 24 24 22 21 21 20 20 18 17 19 18 18 18 19 19 19 22 23
31 31 30 32 33 32 32 29 21 19 18 18 20 20 22 20 22 23 24 24 19 19 19 20 19 17 17 17 21 20 20 19 18 17 18 18 18 19 17 18 19 19 19

GFSMA_sfc_30mbdewp_045.txt.gz
Dewpoint
62 63 63 62 63 63 60 54 44 36 31 28 31 38 44 47 52 55 56 54 54 52 49 48 47 45 44 46 46 46 47 47 47 47 48 48 48 48 49 49 49 49 50
62 63 63 62 62 62 58 52 42 32 30 28 27 32 42 46 49 52 53 52 52 50 47 45 42 41 43 44 44 44 46 45 45 46 47 47 47 48 48 48 48 48 48
62 63 62 62 61 60 56 49 36 30 29 27 26 28 40 44 46 48 50 49 48 47 44 41 40 38 40 41 41 42 42 41 42 43 45 46 46 46 46 46 46 46 46
62 62 62 61 61 59 54 47 36 31 30 28 26 26 30 41 43 45 47 45 42 41 40 37 36 36 35 35 37 37 37 38 39 40 42 43 44 45 45 44 45 45 45
61 61 62 61 60 59 52 43 35 32 30 28 26 27 26 31 40 42 42 41 39 38 36 35 35 33 31 31 32 33 34 36 35 37 39 39 41 42 44 44 44 44 44
61 60 60 61 59 57 52 41 36 31 30 29 21 25 29 28 29 39 39 36 35 36 33 35 33 31 33 31 28 30 32 34 34 34 36 37 40 40 42 43 43 43 43
60 60 59 59 59 57 53 45 35 31 29 28 28 28 29 29 28 30 37 35 31 32 29 30 26 23 22 30 32 31 31 35 35 34 35 36 38 39 41 42 43 43 43
59 59 59 58 57 55 51 43 35 31 30 29 28 29 26 26 27 27 28 31 29 29 27 25 23 22 24 23 26 32 32 31 32 34 35 36 38 39 41 41 42 42 42
58 58 58 58 56 54 49 44 37 34 31 28 29 30 27 28 25 25 26 28 27 27 26 24 21 22 22 22 25 27 33 32 33 35 37 38 40 40 41 41 41 42 42
59 58 57 56 55 53 51 45 39 36 35 31 27 25 25 28 26 22 21 24 24 24 24 23 21 21 21 24 30 32 31 31 32 34 36 37 38 39 40 40 40 41 41
59 58 57 56 54 53 53 49 41 37 37 37 31 24 21 22 19 24 24 21 22 21 22 20 21 20 21 22 25 28 29 30 31 33 34 35 37 38 39 39 40 40 40
59 58 57 56 55 53 52 48 45 43 40 38 34 28 24 22 20 18 19 20 21 21 21 21 21 20 20 21 23 28 28 28 28 30 32 35 36 37 38 38 38 38 38
57 57 57 56 55 52 51 49 47 45 42 39 37 31 27 24 22 20 20 19 18 19 20 21 21 21 20 20 22 26 27 26 28 29 32 34 34 34 34 35 36 36 36
57 57 57 57 55 53 50 49 47 46 44 41 35 29 26 22 21 21 25 28 27 22 19 19 21 21 20 20 23 25 22 26 27 28 30 30 30 30 31 33 33 34 34
57 56 55 55 53 51 49 48 47 45 42 39 33 29 25 27 28 29 28 25 23 20 16 17 18 20 20 21 21 22 23 25 27 28 27 28 28 29 30 30 31 31 31
55 54 53 52 51 49 47 46 44 41 38 34 31 27 27 27 27 28 27 26 24 19 15 19 19 21 21 20 22 24 24 26 26 27 27 27 27 28 29 29 29 30 30
51 51 49 48 46 45 44 42 38 35 32 29 28 28 28 30 28 28 29 29 29 29 28 27 26 27 27 25 23 23 23 23 24 26 26 26 27 28 28 28 29 29 29
47 47 45 44 42 40 38 35 32 31 30 30 31 30 30 31 31 32 31 29 29 30 29 28 28 25 24 24 23 23 23 23 23 24 25 26 26 27 27 28 28 29 29
43 41 40 37 34 32 32 31 31 32 32 33 33 32 31 30 30 31 32 32 31 32 30 28 25 25 24 23 23 23 23 24 24 24 24 24 25 27 28 28 28 28 28
34 33 33 33 33 33 33 33 32 32 32 32 33 33 33 33 33 32 32 31 32 30 28 27 26 24 23 23 23 23 22 22 21 21 23 24 26 26 25 25 26 26 27
34 34 34 33 33 32 32 33 33 33 33 33 33 33 32 32 32 32 31 31 30 29 27 25 24 23 23 22 22 22 22 20 22 23 22 22 22 22 22 24 24 24 25
34 34 34 35 35 36 36 35 34 34 33 32 31 31 31 32 32 32 32 32 30 27 26 25 24 23 22 23 22 21 21 21 20 21 21 21 22 21 21 21 22 24 26
35 35 36 36 37 37 37 36 34 32 31 30 29 28 28 29 30 28 26 24 25 25 25 25 24 23 22 22 24 24 23 23 22 22 21 20 20 19 20 20 22 23 24
34 34 34 35 35 36 36 35 33 30 28 27 24 25 25 24 24 24 23 25 24 24 24 25 24 23 22 23 25 26 24 22 20 20 20 19 19 18 19 19 21 22 24
32 32 32 32 32 33 33 27 23 20 20 21 23 24 24 22 22 22 23 24 25 24 21 22 22 24 24 23 21 21 21 20 19 17 18 18 18 18 19 19 19 21 22
31 31 31 32 33 33 31 30 21 18 18 19 21 20 21 21 23 24 26 26 21 19 19 22 20 18 17 17 21 20 20 20 19 18 19 18 19 19 17 17 19 19 19

GFSMA_sfc_30mbdewp_048.txt.gz
Dewpoint
59 60 60 59 57 58 58 58 55 48 43 39 37 38 39 40 44 48 51 55 56 53 51 49 48 47 47 48 47 48 48 48 48 48 49 49 49 49 49 49 49 49 50
58 59 59 60 59 58 58 57 54 47 42 37 34 35 37 38 41 45 46 52 54 52 49 48 45 44 45 46 45 47 45 45 46 47 47 47 48 48 48 48 48 48 48
58 58 58 59 60 59 57 57 52 45 40 35 34 32 36 37 39 43 45 45 49 49 48 44 42 41 42 44 44 44 42 41 42 43 45 45 46 46 46 46 46 46 47
59 58 58 59 60 60 57 56 51 45 40 36 34 32 33 37 37 39 43 43 43 41 43 42 41 38 40 38 39 38 37 39 38 39 41 42 43 44 45 45 45 45 45
60 59 58 59 60 60 58 55 52 47 42 38 35 32 30 33 36 37 39 41 40 39 37 38 37 38 34 34 35 34 35 36 36 36 39 40 40 42 43 44 45 44 45
61 60 58 58 59 59 58 55 50 46 43 40 31 29 30 29 32 36 36 38 36 38 36 33 34 32 33 30 30 31 33 34 36 35 36 37 39 41 41 43 44 44 44
61 61 59 58 58 58 58 56 51 46 40 38 32 32 31 30 28 30 35 35 33 34 33 33 31 27 27 33 34 32 31 36 36 36 36 37 38 39 41 42 43 44 44
62 61 60 58 58 58 58 57 52 46 44 36 38 38 36 31 28 28 30 33 32 31 30 29 28 25 24 24 27 33 31 30 33 35 37 38 39 40 41 42 43 43 43
62 61 61 60 59 58 57 58 54 48 45 38 37 43 39 39 31 29 28 30 31 30 29 28 26 25 24 23 26 27 32 33 35 37 38 40 41 41 42 42 42 43 42
62 62 61 61 60 60 57 57 54 51 50 42 36 34 33 33 31 28 27 28 28 28 28 28 25 24 24 23 28 33 32 31 33 34 36 38 39 40 40 41 41 42 42
62 61 60 61 60 59 58 56 53 51 50 47 40 35 31 29 27 30 30 25 26 26 26 27 24 23 22 24 26 28 30 30 32 33 34 35 37 38 40 40 40 41 41
60 61 60 60 60 59 57 56 54 51 50 49 42 39 36 36 31 27 28 26 25 25 25 25 24 22 22 22 23 28 28 29 29 31 33 34 36 38 38 38 38 39 39
60 59 59 59 59 59 58 57 55 52 50 49 46 43 37 35 28 27 27 24 22 21 22 23 22 23 22 22 22 27 28 26 28 29 31 34 35 34 34 35 36 36 37
58 59 58 59 59 58 57 56 55 53 51 49 48 45 38 32 27 25 27 26 26 25 27 29 27 27 23 21 22 26 22 24 27 28 30 32 31 31 32 32 33 34 34
57 58 58 58 58 58 56 55 53 52 51 50 49 45 38 30 29 28 30 33 33 30 30 23 23 23 23 22 22 23 22 23 27 29 29 29 30 30 30 31 31 32 32
52 55 56 56 57 55 54 52 51 51 49 48 46 39 31 29 30 31 31 28 29 29 27 25 25 28 27 28 32 34 30 29 28 27 28 28 29 29 29 30 30 30 31
52 53 53 54 54 52 50 49 48 47 45 40 36 33 32 32 32 32 31 31 30 30 29 30 30 31 32 32 32 31 30 27 24 24 25 27 27 28 29 29 29 29 30
50 51 50 50 49 48 47 45 41 39 35 32 32 32 31 32 32 33 33 32 32 32 32 32 31 30 30 32 30 29 27 24 23 22 25 27 28 27 28 28 29 29 29
45 45 44 43 42 40 38 36 33 32 32 32 33 32 33 33 33 33 33 32 32 32 31 31 30 31 29 28 28 26 24 22 23 23 23 22 23 25 27 28 29 29 28
37 36 36 35 35 34 33 33 33 33 33 33 33 33 33 33 33 32 32 32 32 31 31 30 28 28 28 27 26 23 21 21 20 19 20 22 24 25 26 27 27 27 28
35 35 34 33 33 33 33 34 34 34 34 34 34 34 33 34 34 33 32 32 32 31 30 29 27 25 24 22 20 20 20 19 20 20 19 21 21 21 22 23 23 24 25
37 37 36 37 36 36 36 36 34 34 33 32 31 31 32 33 33 34 35 33 31 28 28 26 26 22 20 20 20 20 20 19 19 21 20 21 21 20 20 21 21 23 25
37 37 38 38 37 38 37 36 35 33 32 31 31 31 30 29 29 28 29 27 27 27 27 25 22 20 20 20 23 23 22 21 21 21 20 20 20 20 20 19 21 22 24
32 34 33 34 34 36 36 34 33 30 29 28 28 28 26 25 24 24 23 24 24 23 22 23 23 22 21 21 21 24 25 22 21 20 20 20 19 19 19 20 21 22 23
32 31 32 32 31 32 33 31 28 24 24 24 24 25 24 22 21 23 22 24 23 23 23 22 22 22 24 24 23 21 21 21 21 20 20 20 20 20 21 22 22 22 23
31 32 32 33 33 29 29 24 19 18 19 20 20 18 20 21 24 25 24 25 22 19 17 20 19 17 17 16 20 21 21 22 21 20 20 20 21 21 20 19 21 21 22

GFSMA_sfc_30mbdewp_051.txt.gz
Dewpoint
57 58 57 56 55 56 57 59 57 53 49 45 43 43 42 41 42 46 56 56 57 55 53 51 50 49 49 49 48 49 48 49 49 49 49 49 49 50 50 50 50 50 50
57 58 57 57 56 55 56 56 56 53 47 44 41 40 41 40 39 44 50 55 56 54 51 50 48 46 47 47 47 48 45 46 46 47 48 48 48 48 48 48 48 48 48
57 57 57 57 58 57 56 55 55 52 47 43 40 38 39 40 39 41 44 51 53 52 51 49 45 44 45 46 46 45 42 41 42 43 44 45 46 46 47 47 46 47 47
58 57 57 57 57 58 58 56 55 52 47 43 40 38 37 39 38 38 42 43 48 47 48 46 44 42 43 42 42 41 39 39 39 39 41 41 42 43 45 46 46 46 46
59 58 57 57 57 58 58 57 55 51 48 45 42 39 36 38 38 37 39 42 43 43 44 45 43 41 40 38 40 37 37 37 37 37 38 40 41 42 43 44 45 46 45
61 60 59 58 57 58 58 58 55 53 50 46 41 38 37 35 37 37 37 38 40 41 40 40 39 38 36 35 36 34 34 35 36 37 37 38 39 40 42 43 44 44 45
62 61 60 59 58 57 58 58 56 53 50 47 42 36 37 36 33 34 37 37 38 39 38 36 35 34 35 35 33 34 33 34 37 36 38 37 39 40 41 43 44 44 44
63 62 62 61 59 58 58 58 56 54 50 47 41 41 40 37 34 33 32 35 36 36 36 34 34 32 30 32 34 31 34 32 32 35 37 38 39 41 43 44 44 44 44
64 63 62 62 61 59 58 58 58 55 50 46 43 45 44 43 36 34 31 32 34 34 34 33 31 30 28 28 34 31 28 31 34 37 39 40 41 41 42 43 43 43 43
62 63 63 62 61 61 59 59 59 57 52 47 43 43 45 38 38 32 32 31 32 32 32 32 29 29 28 28 29 33 35 33 32 34 36 38 39 40 41 42 42 42 43
61 61 61 61 61 61 61 59 58 58 53 51 44 44 42 36 33 34 31 29 30 30 31 31 30 28 27 27 31 33 32 31 31 34 34 36 37 39 40 41 41 42 42
59 61 61 61 61 61 60 60 59 58 55 54 49 47 42 40 36 33 34 32 29 29 29 29 29 27 26 26 27 32 31 30 30 31 33 34 36 38 39 39 39 39 39
58 60 60 60 60 60 60 60 59 58 56 54 54 47 46 45 46 40 40 32 28 24 27 27 26 26 24 25 29 29 29 28 28 30 31 34 34 36 35 36 36 37 37
54 56 60 60 60 59 59 59 59 58 56 54 53 53 48 44 38 35 35 31 29 27 27 26 28 29 26 25 27 28 28 28 26 29 31 32 32 33 33 33 33 35 35
50 53 56 58 59 59 59 59 58 57 56 54 53 53 50 44 38 37 38 40 40 37 26 26 26 25 25 25 27 26 29 31 31 33 33 31 31 31 31 32 32 33 33
49 49 52 55 57 57 58 57 56 55 54 53 52 51 46 36 35 35 34 34 36 35 34 31 30 29 27 29 32 35 34 35 34 33 32 29 30 31 31 31 31 32 32
50 51 52 52 52 56 54 54 53 52 52 49 46 42 36 35 34 35 35 36 35 35 34 30 31 32 31 33 34 34 34 32 30 28 27 27 28 29 30 30 30 30 31
48 49 49 50 51 50 49 49 47 46 44 40 37 35 34 34 34 34 35 34 34 35 34 33 32 32 32 32 32 32 32 29 26 24 25 26 28 29 29 28 29 30 30
40 42 42 43 43 42 41 38 37 36 35 35 35 34 34 33 33 34 34 34 34 33 33 32 31 31 32 32 31 29 28 26 24 23 24 24 23 23 26 28 29 30 30
36 36 36 36 36 35 35 35 34 34 35 35 35 35 35 34 34 34 33 32 32 32 32 31 31 32 32 31 29 26 23 24 22 21 21 22 23 24 26 26 26 27 27
36 36 35 35 35 35 34 35 35 35 35 34 34 34 35 35 35 35 33 32 32 32 32 31 29 28 26 25 24 22 21 21 22 22 22 22 22 23 23 24 24 23 24
38 39 38 38 38 38 37 36 35 34 33 32 31 32 33 34 36 36 36 35 34 31 29 28 27 25 22 21 21 21 25 22 20 22 22 22 24 22 22 23 23 23 25
34 34 34 34 35 37 37 36 34 32 31 31 31 31 31 30 30 28 30 29 28 28 28 27 25 22 20 21 25 23 23 23 23 22 23 21 22 22 22 21 22 23 25
33 32 32 32 33 34 35 34 32 31 30 31 30 28 26 25 24 24 23 24 24 24 24 23 23 23 23 22 22 23 25 25 24 23 23 21 22 22 22 23 23 24 25
32 32 32 31 31 32 32 29 27 27 26 24 24 24 22 20 21 23 23 24 24 23 24 25 23 22 23 24 24 24 22 22 22 22 23 22 22 23 23 23 24 24 24
32 32 32 33 29 27 25 23 19 19 19 19 19 17 20 23 24 25 26 24 23 20 19 19 20 20 19 19 19 21 22 22 22 21 23 21 23 23 23 22 23 24 23

GFSMA_sfc_30mbdewp_054.txt.gz
Dewpoint
59 57 57 57 59 60 59 62 61 58 51 48 46 45 44 43 43 55 57 60 58 56 54 53 51 51 50 50 50 50 50 49 50 50 50 50 50 50 50 50 50 50 50
58 59 58 57 56 57 58 60 60 56 51 49 44 43 42 42 41 52 56 58 57 55 52 51 51 49 50 49 50 48 47 47 48 49 48 49 48 48 48 48 48 48 48
58 58 58 59 58 56 56 56 56 56 50 46 43 40 41 41 40 42 55 55 56 54 53 51 49 48 49 48 48 47 44 44 44 45 45 45 46 47 47 47 47 47 47
58 58 58 58 59 59 57 56 56 55 50 46 42 40 39 41 40 40 45 53 53 52 52 52 48 46 46 47 47 45 42 41 41 41 41 41 42 43 44 46 46 47 46
59 58 58 58 58 58 59 57 56 55 50 46 42 41 38 40 39 38 42 45 51 50 49 49 48 46 45 45 44 43 41 39 38 38 39 40 41 42 43 44 45 46 47
61 59 58 58 58 57 59 58 56 55 51 48 44 41 38 38 40 38 38 42 43 45 47 46 45 43 45 41 41 41 39 38 37 37 38 38 39 40 42 43 44 45 46
62 61 60 59 58 57 58 58 57 55 52 49 44 41 38 37 35 38 38 39 41 41 41 42 40 39 41 40 39 38 37 37 38 38 38 39 39 40 41 43 44 45 45
63 63 62 61 60 59 58 58 58 56 53 50 44 38 36 37 36 34 36 37 39 40 39 39 37 37 36 37 36 37 37 36 37 36 37 39 40 41 43 45 45 45 45
64 64 63 62 61 60 59 58 59 56 54 50 45 41 43 41 36 36 33 35 37 38 38 37 36 35 34 35 38 38 35 34 33 35 38 40 41 42 42 43 44 44 44
63 63 63 63 62 62 61 60 59 58 55 50 48 44 47 44 38 34 33 32 35 35 36 35 34 33 31 33 36 35 33 32 35 36 38 39 40 40 41 42 43 43 44
63 63 62 62 62 62 62 61 60 59 57 54 48 46 45 42 36 36 32 32 32 33 34 34 33 31 29 31 33 35 35 36 34 35 37 37 38 39 40 42 42 43 42
57 61 62 61 60 61 62 61 61 60 59 56 51 48 45 45 41 35 37 33 32 32 33 33 32 30 28 28 32 37 37 35 34 35 34 35 36 38 39 41 40 40 40
55 57 59 60 61 60 61 61 61 61 60 57 54 50 48 48 48 42 41 37 33 28 31 32 34 32 30 29 34 37 35 32 31 31 32 34 35 36 37 38 38 38 38
47 52 55 58 60 60 60 60 60 60 60 59 56 55 50 49 49 46 44 42 36 30 30 31 33 35 35 34 35 33 31 31 29 29 32 34 35 36 36 35 35 36 36
50 51 52 54 58 60 59 59 59 59 59 58 56 56 55 49 42 41 41 41 41 40 34 33 32 32 32 34 36 33 32 34 32 33 36 36 38 37 36 34 34 34 34
50 51 51 52 54 58 58 58 58 58 57 56 55 54 51 43 41 40 39 39 41 42 37 33 33 33 35 35 37 35 35 36 35 36 37 38 37 33 32 32 33 33 33
47 48 49 49 51 53 54 54 55 54 54 52 50 49 43 39 38 37 37 38 38 38 36 32 33 33 33 33 35 35 35 35 35 36 36 34 31 30 30 31 32 32 32
39 41 43 44 44 44 43 45 46 45 45 42 40 39 37 37 36 38 38 38 38 38 37 34 32 31 32 33 33 33 34 34 33 30 28 27 28 29 30 30 28 29 30
36 36 37 36 36 37 37 37 38 38 38 38 37 37 36 35 35 35 35 34 34 34 34 34 31 32 32 32 32 33 32 31 28 26 26 25 24 24 25 27 29 30 31
36 36 35 35 35 35 35 35 36 36 35 35 36 35 35 35 35 34 34 33 33 32 33 32 32 31 32 32 30 28 27 26 25 23 23 23 23 25 25 26 26 27 27
38 38 37 37 37 37 36 36 36 35 34 34 35 35 35 36 35 35 34 33 33 32 32 30 30 30 30 28 27 26 25 23 23 23 22 23 23 23 24 26 26 24 24
35 35 36 36 37 37 37 36 34 33 32 32 32 32 34 35 36 36 36 35 34 32 31 30 28 27 24 22 22 24 24 22 20 24 23 22 23 24 24 24 25 25 26
34 34 34 34 35 37 37 36 34 32 31 31 31 32 31 31 30 30 31 30 28 29 29 28 26 24 22 23 23 22 22 21 22 24 23 23 23 22 24 23 24 25 26
32 32 31 32 34 35 35 35 33 31 31 31 31 28 27 25 25 25 24 24 24 24 25 24 25 24 24 24 24 24 23 24 24 24 24 22 22 22 23 24 26 25 26
31 31 31 30 29 27 26 26 27 26 25 25 24 22 21 20 22 24 24 25 24 24 26 25 24 23 22 24 24 24 22 21 21 22 23 22 22 22 22 23 24 26 25
31 31 31 29 27 26 26 24 21 21 19 19 18 20 22 24 25 27 25 23 22 20 19 19 19 21 20 20 19 22 21 19 20 20 23 21 22 22 21 23 23 23 24

GFSMA_sfc_30mbdewp_057.txt.gz
Dewpoint
57 59 60 59 60 61 62 62 61 58 54 50 48 47 47 46 46 59 61 60 59 57 56 54 53 52 52 52 52 51 51 51 51 51 51 51 51 50 50 50 51 51 51
58 57 58 58 58 60 60 61 61 60 56 50 47 45 44 44 43 57 58 60 60 57 55 54 53 52 51 51 51 50 50 50 50 50 50 49 49 49 49 49 49 49 49
59 59 58 57 56 57 59 59 61 60 56 50 47 43 42 42 41 55 56 58 58 56 55 52 52 51 51 50 51 48 48 47 48 47 48 47 48 48 48 48 48 48 48
58 58 59 59 59 57 56 56 57 57 52 49 45 42 40 41 40 46 55 56 56 55 55 53 52 50 50 50 51 48 45 45 44 44 44 44 44 45 46 47 47 47 47
59 58 58 58 58 59 57 56 56 55 53 49 44 42 40 39 40 39 49 54 54 53 52 54 53 50 50 49 49 48 45 43 42 41 42 42 42 43 44 44 45 46 47
60 59 58 58 58 58 58 58 56 56 53 50 45 42 41 39 40 39 39 50 52 51 50 50 51 49 49 49 48 47 44 43 40 39 40 41 41 41 43 43 45 45 46
63 61 59 58 58 57 57 58 58 56 53 50 45 43 41 39 38 40 39 40 47 49 49 48 47 45 47 49 47 45 44 43 40 40 40 40 40 41 42 43 44 45 46
65 64 62 60 59 58 57 58 58 56 55 51 47 40 39 37 37 36 38 38 40 43 46 46 44 42 42 45 44 45 43 42 41 41 39 40 41 42 42 44 46 46 46
63 64 64 62 61 60 58 58 58 58 56 53 48 45 40 39 38 37 35 37 38 40 42 42 41 40 38 40 41 42 43 40 39 40 38 40 41 43 44 44 44 45 45
63 63 63 63 63 62 61 60 59 59 57 54 52 47 47 44 40 39 35 36 37 38 40 40 39 37 36 37 39 40 42 39 38 36 38 41 42 42 42 43 43 44 44
63 63 63 62 62 61 62 62 61 59 59 57 53 51 47 48 41 38 38 35 36 37 39 39 38 35 33 35 37 39 40 38 35 36 39 40 41 40 41 42 43 44 44
53 59 62 62 62 61 61 60 60 60 60 59 57 53 50 48 47 40 38 37 38 40 39 37 35 34 34 34 35 38 38 37 38 37 38 39 38 39 40 41 42 42 42
48 50 55 59 59 60 60 60 59 60 59 59 58 54 52 50 50 47 43 39 37 36 35 36 37 35 36 38 38 42 42 41 38 38 37 38 39 39 39 39 40 41 41
50 51 52 53 56 59 59 60 59 59 59 59 58 57 53 51 50 50 46 44 39 33 33 35 37 38 39 41 43 43 43 42 40 39 40 41 41 39 38 39 39 39 38
49 49 50 51 52 57 58 59 58 58 59 58 58 57 56 54 51 51 49 47 46 44 38 35 35 37 38 40 42 39 39 41 40 40 40 40 41 40 40 41 39 37 36
46 47 47 48 50 52 53 55 56 56 56 56 55 55 53 48 47 45 44 43 43 45 43 34 34 35 37 38 40 37 37 39 40 40 39 39 39 39 41 39 36 34 34
39 40 43 43 44 44 45 48 49 50 52 50 47 47 43 42 41 41 41 40 41 42 40 34 34 34 35 36 38 36 37 36 36 36 36 37 39 40 35 32 32 33 33
37 37 37 37 37 38 39 40 42 42 43 42 41 41 39 38 39 39 39 39 40 39 39 35 32 32 32 34 34 34 33 33 34 35 38 39 33 30 30 31 31 29 30
36 36 36 36 36 36 36 37 37 38 38 38 38 38 37 37 36 36 36 36 35 35 35 34 31 32 32 33 32 33 34 34 33 31 30 29 28 27 26 27 28 29 30
37 37 37 37 36 36 36 36 36 36 36 36 36 36 36 35 35 34 34 34 34 34 34 33 32 32 32 33 32 31 29 29 28 26 24 25 25 25 26 26 27 27 28
37 37 37 37 37 37 36 35 35 35 34 34 35 36 37 36 36 35 34 34 33 33 32 31 30 31 31 29 29 28 27 24 23 24 22 23 23 23 23 25 26 25 26
35 34 35 36 37 37 36 36 34 33 33 33 32 33 34 35 36 37 36 35 35 32 31 30 29 27 26 24 23 24 24 22 20 24 23 22 23 23 24 24 26 27 27
33 33 34 36 36 37 37 36 34 32 31 31 31 31 31 30 30 29 28 28 28 29 29 28 26 24 22 23 23 22 22 21 20 23 24 22 24 23 24 24 25 27 27
31 32 32 33 34 33 32 33 31 29 29 29 28 27 25 23 23 24 24 24 24 24 24 24 24 24 24 24 23 23 22 23 23 23 24 21 23 22 23 23 25 26 27
30 29 29 26 25 26 26 27 26 24 23 22 20 22 22 23 25 26 25 25 24 23 24 25 24 23 22 22 25 24 22 22 20 22 23 22 22 22 22 22 24 26 26
30 30 29 27 28 26 26 24 21 18 17 17 18 19 23 25 26 27 24 23 21 20 20 21 20 21 20 18 20 21 22 19 18 19 22 22 22 22 19 22 22 22 23

GFSMA_sfc_30mbdewp_060.txt.gz
Dewpoint
58 60 61 61 61 62 63 63 61 59 56 51 50 51 49 48 49 60 62 62 61 59 58 57 55 53 53 53 52 52 52 52 52 52 53 53 52 52 52 52 52 52 52
58 59 60 60 60 60 61 62 62 61 59 54 50 48 47 46 45 58 60 61 60 59 57 56 55 53 53 53 53 51 51 52 52 52 52 51 51 51 51 51 50 50 51
58 58 58 58 58 59 60 60 61 61 60 57 51 47 45 44 43 54 58 59 60 59 58 56 54 53 53 53 53 51 51 51 51 51 50 50 50 50 50 49 49 49 49
59 58 58 58 57 57 58 59 59 60 59 57 54 48 44 42 42 46 56 58 58 58 57 56 54 53 53 52 53 51 50 49 49 48 48 48 48 48 49 48 48 48 48
58 58 59 59 59 57 56 57 57 58 57 55 52 47 44 41 41 40 53 55 57 56 55 56 56 55 53 52 52 52 49 47 46 46 45 45 45 45 46 47 47 48 48
59 59 58 58 59 59 58 57 56 56 55 55 50 46 44 41 41 41 41 53 55 55 54 53 55 54 53 53 51 51 50 47 45 44 44 44 43 44 45 45 46 47 47
63 61 60 59 59 58 58 58 58 56 55 52 49 45 42 42 40 40 40 42 52 53 52 51 52 52 51 53 52 51 50 47 45 42 42 42 43 43 44 44 45 46 47
64 64 62 61 59 58 58 58 58 57 56 53 51 45 46 44 40 40 40 40 41 50 51 50 49 49 47 49 50 52 49 48 46 43 42 42 42 42 43 44 45 47 47
63 63 63 63 62 60 59 58 58 57 56 54 52 52 44 45 41 39 38 38 39 41 47 50 48 47 45 45 48 49 49 49 45 44 44 41 42 43 43 45 46 46 46
62 63 63 62 62 62 60 60 59 58 58 57 54 52 50 44 43 42 37 37 38 39 41 44 46 46 44 42 43 45 45 47 43 42 43 41 43 43 45 44 44 45 45
50 58 62 62 61 62 61 61 60 59 58 58 56 53 51 49 45 43 45 41 42 40 43 42 42 43 42 41 40 42 44 44 42 40 38 40 45 46 44 44 43 45 45
50 51 54 60 61 61 60 60 60 60 59 59 59 56 54 50 49 48 44 44 42 43 44 43 42 40 40 39 39 41 45 44 41 38 42 46 48 47 45 43 43 44 44
49 50 51 52 54 58 59 60 59 59 58 58 58 58 56 55 54 52 50 48 43 42 40 38 39 38 38 40 41 44 46 43 43 45 46 48 47 46 46 46 46 45 43
49 49 49 50 52 55 57 58 59 58 58 58 57 57 57 55 54 52 51 50 43 41 39 39 38 40 40 41 43 44 46 46 46 47 47 46 46 45 45 44 45 45 44
46 47 48 48 49 50 52 56 57 57 56 57 56 56 56 56 54 52 51 50 48 45 41 38 37 38 40 43 44 44 44 45 44 45 45 45 44 44 44 43 42 42 42
40 43 44 44 44 44 45 48 49 49 51 51 51 52 51 48 46 45 45 45 46 45 43 38 36 36 38 40 44 41 42 43 45 44 43 43 43 42 42 41 42 42 41
37 37 38 38 39 39 40 42 43 44 45 45 43 43 42 42 42 42 42 42 43 43 42 36 35 35 36 37 39 38 40 39 39 41 41 41 41 40 40 42 40 37 36
36 36 36 36 37 37 38 38 39 39 40 40 40 40 39 39 39 40 40 39 40 39 39 37 33 32 33 35 35 35 36 36 35 36 37 38 39 41 38 35 34 33 33
37 37 37 36 36 36 36 37 37 37 36 36 36 37 36 37 36 36 36 35 35 36 36 35 32 32 32 33 33 34 34 34 34 37 38 37 36 34 32 30 29 29 30
37 37 37 37 37 36 36 35 36 36 36 36 36 36 35 35 35 34 34 34 34 34 34 33 32 32 32 32 33 32 31 34 32 29 28 27 26 27 27 27 28 28 29
36 36 36 36 36 35 35 34 34 35 35 34 35 36 38 38 37 36 34 34 33 33 32 31 31 31 31 31 30 31 29 25 23 24 23 22 23 23 23 25 26 26 27
34 36 37 37 37 36 38 36 34 33 33 32 32 32 32 33 33 37 36 36 35 32 30 30 29 27 26 26 25 24 24 22 19 23 23 22 23 22 23 24 26 27 28
34 34 35 36 35 36 36 35 33 31 30 29 29 28 28 28 28 27 27 27 27 28 29 28 26 24 22 23 22 22 22 21 20 21 24 21 23 22 23 24 26 27 28
32 31 29 28 28 29 29 29 29 26 25 23 22 22 22 22 24 25 25 24 24 24 25 24 24 24 23 24 23 22 22 22 23 23 24 19 22 22 22 23 26 27 28
28 27 26 25 25 26 27 27 23 22 20 18 21 23 23 24 26 29 24 23 24 23 21 25 25 24 23 24 25 24 23 22 20 21 23 22 22 22 23 22 23 27 27
29 29 27 25 27 25 27 24 21 18 17 17 18 19 25 25 26 25 24 22 21 21 21 22 21 20 19 18 21 22 22 19 18 18 22 22 22 21 19 21 22 22 22

GFSMA_sfc_30mbdewp_063.txt.gz
Dewpoint
58 59 59 60 61 61 62 63 63 61 59 55 52 53 52 49 49 59 61 62 63 62 59 59 58 55 54 54 53 53 53 53 53 53 53 54 54 54 53 53 53 53 53
58 58 59 60 60 60 61 62 62 61 60 58 54 50 49 50 47 52 59 61 62 62 60 58 58 55 54 54 53 53 53 53 52 53 53 52 52 52 52 52 52 52 52
59 57 58 59 60 60 60 61 61 61 60 59 57 53 48 47 46 46 56 59 60 61 60 58 57 56 55 54 54 53 52 53 52 52 52 51 51 51 51 51 50 51 50
60 58 57 58 59 58 59 59 59 59 60 59 58 56 51 46 44 44 51 57 59 59 59 60 58 56 55 54 54 53 52 52 52 51 51 50 50 50 50 50 49 49 49
61 59 58 58 58 57 57 58 58 58 58 58 57 57 54 50 45 42 45 53 57 58 58 58 58 57 56 55 54 54 52 51 50 49 49 48 48 48 49 49 49 48 48
61 60 59 59 59 58 57 56 56 56 57 57 56 55 52 49 44 42 41 49 54 56 57 56 56 57 56 56 54 53 53 51 49 48 47 46 46 46 46 47 47 47 48
61 60 59 59 59 58 58 58 57 56 55 54 52 51 48 45 44 42 42 42 49 54 56 55 54 54 55 56 55 54 53 53 50 47 46 45 45 45 45 46 46 47 48
64 64 62 61 60 59 58 58 58 57 56 54 54 48 52 51 44 43 42 41 41 49 53 54 53 52 52 53 54 55 54 52 51 48 45 44 44 44 44 45 45 47 47
63 63 63 63 62 61 60 59 58 57 57 55 54 55 50 48 45 43 41 41 41 41 48 52 52 51 51 50 51 52 54 54 51 49 46 44 44 44 44 45 46 48 47
51 58 61 62 62 62 61 60 58 58 57 56 54 53 53 48 50 49 42 39 40 39 42 46 51 50 50 49 48 50 50 52 50 48 47 46 44 43 44 45 46 45 45
51 52 54 59 61 61 61 61 60 59 58 57 56 55 53 53 48 46 49 49 43 43 43 44 46 48 48 48 47 47 50 50 49 48 46 45 43 45 47 49 50 49 47
50 50 51 52 54 59 60 60 60 59 58 58 58 57 55 53 51 50 47 48 48 47 46 46 46 44 44 45 47 47 50 50 49 50 50 48 48 51 51 50 50 50 50
49 48 49 50 51 55 57 58 58 58 58 58 57 57 57 56 55 54 52 50 49 44 42 41 41 41 42 42 44 47 49 50 50 51 50 49 50 49 50 50 49 49 48
47 47 47 48 49 50 55 57 57 57 57 56 56 56 56 56 55 55 53 51 47 43 41 42 39 40 41 43 44 46 48 49 49 49 50 51 49 49 48 47 47 46 45
41 44 44 44 44 45 47 51 52 51 53 53 52 52 53 52 52 52 52 52 50 46 44 41 40 38 40 43 45 46 47 48 49 49 48 49 49 48 47 46 45 44 45
38 38 39 39 40 41 42 44 44 46 47 45 45 46 45 45 44 44 45 46 47 47 45 41 37 37 39 42 44 43 45 47 48 48 47 47 47 45 44 43 43 43 43
36 37 37 37 38 38 39 41 41 41 42 42 42 41 40 41 41 41 42 42 42 42 41 38 35 35 36 38 38 40 41 40 42 44 45 44 43 42 42 42 41 43 42
36 36 36 36 36 37 37 37 38 38 38 38 38 38 38 39 38 39 38 39 39 38 39 38 33 33 34 36 36 37 38 38 37 37 39 40 40 40 40 41 41 38 36
37 37 37 36 36 36 36 36 36 36 36 36 36 36 36 36 36 36 36 36 35 36 36 35 33 33 33 33 33 34 35 35 36 37 37 38 39 39 39 37 35 33 32
36 36 36 36 35 35 35 35 35 36 36 36 37 37 36 35 35 34 34 34 34 34 34 33 32 32 33 33 33 32 32 34 33 35 33 30 29 29 29 30 29 29 30
36 37 37 36 36 36 35 34 34 34 34 34 34 34 35 38 37 36 34 34 34 33 33 32 31 32 31 31 31 31 30 26 24 24 23 22 22 22 22 25 26 27 27
35 36 36 36 37 37 37 35 33 32 32 30 29 28 30 29 28 31 30 32 33 30 28 29 28 26 24 24 24 24 24 21 19 23 22 21 23 22 22 23 26 27 28
34 34 33 31 32 34 33 33 30 28 25 24 23 21 22 25 25 24 26 27 26 27 29 27 25 23 22 23 21 22 22 21 20 21 23 20 22 20 22 24 27 28 28
30 27 26 26 27 29 28 28 26 20 19 21 21 21 22 24 27 26 24 24 25 22 25 24 23 23 23 23 23 22 21 22 23 23 24 20 22 22 22 23 26 27 28
26 26 25 25 25 26 26 25 21 18 17 17 18 20 25 25 27 27 24 23 22 22 22 26 25 25 25 25 26 24 23 22 21 20 23 22 21 22 22 22 23 27 28
28 26 24 24 27 25 27 26 24 21 19 19 19 20 24 26 25 24 23 21 18 19 21 22 20 20 18 18 22 24 22 19 19 17 21 22 21 21 18 20 22 22 22

GFSMA_sfc_30mbdewp_066.txt.gz
Dewpoint
58 58 59 59 60 61 62 62 63 62 60 58 55 53 53 52 50 53 59 61 63 64 61 60 60 58 55 55 54 53 53 53 53 53 54 54 54 54 54 54 54 54 54
58 57 58 58 59 60 60 61 61 61 61 59 58 56 52 50 50 48 54 59 61 63 62 60 59 59 57 55 55 54 54 54 53 53 54 54 53 53 53 53 53 53 53
60 58 58 58 59 59 60 60 60 61 60 60 59 58 56 53 48 47 48 55 59 62 62 60 59 59 57 56 55 54 53 53 53 53 53 53 52 52 52 52 52 52 51
61 59 58 57 59 59 59 59 59 59 59 59 59 58 58 55 50 47 46 51 56 59 61 62 60 59 58 57 55 55 54 53 53 53 53 52 52 51 51 51 51 51 51
62 60 59 58 58 58 58 58 58 58 57 57 58 58 58 56 54 50 46 46 52 57 59 59 60 60 59 57 56 55 54 53 53 52 52 51 51 51 50 50 50 50 49
63 61 60 59 58 58 57 57 57 57 57 57 57 57 56 55 53 50 49 44 49 53 57 58 58 58 59 59 56 55 54 55 53 51 50 50 49 49 49 49 49 49 49
61 60 60 60 59 58 58 58 57 56 56 55 54 53 52 51 49 48 47 45 45 50 54 56 57 56 56 58 58 56 54 54 54 52 49 49 47 47 47 47 48 48 48
64 63 62 60 59 59 58 58 58 57 56 55 55 51 53 52 49 47 45 44 44 44 51 54 55 55 55 54 56 57 56 54 53 54 51 48 47 47 46 46 47 48 48
61 63 63 63 62 61 60 59 58 57 57 55 54 55 52 50 48 48 44 43 42 42 44 50 53 53 53 53 53 55 56 56 53 52 53 49 46 46 46 46 46 47 48
48 53 54 58 61 61 61 60 59 58 57 57 54 54 54 51 52 51 47 45 41 41 41 43 49 51 52 52 52 52 53 56 55 52 55 54 49 46 45 46 46 48 48
50 50 51 52 56 58 59 60 59 58 57 57 56 55 54 53 50 50 50 50 47 45 43 43 44 48 50 50 50 50 51 53 54 55 55 54 54 51 48 45 47 50 51
49 48 49 50 51 54 56 58 59 59 58 57 57 56 55 53 52 50 49 48 49 49 47 46 46 45 45 46 48 49 50 52 54 55 54 54 55 53 53 53 52 51 50
47 46 47 48 49 50 54 56 57 58 58 57 56 56 56 56 55 53 52 51 50 47 45 43 42 42 42 42 44 47 49 51 53 54 54 53 53 51 52 52 51 51 50
44 44 45 45 45 46 49 54 56 56 57 56 55 55 55 55 54 54 53 50 47 46 42 44 39 39 40 42 43 44 47 48 50 53 52 51 52 51 50 50 50 51 50
39 40 41 41 41 43 45 47 48 50 50 50 49 50 50 48 48 48 49 50 49 46 44 42 41 37 39 41 43 44 45 47 47 52 52 52 52 51 51 50 49 49 47
37 37 38 38 39 40 42 43 43 44 45 45 45 44 44 44 43 43 45 45 46 46 44 41 38 37 38 41 43 43 44 46 47 49 50 50 50 49 48 48 46 45 44
36 37 37 37 37 38 38 39 40 41 42 41 41 41 41 41 41 41 42 42 42 42 42 40 36 35 36 37 38 40 40 40 41 44 45 46 47 46 45 44 44 44 43
37 37 37 36 36 36 37 37 37 37 37 37 37 37 38 38 38 38 38 38 38 38 39 38 34 33 33 35 36 37 37 37 37 39 41 41 41 42 42 42 42 42 41
36 36 36 35 35 35 35 36 36 36 37 36 36 35 35 35 35 35 35 35 35 35 35 35 33 33 33 34 34 34 35 35 35 37 38 39 40 40 40 40 39 39 37
36 36 36 36 35 34 34 35 36 36 35 35 36 37 37 35 34 33 33 33 33 33 33 33 33 33 33 33 34 32 32 34 34 34 34 35 32 31 32 32 32 31 31
37 37 36 37 36 36 35 34 34 34 33 32 32 32 33 35 37 36 34 32 30 29 30 31 31 31 30 30 30 29 29 26 24 24 23 23 23 22 22 25 26 27 28
36 36 35 37 37 36 35 34 32 30 27 25 23 24 27 26 26 29 29 29 30 28 26 27 25 24 23 22 23 24 23 21 19 23 22 21 22 21 22 22 24 26 26
32 30 30 30 30 31 30 29 27 22 20 20 20 22 25 27 26 24 26 27 26 28 27 24 23 23 22 23 21 21 21 20 20 21 23 20 22 20 22 23 26 28 29
27 26 26 27 28 28 27 26 23 19 20 21 22 23 24 25 28 25 23 23 24 23 26 25 24 23 23 23 24 22 22 22 22 23 23 19 22 21 22 23 26 27 28
26 25 25 25 25 26 26 24 19 18 17 18 19 22 25 25 26 26 23 21 19 21 23 26 25 25 26 24 25 24 22 21 19 19 23 22 21 22 22 22 23 27 29
26 24 24 24 27 25 27 27 23 20 18 19 20 21 24 25 25 24 22 20 17 17 21 22 20 18 18 20 24 25 22 19 18 17 20 21 21 20 18 20 21 22 22

GFSMA_sfc_30mbdewp_069.txt.gz
Dewpoint
59 60 60 60 60 62 62 62 62 62 62 61 59 56 54 53 52 51 54 59 61 64 63 61 60 60 58 56 55 54 54 54 54 54 54 54 54 54 54 54 54 55 55
60 58 57 58 58 60 61 60 60 60 60 61 60 59 58 55 51 50 50 53 59 62 64 62 60 60 59 57 56 55 54 54 54 53 54 54 54 54 53 53 53 53 53
61 60 58 57 58 59 59 60 60 60 60 60 60 59 59 58 56 54 50 50 52 57 61 63 61 59 59 58 57 56 55 54 54 53 54 53 53 53 53 52 52 52 52
62 61 60 59 58 59 59 59 59 59 59 59 58 58 58 59 58 56 53 50 50 52 56 62 62 61 59 59 58 57 56 55 53 52 52 53 53 52 52 52 52 52 51
63 62 61 60 60 59 59 58 58 58 58 58 58 58 58 58 58 57 56 54 52 51 53 56 61 62 61 60 58 57 55 56 54 53 52 52 52 52 51 51 51 51 51
63 63 62 61 60 60 59 59 58 58 57 57 57 57 58 57 57 57 56 55 52 52 52 54 55 56 60 61 59 57 56 56 56 54 53 52 51 51 51 51 50 50 50
61 62 62 62 61 60 60 60 59 57 57 57 56 56 56 55 55 55 54 53 51 50 51 52 53 54 55 59 60 59 57 56 56 56 53 52 51 50 49 49 49 49 50
64 63 62 61 61 60 60 59 59 58 58 57 57 55 54 53 53 52 51 49 49 47 47 50 51 52 53 54 56 59 59 56 55 55 56 53 51 49 49 48 48 49 49
54 60 62 63 63 61 61 61 60 59 58 57 57 57 54 50 50 51 48 47 47 46 45 47 49 51 51 53 55 56 57 58 56 54 54 57 53 50 48 48 47 48 49
51 52 53 55 58 60 61 61 60 59 58 58 56 55 56 54 53 51 51 48 47 47 46 46 46 49 50 51 52 53 54 55 56 55 54 55 58 54 49 48 47 48 48
50 50 50 51 52 55 57 57 59 59 58 58 57 56 55 55 53 52 50 51 50 51 50 49 47 46 47 49 50 51 52 52 53 55 56 55 55 57 53 51 49 50 52
49 47 48 49 51 52 54 55 56 58 59 58 58 57 56 54 52 51 50 50 49 50 50 49 48 47 46 45 46 48 49 50 50 52 53 55 55 56 56 55 51 52 52
46 45 46 46 47 48 51 54 56 57 58 57 57 56 57 56 56 54 53 52 51 49 48 46 43 42 42 43 44 44 46 48 49 50 51 53 54 55 54 55 53 53 52
42 42 43 43 43 44 47 51 54 54 55 55 55 55 56 54 54 54 53 51 48 46 45 45 41 41 42 43 44 45 45 47 47 48 49 51 52 56 54 53 54 53 52
39 39 40 41 41 42 44 46 48 50 49 49 49 49 49 47 47 47 48 49 47 43 44 44 42 39 40 43 44 44 45 46 46 46 48 52 51 53 53 52 51 51 51
38 38 38 39 39 40 42 43 44 45 45 45 45 45 44 44 44 44 45 46 46 46 45 42 39 37 38 41 42 42 43 44 45 49 50 50 48 47 47 48 49 48 47
37 37 37 37 38 38 39 40 41 42 42 42 41 41 41 41 41 41 42 42 41 42 43 39 36 36 37 38 39 39 39 39 40 44 45 47 46 46 46 46 46 46 45
37 37 36 36 36 37 37 37 38 38 38 38 38 38 38 38 38 38 38 37 37 38 39 39 35 35 35 36 37 37 36 36 37 40 42 42 42 43 43 43 43 43 44
36 36 36 35 35 36 36 37 37 37 37 37 36 36 36 36 35 35 35 35 36 36 37 37 35 35 35 35 35 35 35 36 36 37 38 37 38 39 40 40 41 40 40
36 36 36 35 35 35 36 36 36 36 36 36 36 37 36 35 34 34 33 34 34 34 34 35 34 34 34 34 34 33 33 32 30 27 28 30 31 32 32 33 33 33 33
37 37 37 36 36 36 35 34 34 34 33 32 31 31 32 34 34 34 33 31 30 29 31 31 31 31 29 28 28 27 27 25 25 24 23 23 23 23 24 25 25 25 27
36 36 36 36 36 36 36 34 31 28 26 26 26 27 28 26 27 29 29 28 29 27 26 27 26 23 23 23 23 23 24 22 21 23 22 21 22 20 20 19 22 25 25
32 32 32 32 32 32 30 28 25 23 22 22 23 26 27 28 25 24 25 26 27 28 27 24 21 22 22 23 23 24 23 22 21 22 23 19 21 18 21 22 26 27 28
29 28 28 29 29 28 26 24 25 23 23 23 25 25 25 26 28 24 23 22 23 24 27 25 25 25 25 25 25 26 25 24 22 23 23 19 21 20 22 23 25 28 28
26 26 26 26 27 27 25 23 20 19 19 19 20 24 26 25 26 27 23 22 17 18 23 26 25 24 25 24 25 25 24 22 18 19 22 22 22 22 22 22 22 28 29
26 26 26 26 28 27 28 26 21 18 18 18 20 20 25 26 25 24 22 19 16 19 22 22 18 16 18 21 24 25 24 21 20 20 22 23 22 21 22 21 23 22 23

GFSMA_sfc_30mbdewp_072.txt.gz
Dewpoint
58 57 55 54 54 55 57 58 57 55 55 55 55 56 54 53 52 51 51 55 58 62 64 63 61 61 61 58 57 56 54 54 54 54 54 54 54 54 54 55 55 54 55
60 58 58 53 54 55 57 58 58 58 58 57 57 56 56 56 55 54 53 51 55 59 62 63 62 60 60 60 58 57 55 55 54 54 54 54 54 54 54 54 54 54 53
62 60 59 58 55 57 57 58 58 59 59 59 59 58 58 57 58 57 57 55 53 55 57 59 62 61 60 59 59 58 57 55 55 54 54 54 54 54 53 54 53 53 53
62 62 60 60 60 59 59 59 59 58 58 58 58 58 58 58 58 58 58 57 56 54 55 56 59 61 61 60 60 58 57 57 55 54 53 53 53 53 53 53 53 53 52
63 62 61 61 61 61 61 60 60 59 59 58 58 58 58 58 58 58 58 58 57 56 56 56 57 61 63 62 60 59 58 58 57 55 54 53 53 52 53 52 52 52 52
63 62 62 61 61 61 61 61 61 60 60 59 58 57 58 58 59 58 57 57 56 57 56 56 56 56 57 61 61 59 58 57 58 57 55 54 53 52 52 52 52 51 51
62 61 62 62 63 62 61 61 61 60 60 59 59 58 58 58 57 56 56 55 55 54 53 54 54 54 54 57 59 60 59 58 57 58 57 55 54 53 52 51 51 51 51
64 64 64 64 63 63 63 62 61 60 60 60 59 59 55 50 51 54 54 53 52 52 50 50 51 51 52 52 52 57 60 59 58 57 58 57 55 54 53 51 50 50 50
57 60 62 63 64 64 63 63 62 61 60 60 59 58 54 47 51 52 52 51 51 50 49 49 50 50 50 51 51 53 55 57 58 58 57 57 58 56 54 52 50 49 50
50 51 52 53 55 58 60 61 62 62 61 59 59 58 58 57 53 52 53 52 50 52 51 51 50 50 50 50 51 51 53 54 54 55 57 57 57 59 56 54 51 50 51
50 50 50 51 52 54 55 56 56 57 60 59 59 57 57 57 56 54 51 52 53 52 50 50 50 50 49 48 49 49 49 50 51 52 53 54 55 57 57 57 56 52 50
49 48 48 49 50 51 53 54 55 56 56 57 59 58 58 55 54 53 51 51 51 52 52 50 49 47 46 46 46 45 46 47 49 51 52 53 54 56 57 57 56 53 52
47 46 46 47 47 47 49 52 53 55 57 57 58 58 57 57 56 54 53 52 51 52 49 47 45 45 44 46 46 46 46 47 48 49 50 52 53 54 55 56 55 53 51
43 43 43 44 44 45 47 50 53 54 56 55 55 55 56 53 54 55 53 51 49 48 48 47 44 44 45 45 45 45 46 46 46 47 48 49 51 52 53 53 56 55 54
40 40 41 42 42 43 45 47 50 51 51 50 50 50 49 48 49 49 50 50 48 44 42 46 45 42 42 44 43 44 44 46 45 48 48 50 50 50 52 56 55 55 53
39 39 40 40 41 42 43 45 47 47 48 47 47 46 47 46 46 46 47 47 47 47 44 45 41 39 39 41 41 42 42 42 43 46 49 49 48 48 48 49 51 51 49
38 38 39 39 39 40 41 42 43 44 44 44 44 43 42 43 43 43 44 44 44 44 45 40 39 38 39 40 40 40 40 39 40 43 44 45 46 46 46 46 46 47 46
38 38 37 37 38 38 39 40 40 41 41 41 40 40 40 40 40 40 40 39 39 39 41 41 38 38 38 38 38 38 38 37 37 40 41 42 43 43 43 44 44 44 45
37 37 37 37 37 38 38 39 38 38 38 38 37 37 37 37 37 37 37 38 39 38 39 39 37 37 36 36 36 36 36 36 35 33 36 36 37 38 40 40 41 41 41
37 37 37 36 37 37 37 37 37 37 37 37 37 37 36 36 36 36 36 35 35 36 36 37 36 35 35 34 34 33 33 31 29 27 27 29 30 30 32 33 33 33 34
37 37 36 36 36 36 36 36 36 36 36 35 34 33 34 33 34 33 33 32 31 30 32 33 33 32 29 27 26 26 26 25 25 24 23 23 23 24 24 25 24 25 26
37 37 37 36 36 36 36 35 34 32 32 31 30 30 28 25 27 29 29 29 28 26 25 26 25 20 21 21 22 22 23 21 21 24 21 18 20 18 18 19 20 24 26
35 35 36 35 34 33 31 29 27 27 28 28 29 28 27 27 24 21 23 25 28 29 27 22 19 19 19 21 26 26 23 22 21 20 20 16 16 14 18 19 24 27 27
33 33 31 30 29 26 26 25 26 29 29 28 27 24 24 25 28 24 22 20 20 24 26 25 25 25 25 26 25 26 25 22 20 20 21 19 19 20 22 22 24 27 28
31 30 30 31 31 27 25 24 19 18 19 19 22 24 23 23 27 28 22 21 13 15 22 25 25 24 24 24 25 23 23 21 19 17 21 22 23 22 23 22 22 28 30
30 29 30 30 27 25 26 24 20 16 15 16 17 18 26 26 26 24 22 17 13 17 21 21 15 14 17 20 23 22 22 23 22 22 23 23 23 23 24 23 25 24 23

GFSMA_sfc_30mbdewp_075.txt.gz
Dewpoint
56 55 53 51 52 51 54 55 56 54 53 52 53 54 53 53 52 52 52 54 55 59 62 63 62 61 62 61 58 57 56 55 54 54 54 54 54 54 54 55 55 53 55
59 57 57 53 51 53 55 57 57 57 57 57 56 56 56 55 56 55 55 55 54 56 59 61 62 61 61 61 61 58 57 55 55 55 54 54 54 55 55 54 54 54 53
61 59 58 58 54 56 56 56 57 58 58 58 58 58 57 57 57 57 57 58 57 55 55 58 60 61 61 60 59 60 59 57 56 55 55 54 54 54 54 54 54 54 54
61 61 61 60 60 59 59 59 59 58 58 58 58 58 58 58 58 58 58 58 58 57 57 56 58 58 60 61 60 60 60 59 57 56 56 55 54 53 53 53 53 53 53
62 62 60 60 60 61 61 60 60 60 59 59 58 59 59 59 58 58 58 58 58 59 58 58 58 58 59 61 61 59 59 60 59 58 57 55 54 53 53 53 53 53 53
63 63 62 61 61 60 60 61 60 61 60 60 59 59 59 59 59 58 58 57 55 57 57 57 57 57 56 58 59 60 59 58 60 59 58 57 55 54 53 53 52 52 52
63 63 62 62 62 62 62 61 61 60 60 61 60 59 59 59 58 57 56 54 54 55 54 53 55 55 54 57 58 58 59 60 59 59 60 58 57 55 54 54 53 52 52
64 63 63 63 63 63 62 62 62 61 61 61 59 59 55 53 51 54 54 53 53 52 52 51 51 51 52 53 54 54 57 58 59 59 59 59 59 57 56 55 54 52 52
59 60 61 62 64 64 63 63 63 62 60 61 61 58 53 50 51 52 53 52 51 51 51 51 51 51 51 52 53 53 54 54 54 55 57 57 58 59 60 57 55 53 52
51 51 52 53 55 57 60 60 60 61 61 58 59 60 60 57 54 50 51 53 52 51 52 52 50 50 50 51 52 50 50 51 52 53 54 54 55 56 57 59 59 55 52
49 50 50 50 51 52 53 55 55 55 56 56 56 57 58 58 57 55 53 52 54 53 52 50 50 50 49 49 47 46 47 49 51 52 53 54 55 55 55 56 58 58 56
50 49 48 49 50 50 51 53 54 55 55 54 56 56 56 55 55 54 53 53 52 52 52 51 48 47 46 47 47 46 48 48 49 50 51 52 53 54 55 57 57 58 55
47 47 47 47 47 47 47 49 52 53 53 55 56 56 56 56 57 55 53 53 52 52 51 48 46 46 46 47 46 46 47 47 48 49 51 51 51 51 51 53 55 56 56
44 44 44 44 44 44 45 47 50 52 54 54 54 54 55 53 54 55 54 52 50 48 49 49 45 45 45 45 44 45 45 45 45 48 49 48 50 50 50 54 54 53 57
40 40 41 42 43 43 44 45 48 49 51 51 51 50 50 49 49 49 50 51 50 45 44 46 46 43 42 43 42 43 43 44 44 48 49 49 49 49 50 51 56 55 54
39 40 40 41 41 41 42 44 46 48 48 48 48 47 47 47 47 47 48 48 48 47 44 45 42 40 40 42 41 41 41 42 43 45 46 48 48 47 48 51 52 52 51
39 39 39 39 39 40 41 42 43 44 45 45 45 44 43 45 45 44 45 45 44 45 43 42 40 39 40 40 40 40 40 40 40 42 44 44 45 46 46 46 47 48 50
39 38 38 38 38 39 39 40 41 42 42 42 42 41 41 42 41 41 41 41 41 41 42 42 39 39 38 38 38 38 38 37 38 37 40 40 41 43 43 44 44 45 45
38 38 37 37 37 38 39 39 39 39 39 39 39 38 38 39 39 39 39 39 40 40 40 39 38 37 37 36 36 36 36 36 34 30 31 34 37 38 39 41 41 41 42
38 38 37 37 37 37 38 38 38 38 38 38 38 37 37 37 37 37 37 36 36 37 37 37 36 35 35 35 35 32 32 31 29 27 28 28 29 30 33 33 34 34 35
37 37 37 37 37 37 36 37 37 37 37 35 34 34 34 33 33 32 32 31 29 30 32 33 33 32 29 26 24 24 24 25 26 25 24 24 23 24 26 25 25 26 28
37 37 37 36 37 37 37 36 36 35 34 33 32 31 27 25 28 29 28 29 29 27 25 27 25 20 20 21 22 24 24 23 23 24 22 20 21 20 19 19 25 27 27
37 37 36 36 36 34 33 32 31 31 31 30 30 29 26 26 23 21 22 24 29 28 27 24 21 21 20 24 27 27 26 25 23 21 20 18 18 17 21 20 26 27 29
35 35 34 33 31 29 27 27 28 29 29 29 27 24 24 25 29 25 22 20 19 23 27 25 25 26 26 27 26 26 25 23 23 21 22 20 22 23 24 24 26 28 29
33 32 31 31 30 27 26 25 19 19 19 20 23 24 23 22 27 28 23 22 14 17 23 25 24 23 23 23 24 25 25 23 23 18 23 23 25 24 25 24 24 26 28
32 32 31 31 28 25 25 24 21 16 16 16 17 19 26 27 26 26 24 19 14 18 21 21 18 19 19 21 23 21 22 24 24 24 24 24 24 23 23 25 25 26 26

GFSMA_sfc_30mbdewp_078.txt.gz
Dewpoint
57 55 53 54 55 54 54 57 57 56 54 53 53 53 54 53 53 52 53 54 55 57 59 61 62 62 62 63 60 58 57 55 55 54 54 54 54 55 55 55 55 53 55
58 57 57 54 52 53 54 57 58 57 57 57 56 56 56 56 56 56 55 55 55 56 58 59 60 61 61 61 63 61 59 57 56 55 55 54 55 55 55 55 54 54 54
61 58 58 57 53 55 55 57 57 58 58 58 58 58 58 58 58 58 58 58 58 55 56 58 58 60 61 62 61 61 61 59 58 57 56 55 54 55 55 54 54 54 54
62 62 60 60 61 57 58 59 59 59 59 59 59 59 59 59 58 58 58 59 59 58 57 57 58 59 59 60 61 61 60 61 59 58 57 56 55 54 54 54 53 54 53
62 62 62 61 61 61 61 60 60 60 60 59 59 59 59 59 59 59 58 58 59 59 59 59 59 58 59 59 59 61 60 60 61 60 59 58 57 55 54 54 53 53 53
63 63 62 62 61 61 61 61 61 61 60 60 60 60 60 60 60 59 59 58 58 56 57 56 58 58 57 58 60 59 59 60 60 60 60 59 58 56 55 54 54 53 52
63 63 63 62 62 61 61 62 62 61 61 61 60 60 60 60 60 59 59 57 55 55 54 53 54 54 54 57 59 59 59 59 59 59 59 60 60 58 56 55 54 53 53
64 64 64 64 64 64 64 63 63 62 61 61 59 59 55 54 54 54 56 54 53 52 52 51 51 51 52 53 55 55 55 55 56 56 58 59 59 59 59 57 56 55 54
58 59 60 61 62 63 63 63 63 62 61 61 61 58 54 51 53 53 53 53 52 52 51 51 51 51 51 52 50 50 51 52 54 55 55 55 56 57 58 59 59 59 55
51 51 51 52 53 55 58 60 60 60 60 59 59 59 60 58 54 51 52 53 52 52 53 52 51 50 49 49 47 48 49 51 52 53 54 55 55 55 56 56 57 59 60
50 50 50 50 51 52 53 54 55 55 56 55 55 54 53 56 57 55 51 53 54 54 53 51 48 47 47 47 46 48 49 50 51 52 52 53 54 55 55 56 57 57 59
50 49 49 49 49 50 50 51 53 54 54 53 53 53 53 54 55 54 53 53 53 52 51 48 47 46 47 47 46 48 48 48 49 51 53 52 52 51 52 52 53 56 58
49 46 46 46 46 46 46 47 49 52 53 53 54 55 55 55 55 55 54 53 52 53 50 46 46 46 46 45 44 46 46 46 47 50 51 50 50 50 51 51 53 53 55
43 43 43 44 44 44 45 46 47 50 52 52 52 52 53 52 52 54 54 53 51 50 50 46 44 44 45 44 43 44 43 44 46 50 49 49 49 49 50 52 55 54 54
40 40 41 42 42 43 43 44 46 48 50 51 51 50 50 49 49 50 50 51 50 46 45 44 44 41 41 43 42 42 42 44 45 46 48 48 47 47 50 52 52 54 54
40 40 40 40 41 41 42 43 45 47 47 48 47 47 47 47 47 47 47 47 47 47 45 43 41 39 40 42 41 41 41 42 43 44 45 46 46 46 46 49 51 51 52
39 39 39 39 39 39 40 41 42 43 44 44 44 44 43 45 44 44 44 44 44 44 44 41 40 39 40 39 39 39 39 38 39 40 42 43 44 45 45 45 47 48 50
39 38 38 38 38 39 39 40 41 41 42 42 42 41 41 42 40 41 41 40 40 40 42 40 39 38 37 37 38 37 37 37 35 34 37 39 41 42 43 43 44 45 45
38 38 38 37 37 38 39 39 39 39 39 38 38 38 38 39 38 38 38 39 39 40 40 39 38 37 37 36 35 35 36 35 31 29 29 31 34 37 39 39 40 40 40
38 38 38 37 37 37 38 38 39 38 38 38 38 37 36 36 36 36 35 34 34 36 37 37 36 35 35 34 34 27 26 27 28 25 26 28 29 30 30 31 31 32 34
38 37 37 37 37 37 37 37 38 38 37 35 34 33 33 33 32 33 30 29 29 29 28 30 31 30 26 23 22 24 23 23 25 24 22 21 23 21 24 28 28 28 29
37 38 37 37 37 37 37 37 37 35 34 33 31 28 26 27 28 27 28 29 28 27 24 26 23 19 20 21 25 24 24 23 22 24 19 17 20 17 19 20 25 28 28
37 37 36 36 36 35 35 34 34 32 31 30 30 28 26 26 24 23 23 26 28 27 26 24 21 21 23 25 25 26 25 25 22 22 20 18 22 21 24 24 27 27 28
36 36 36 35 32 31 31 31 29 27 25 26 27 26 26 28 28 25 23 20 19 25 26 26 26 26 26 27 25 26 24 23 24 23 22 19 24 24 24 25 27 27 31
35 34 32 30 28 27 27 25 24 23 22 23 24 25 24 27 28 26 24 21 15 19 24 23 23 21 21 21 23 25 24 23 22 21 24 23 24 23 25 26 25 27 27
33 32 31 31 31 27 26 23 21 19 18 17 18 23 26 27 26 26 25 21 15 19 21 21 18 22 19 21 22 22 23 22 23 23 24 21 22 22 20 25 25 25 26

GFSMA_sfc_30mbdewp_081.txt.gz
Dewpoint
57 57 60 62 62 62 61 61 61 60 57 55 54 54 54 54 53 52 53 58 56 57 58 59 60 62 62 63 62 59 58 56 55 55 54 54 54 55 55 55 55 54 55
57 56 55 54 53 53 53 56 57 57 57 57 56 56 56 55 55 55 55 55 56 56 58 59 59 60 61 62 62 63 60 59 57 56 55 55 55 55 55 55 55 55 54
59 57 57 57 52 53 53 56 57 58 58 58 58 58 58 58 57 57 57 57 57 57 57 59 60 60 60 61 62 62 62 61 59 58 57 56 55 55 55 54 54 54 54
61 59 58 60 57 54 57 58 58 58 58 58 58 59 59 59 59 58 59 59 59 58 57 57 59 60 60 60 60 61 61 62 61 60 59 58 56 55 54 54 54 54 54
62 62 61 61 61 61 59 59 60 60 59 59 59 59 60 60 59 59 59 59 59 59 59 58 59 59 59 59 59 60 60 61 60 61 60 59 58 57 56 55 54 54 53
62 62 62 61 61 61 61 61 61 61 60 60 60 60 60 60 60 59 59 59 58 58 58 58 57 57 56 59 60 60 59 60 60 60 60 60 60 58 57 56 55 53 53
63 63 63 62 63 62 62 62 62 61 60 61 60 59 59 59 59 59 59 59 58 56 53 53 52 52 54 57 57 57 57 57 57 57 58 60 60 60 59 57 56 55 54
64 64 63 64 64 63 63 63 63 61 61 61 58 58 55 54 54 54 55 57 54 52 51 51 51 51 53 54 53 53 54 54 55 56 56 56 56 58 59 59 58 56 56
58 58 59 61 61 62 62 62 62 62 60 60 60 58 54 51 53 53 53 53 52 52 51 51 51 51 51 49 49 50 52 53 54 55 55 55 55 56 55 56 58 59 58
51 51 52 52 52 53 54 56 56 58 58 57 58 59 59 58 52 50 52 53 53 52 52 51 50 49 48 47 49 50 51 51 52 53 53 53 54 55 56 57 57 57 58
50 50 50 50 51 52 52 53 54 54 55 55 54 54 53 53 54 54 51 51 53 53 50 48 47 47 46 47 48 49 49 49 50 51 53 53 53 53 53 53 53 55 57
49 49 49 48 48 49 48 49 50 52 53 53 52 52 52 52 52 53 53 52 51 52 48 47 46 47 46 45 47 47 47 47 48 51 52 52 51 51 51 51 52 53 54
49 46 46 46 46 45 46 46 47 49 51 53 53 53 55 55 54 53 53 52 52 53 47 45 45 45 44 44 45 45 45 46 48 51 52 52 50 50 50 51 53 54 54
44 43 43 44 44 44 44 45 46 48 51 52 50 51 52 52 52 53 54 52 50 51 50 44 43 43 44 43 44 43 44 44 47 49 49 47 47 48 52 52 52 53 55
40 41 41 42 42 42 43 44 45 47 48 51 50 50 50 50 49 50 50 51 51 47 48 43 43 40 42 42 42 42 42 44 45 46 46 46 46 47 48 50 51 52 54
40 40 40 40 40 41 41 42 44 46 46 47 47 47 47 47 47 47 47 47 47 48 45 43 40 39 41 42 41 40 40 41 42 43 44 45 46 46 45 47 49 51 52
39 39 39 39 39 39 40 41 42 42 44 45 44 44 44 45 44 44 44 44 44 44 44 41 40 39 38 38 38 39 39 38 38 39 41 43 43 45 44 44 45 47 48
39 38 38 38 38 39 39 39 40 41 42 42 42 41 41 41 40 41 41 41 40 40 42 41 39 38 37 37 38 37 37 37 31 33 34 36 40 41 42 42 42 43 44
38 38 38 37 38 38 39 39 39 39 38 38 38 38 39 38 38 38 38 39 39 40 40 39 37 37 37 35 34 34 35 32 29 28 29 31 31 34 36 38 38 38 39
38 38 37 37 37 37 38 38 38 38 38 37 37 36 36 36 36 35 34 33 34 36 37 37 36 35 34 34 32 25 24 25 25 24 25 27 28 29 29 30 31 32 33
37 37 37 37 37 37 37 38 38 38 36 35 34 33 33 33 34 33 30 28 29 30 30 33 31 31 25 23 22 24 22 23 23 22 20 19 22 20 26 27 27 28 29
37 37 37 37 37 37 38 38 38 36 34 32 30 28 28 29 28 29 30 29 28 25 23 25 22 20 20 22 23 24 24 22 20 24 19 19 20 21 22 23 28 28 29
37 37 37 37 37 36 36 37 36 34 33 31 28 26 25 26 24 24 26 28 28 28 28 23 21 21 23 24 25 25 23 23 21 22 20 16 24 22 24 25 28 29 30
36 37 36 36 34 33 34 35 34 30 29 29 28 28 28 27 26 23 21 19 24 24 26 25 26 26 26 26 25 25 24 24 24 23 23 18 24 24 25 25 27 28 29
35 35 35 32 30 29 30 29 25 24 25 24 24 24 28 28 28 27 23 18 16 21 24 24 23 21 20 21 24 23 23 22 21 22 24 23 23 22 23 26 26 28 29
34 33 32 31 28 26 27 24 23 20 19 19 24 25 28 27 27 26 24 17 16 19 21 20 17 22 20 22 24 22 23 20 22 23 24 21 22 21 18 22 23 23 25

GFSMA_sfc_30mbdewp_084.txt.gz
Dewpoint
63 63 62 62 61 62 62 61 62 61 61 60 58 55 55 54 54 53 52 56 59 60 59 59 60 61 62 63 63 61 59 58 56 55 55 54 54 55 55 55 54 55 55
61 60 58 61 61 60 60 58 60 60 57 56 56 55 55 55 55 55 55 54 57 58 59 59 60 60 60 62 62 62 62 60 59 57 56 55 55 55 55 55 55 55 54
57 57 55 55 53 53 53 55 57 58 58 58 58 58 58 58 58 57 57 57 56 57 58 60 60 61 61 61 61 62 61 61 61 59 58 57 56 56 55 55 54 54 54
59 58 58 58 57 53 54 55 57 58 58 58 58 58 59 59 59 59 58 59 59 59 59 59 60 60 60 61 60 60 60 61 61 61 60 59 58 57 56 55 55 54 54
61 60 59 59 61 60 57 58 59 59 59 59 59 60 60 60 60 60 59 59 59 59 59 58 59 59 58 60 60 60 60 60 61 61 61 61 60 58 57 56 55 54 54
61 62 62 61 61 61 61 61 60 61 61 60 60 60 60 60 60 60 60 59 59 58 59 59 57 57 59 60 60 59 59 58 58 58 59 60 60 60 59 57 56 55 54
62 62 62 62 62 61 61 62 62 61 61 61 59 57 58 59 58 58 58 58 59 57 56 54 53 55 57 57 57 56 56 56 57 57 57 57 57 59 59 60 58 56 55
63 63 63 63 63 63 63 63 62 60 60 59 56 56 54 54 54 54 54 55 56 54 52 52 52 53 53 52 53 53 54 54 55 55 55 55 56 56 56 58 60 60 57
61 61 61 62 61 61 60 61 61 61 59 59 59 56 53 52 53 53 53 53 52 51 51 51 52 51 49 49 50 52 52 53 53 54 54 53 54 54 56 57 57 57 59
54 53 53 53 54 54 54 55 55 57 58 56 56 57 58 58 51 49 52 53 53 52 52 50 50 47 47 49 50 51 51 51 52 52 53 54 53 55 55 54 55 57 58
50 49 49 50 51 51 52 52 53 53 55 55 54 53 52 52 52 51 49 50 52 50 48 47 47 46 47 48 48 48 49 50 51 51 52 54 54 53 53 53 52 52 53
48 49 49 48 49 49 48 49 49 50 52 53 53 52 51 50 51 51 51 51 51 49 47 47 47 47 45 47 47 47 47 48 49 51 52 53 52 51 51 51 53 54 54
48 47 47 46 46 46 46 46 46 47 49 51 52 51 53 53 53 53 52 50 51 49 46 45 45 45 44 44 45 45 46 47 48 50 50 49 48 49 52 52 52 52 53
47 45 45 44 44 44 44 44 45 46 49 50 52 51 50 51 51 52 53 52 50 49 48 44 42 43 43 43 44 43 44 45 47 48 48 46 46 47 49 51 51 53 53
43 42 42 42 42 42 42 43 44 45 48 49 50 49 49 50 50 50 50 51 51 47 48 43 42 40 42 42 42 41 42 44 45 45 46 46 46 46 47 48 49 51 53
40 41 41 41 41 41 41 41 42 45 45 47 47 47 47 48 48 47 47 47 48 48 46 43 40 40 42 41 41 40 40 40 41 43 44 45 45 46 44 45 47 48 50
40 39 39 39 39 39 39 40 41 42 43 45 45 44 44 44 45 44 44 45 45 45 45 40 40 40 38 38 38 38 38 38 35 39 40 42 43 44 44 43 43 44 46
39 39 38 38 38 39 39 39 40 41 42 42 42 42 42 41 41 41 42 41 41 42 43 40 39 38 37 37 37 36 36 33 30 32 33 34 38 40 40 41 41 41 43
38 38 38 38 38 38 39 39 39 39 39 39 39 40 39 39 38 38 39 39 39 40 41 40 37 38 37 35 33 32 30 29 26 27 30 31 32 32 34 36 36 36 38
38 38 37 37 37 37 38 38 38 37 37 37 37 37 37 37 36 35 34 35 36 38 38 38 36 35 35 33 28 26 24 25 23 22 23 25 28 31 31 29 29 30 32
38 38 37 37 37 37 37 38 38 38 37 36 35 34 34 35 35 33 30 29 32 32 34 34 33 32 27 23 22 23 21 22 23 22 19 20 19 20 23 26 29 29 29
37 37 37 37 37 37 38 39 39 37 36 34 32 30 30 29 29 31 30 29 28 26 28 29 25 27 22 23 23 23 23 21 18 24 19 19 22 23 24 27 29 31 30
36 37 36 37 37 37 38 38 39 35 33 31 29 25 24 25 25 26 29 30 30 30 26 23 20 20 21 23 25 24 22 22 20 23 21 16 24 23 24 25 29 31 31
36 36 36 37 36 34 36 38 36 33 32 30 27 26 26 25 24 22 20 23 23 24 25 25 25 25 26 26 26 25 23 23 24 23 23 17 23 23 24 25 30 29 29
35 35 36 36 34 32 34 35 31 28 27 26 25 26 28 28 28 27 21 17 19 22 25 26 25 25 26 27 25 24 24 21 21 21 24 23 22 21 23 25 25 27 29
34 34 34 33 31 29 31 29 25 22 22 22 24 26 29 27 28 27 23 17 15 18 22 21 21 22 20 23 25 22 23 20 22 22 24 21 21 21 18 22 23 24 24

GFSMA_sfc_30mbdewp_087.txt.gz
Dewpoint
62 63 62 62 62 61 61 60 61 61 61 60 60 58 56 55 54 54 53 53 59 61 61 60 60 61 62 64 64 63 61 59 58 56 55 54 54 55 55 55 55 55 55
62 62 62 61 61 61 61 61 59 60 60 57 56 55 54 55 55 55 55 55 55 59 60 60 60 61 61 61 61 62 61 62 61 59 58 56 55 55 55 56 55 55 54
61 62 60 58 60 60 57 56 56 57 58 58 58 58 58 58 58 58 58 57 57 57 58 60 60 61 61 61 61 61 61 61 61 62 60 58 57 56 56 55 55 55 54
59 58 56 55 55 53 53 54 56 57 57 58 58 58 59 59 59 59 59 59 59 59 59 60 61 60 60 61 60 61 61 61 62 61 61 61 59 58 57 57 55 55 54
59 58 58 58 60 56 54 56 57 58 59 59 59 60 60 60 60 60 60 60 59 59 59 59 60 59 59 60 60 61 60 59 58 59 60 61 60 60 58 57 57 56 55
61 60 59 59 60 61 61 60 59 60 60 60 60 60 60 60 60 60 60 60 59 59 58 59 58 58 59 60 60 59 58 57 57 57 57 57 58 60 60 59 58 57 56
61 61 61 61 61 61 61 61 61 60 60 61 60 56 56 57 57 58 56 55 56 59 58 57 56 58 59 58 57 57 56 56 56 56 56 56 56 57 57 58 59 59 57
62 62 62 62 62 62 63 63 62 61 60 60 56 55 52 54 53 54 53 53 55 54 53 52 53 53 52 53 54 54 54 54 55 55 54 54 54 55 56 57 57 59 61
64 63 63 63 63 62 61 60 60 60 58 58 58 56 53 51 52 53 53 52 52 51 51 52 51 50 49 50 51 52 53 53 53 53 53 55 53 54 56 56 57 57 58
60 60 60 59 57 56 56 56 55 57 58 57 56 56 57 57 53 48 52 53 52 51 51 50 48 47 49 49 50 50 51 51 52 52 52 52 54 54 54 54 54 54 55
54 55 54 53 53 52 52 52 52 53 54 54 54 53 52 51 52 51 48 49 51 48 48 48 47 47 48 48 47 48 49 50 51 51 51 54 54 53 53 52 52 53 55
52 51 50 50 49 49 48 48 49 49 51 52 52 53 52 50 49 50 49 50 50 47 47 47 47 46 46 47 47 47 48 49 50 51 53 52 51 51 54 53 53 53 53
49 48 47 46 46 46 46 46 46 46 47 48 50 51 51 51 52 51 51 49 49 48 45 45 45 45 44 45 45 45 46 47 49 50 50 49 48 49 51 52 52 52 53
48 47 45 45 44 44 44 44 44 45 47 48 49 51 51 50 50 51 50 50 49 50 46 44 43 43 43 44 44 43 44 45 46 47 47 46 47 46 48 49 49 51 53
45 44 43 43 42 42 42 42 43 43 46 47 49 49 49 49 49 49 50 50 49 44 47 42 41 41 42 42 42 41 41 44 44 45 45 46 46 46 45 46 47 49 51
42 41 41 41 41 41 41 41 41 43 44 45 47 47 46 47 47 47 47 48 48 48 47 43 41 41 42 41 42 39 40 39 41 42 44 44 45 45 44 44 45 46 48
41 40 41 40 39 39 39 39 40 41 41 42 44 44 43 44 45 45 44 45 45 45 45 40 40 40 38 38 39 39 38 34 34 38 39 40 42 42 43 42 42 43 46
40 39 39 38 38 39 39 39 39 40 40 41 42 43 42 42 41 41 42 42 42 42 44 41 39 38 38 38 37 36 36 30 29 34 34 35 36 37 39 39 39 40 42
39 38 38 38 38 38 38 38 38 39 39 39 39 40 40 39 39 39 39 40 40 40 41 40 38 38 37 35 33 32 28 28 24 26 30 32 33 33 34 32 32 34 37
38 38 37 37 37 37 38 38 38 37 37 37 37 37 37 37 37 36 36 35 37 38 38 39 37 36 35 32 27 29 25 24 22 22 22 27 27 32 30 30 30 31 32
38 38 37 37 37 37 37 37 38 38 37 37 36 35 35 35 36 33 31 30 33 34 36 36 35 33 30 27 25 23 22 22 23 22 19 21 20 23 26 28 31 32 31
37 37 37 37 36 37 37 39 39 38 37 35 34 31 31 30 32 32 31 30 28 30 31 32 29 31 26 23 23 22 22 20 17 24 20 20 23 23 24 28 30 32 30
36 36 36 36 36 37 38 39 40 38 36 34 32 29 24 26 26 28 31 32 31 30 27 26 26 24 23 23 24 24 22 21 19 23 21 16 24 23 24 26 30 30 31
36 36 36 36 36 36 37 38 39 35 34 32 29 25 25 24 23 21 22 24 22 24 26 25 24 24 25 25 26 24 23 23 23 23 23 17 23 22 24 26 31 31 30
35 35 36 35 35 35 36 37 36 32 32 30 28 27 27 26 28 26 19 19 22 24 26 26 27 28 29 28 26 25 23 22 20 21 24 23 22 21 22 25 24 29 30
35 34 35 35 35 33 33 35 32 27 27 25 24 24 30 28 30 29 24 16 16 20 23 22 22 22 23 24 27 22 23 20 21 21 24 21 20 21 18 22 23 23 22

GFSMA_sfc_30mbdewp_090.txt.gz
Dewpoint
62 63 62 62 61 61 61 60 60 60 60 60 59 59 57 55 55 54 54 54 54 61 62 61 61 61 62 63 62 62 63 61 60 58 57 55 54 54 55 55 55 55 55
62 62 62 62 61 60 60 60 59 59 60 58 56 56 55 55 55 56 56 56 56 57 60 61 60 61 62 61 61 61 62 61 62 62 60 58 57 56 55 56 56 55 54
62 62 62 62 61 61 60 59 58 57 57 58 58 58 58 58 58 58 58 58 58 58 58 61 60 61 61 61 61 61 62 62 62 62 61 60 59 57 57 56 56 55 54
62 61 61 60 58 58 57 53 54 56 57 57 58 58 59 59 59 59 59 59 59 59 59 60 61 62 61 61 60 62 61 60 59 60 61 61 61 59 58 58 57 56 55
60 60 59 57 56 54 53 54 55 57 58 59 59 60 60 60 60 60 59 60 60 59 59 59 59 60 60 60 60 61 59 58 58 58 58 58 59 60 60 59 59 57 56
59 58 58 58 59 58 56 56 57 58 59 59 60 60 60 59 58 58 58 58 58 59 59 58 59 59 60 61 60 58 58 57 57 57 56 56 57 57 59 59 60 58 57
60 59 59 59 60 60 60 61 60 60 60 61 60 56 55 56 55 55 54 54 56 57 58 57 58 59 57 58 57 56 55 55 55 55 53 55 54 55 56 57 58 59 59
62 62 61 61 61 61 61 62 62 60 59 59 56 55 51 53 53 53 53 52 53 54 53 54 54 53 53 54 54 54 55 55 55 54 54 54 54 53 54 56 58 58 58
64 63 63 62 62 62 62 61 60 60 58 58 58 56 51 50 52 53 52 52 51 51 52 52 50 50 50 51 51 52 52 53 53 53 53 52 54 54 55 55 54 56 56
61 62 63 63 61 59 59 58 57 57 58 57 56 55 56 56 51 48 51 52 50 50 50 49 47 49 49 49 50 51 51 52 52 51 52 52 54 54 54 54 54 53 54
58 58 59 58 57 56 55 54 53 52 53 53 53 52 51 51 52 51 48 48 49 47 48 47 47 47 48 48 47 49 50 51 51 51 53 54 53 53 54 52 54 54 53
54 54 54 54 52 50 49 48 49 49 50 51 51 52 51 50 48 48 48 49 49 48 47 47 47 46 47 47 47 48 48 49 50 50 49 51 51 50 52 53 53 53 53
52 49 48 47 47 46 46 46 45 45 46 46 48 49 51 50 51 50 49 49 47 47 46 45 45 45 45 45 45 45 47 47 47 48 48 49 48 49 50 50 50 51 52
51 48 46 45 45 44 44 44 44 44 45 47 48 49 50 50 50 50 48 47 46 48 46 45 43 44 44 44 44 44 44 46 46 46 47 47 47 45 46 48 48 50 51
48 46 44 43 43 42 42 42 42 42 44 46 47 49 49 48 48 49 49 49 47 44 46 43 42 42 42 42 42 41 42 44 45 45 45 45 46 45 45 45 46 47 50
45 43 42 42 41 41 41 40 40 42 43 43 46 47 46 46 46 46 46 47 48 47 45 44 42 41 42 42 42 39 40 38 42 43 43 44 45 44 44 43 44 45 47
42 41 41 41 40 40 39 39 39 40 41 41 43 44 44 43 43 44 44 45 45 45 45 40 40 40 40 40 40 39 36 33 33 37 38 40 41 41 41 41 41 42 44
40 40 39 39 39 39 39 39 39 39 39 40 41 42 42 42 41 41 41 42 42 43 43 42 39 38 38 39 38 37 32 27 29 34 35 36 35 37 36 35 36 39 41
39 38 38 38 38 38 38 38 38 38 38 38 38 39 40 39 39 39 39 39 40 40 41 42 38 38 38 36 34 31 29 27 23 27 28 32 35 35 32 32 33 34 37
38 38 37 37 37 37 37 38 38 37 37 37 37 37 37 38 38 37 37 37 37 38 39 40 38 37 36 33 29 30 26 24 23 21 22 27 28 29 31 32 32 32 33
38 37 37 37 37 37 37 37 38 38 37 37 36 35 35 36 36 36 33 32 33 36 37 38 36 34 32 29 29 25 26 22 23 22 19 22 22 24 28 31 32 31 32
37 37 37 36 36 37 38 39 39 39 38 36 35 32 31 31 33 33 31 31 30 31 33 34 33 33 30 26 24 22 21 19 15 24 19 20 24 23 24 29 32 33 33
36 36 36 36 36 36 38 39 39 39 37 36 34 32 26 27 27 30 33 31 30 30 29 30 31 29 27 24 24 23 22 20 19 23 21 16 24 23 24 27 31 31 31
36 36 36 36 36 36 37 38 40 37 35 34 33 29 25 23 22 23 23 23 22 25 25 24 23 23 24 25 25 24 22 22 23 24 23 17 23 21 24 26 30 30 31
35 35 35 35 35 35 36 38 38 34 34 32 30 27 25 24 26 27 19 20 22 24 26 28 29 29 29 28 27 25 23 22 20 21 24 22 22 20 22 25 24 31 30
35 34 34 35 35 35 35 36 36 31 31 29 26 25 29 28 30 30 20 17 17 22 23 22 24 23 25 26 27 22 24 19 20 20 24 21 20 20 18 22 23 24 22

GFSMA_sfc_30mbdewp_093.txt.gz
Dewpoint
62 62 62 62 62 62 61 60 60 61 61 60 60 59 58 56 55 55 55 55 55 57 62 62 61 62 62 62 61 62 62 62 62 61 59 57 55 55 55 55 55 55 55
62 62 63 62 62 61 61 61 60 60 60 60 58 57 57 56 57 57 58 58 57 58 59 62 61 61 62 61 61 62 62 62 62 62 62 60 58 57 56 56 56 55 54
63 63 63 63 62 61 60 60 60 58 58 58 58 58 58 59 59 59 59 59 59 58 59 61 62 62 62 61 61 62 62 61 61 61 62 62 61 59 58 57 57 56 55
63 63 63 62 62 61 61 59 55 55 57 58 58 59 59 60 60 59 60 60 60 60 60 60 61 62 63 61 61 62 61 59 59 59 59 61 61 61 60 59 58 57 56
64 63 62 62 60 57 57 56 54 56 57 59 59 60 61 60 60 59 58 59 60 60 60 60 59 61 61 61 61 61 59 58 57 57 57 58 58 59 60 61 60 59 58
62 61 61 60 58 56 55 55 55 57 59 59 59 60 61 59 57 57 57 57 57 57 58 60 60 60 60 61 60 59 57 56 56 56 55 55 55 56 57 58 59 60 59
61 60 60 59 58 58 58 57 59 59 60 61 60 57 56 56 56 55 55 54 56 57 59 59 59 60 59 59 58 57 56 55 55 55 54 54 53 53 54 55 59 59 59
61 61 60 59 59 60 60 61 61 60 60 60 57 56 53 52 54 54 54 53 54 55 55 56 56 55 55 54 55 55 55 55 54 54 54 53 54 52 55 57 56 57 59
63 63 63 63 62 62 62 62 61 60 59 59 59 57 52 50 53 53 53 52 52 52 53 53 52 52 51 52 51 52 53 53 53 52 52 52 51 55 55 55 54 54 55
63 64 63 63 62 60 59 58 58 58 59 58 57 56 57 57 50 48 52 52 50 51 51 50 50 50 50 50 50 51 52 52 52 52 53 55 55 54 54 52 52 54 54
60 62 62 61 60 59 57 57 55 54 54 53 53 53 52 52 53 51 46 49 50 49 49 48 48 49 48 48 48 50 51 51 51 50 51 52 53 52 53 55 54 54 54
57 57 58 58 58 56 55 53 52 51 51 51 52 52 51 49 48 49 49 48 49 49 48 48 48 48 48 47 48 48 49 50 50 50 51 51 50 51 51 52 52 52 52
54 54 55 54 53 51 50 49 48 47 47 47 48 49 51 51 51 50 49 46 46 48 47 47 47 46 45 46 46 46 48 48 48 48 49 49 48 47 49 50 50 50 51
54 53 52 50 47 46 46 45 45 45 46 47 47 49 49 51 51 51 49 46 44 45 48 47 45 45 45 45 45 44 45 46 46 46 47 47 46 45 47 47 47 49 50
53 50 47 45 45 44 44 43 43 43 45 46 47 48 49 49 49 49 50 48 45 40 42 46 44 44 44 43 43 42 43 44 45 45 45 46 46 46 45 45 45 47 49
48 45 44 43 43 42 42 42 42 43 43 44 46 46 47 47 47 47 47 48 48 45 42 45 43 42 43 42 42 40 40 40 42 43 43 44 44 43 43 42 43 44 46
44 43 42 41 41 40 40 40 40 41 41 41 43 44 45 44 44 44 45 45 46 47 45 42 41 41 42 41 40 39 35 34 37 39 39 40 40 41 40 39 40 41 43
42 41 41 40 39 39 39 39 39 40 40 40 41 43 43 42 42 42 41 42 43 44 43 43 40 39 39 40 39 37 30 27 31 36 37 37 36 36 35 35 36 38 41
40 39 39 39 39 39 39 39 39 39 39 39 39 40 41 40 40 40 39 40 41 41 41 42 40 39 38 37 35 33 30 27 23 27 30 32 36 34 33 33 33 34 38
39 38 38 38 38 38 38 38 38 38 38 38 38 38 38 38 38 38 38 38 38 39 40 41 39 38 37 34 33 32 29 26 25 21 23 27 30 31 33 33 33 33 34
38 38 37 37 37 37 37 38 38 38 38 37 37 36 36 36 37 37 35 34 33 35 37 39 37 35 34 31 30 28 29 25 24 23 20 23 23 25 29 32 33 32 33
38 37 37 37 37 37 39 40 39 38 39 38 36 34 34 33 35 33 32 32 31 32 34 35 35 35 32 29 27 26 25 22 19 24 20 21 24 23 26 32 32 32 33
37 37 37 37 37 37 39 39 40 39 39 37 36 34 29 29 30 32 33 29 29 30 30 32 34 32 31 28 27 26 26 23 20 23 21 17 23 23 24 29 31 31 32
36 36 36 36 36 37 38 39 40 39 37 36 35 33 29 25 24 26 25 23 23 26 26 23 25 27 26 27 26 27 25 23 24 24 23 21 22 21 24 28 31 31 31
36 36 36 36 36 36 38 38 38 36 35 34 32 29 26 24 24 27 22 21 22 25 28 30 29 29 28 28 26 25 23 23 21 21 24 23 22 21 23 25 24 31 30
35 35 35 35 36 35 37 37 37 34 33 32 29 27 31 26 29 30 21 19 18 22 23 24 24 26 27 28 27 23 26 22 22 21 24 24 22 22 23 24 24 24 23

GFSMA_sfc_30mbdewp_096.txt.gz
Dewpoint
56 56 56 56 56 57 56 56 57 57 57 57 57 56 56 56 55 56 56 56 56 58 60 62 62 62 63 63 61 62 63 62 62 62 61 59 57 56 55 55 55 55 55
58 58 59 60 59 59 58 57 58 58 58 58 57 57 57 57 57 57 57 58 58 59 60 61 62 62 62 62 62 62 62 62 62 62 62 62 60 58 57 56 56 55 54
61 61 62 62 60 59 58 58 58 57 57 58 57 57 57 58 57 56 56 56 58 59 59 61 62 63 61 62 61 62 62 61 60 59 60 62 62 61 59 58 57 57 56
63 63 63 62 60 59 59 57 56 54 55 57 56 57 58 58 57 56 56 54 55 56 58 60 61 62 62 62 61 62 60 59 58 58 58 59 59 60 61 61 59 58 57
64 63 62 62 61 60 58 58 55 53 55 57 58 58 58 57 56 56 56 56 56 57 57 58 60 59 61 62 61 61 59 57 57 56 56 56 57 57 58 60 61 60 59
65 64 62 61 61 59 56 56 53 55 57 58 57 56 56 56 54 54 55 54 54 57 57 57 58 59 60 60 61 59 57 56 56 55 54 54 54 54 55 57 58 59 60
62 62 62 61 60 58 56 56 56 57 58 59 57 54 54 54 54 55 54 53 54 56 57 58 58 59 59 59 58 57 56 56 56 55 55 54 54 53 53 54 57 59 59
62 61 61 61 60 59 58 58 59 59 57 59 55 56 50 48 51 54 54 53 53 54 55 57 58 58 58 57 56 56 55 54 54 54 53 53 52 53 52 56 56 56 57
64 63 62 63 62 61 61 62 62 61 58 60 59 55 49 44 50 48 53 53 52 52 54 55 55 54 54 53 52 52 53 53 53 52 53 54 54 55 55 54 53 53 54
64 64 64 63 63 63 62 60 60 60 59 58 59 58 57 54 45 42 49 52 52 51 52 52 52 52 52 51 51 51 52 53 53 53 53 54 54 54 54 55 53 54 54
62 63 63 62 61 60 59 58 58 57 56 53 51 49 48 49 50 47 42 44 50 51 51 51 50 50 50 49 49 51 51 52 51 50 51 52 51 51 52 53 54 54 53
60 61 61 61 60 59 59 58 57 55 52 52 52 52 48 45 45 46 45 46 46 47 50 50 50 49 49 49 48 49 50 50 50 51 51 51 50 49 50 51 52 52 52
57 59 60 60 59 58 57 55 53 52 51 50 50 50 51 50 50 49 48 46 45 46 47 48 49 48 47 47 47 46 49 49 49 49 50 49 47 46 47 49 50 50 50
58 58 58 58 56 55 53 52 50 48 48 49 48 49 48 49 50 49 47 46 45 44 44 46 48 48 47 46 46 45 46 47 46 46 47 47 46 46 46 47 47 48 50
58 57 56 54 50 48 47 46 45 45 46 47 48 48 48 49 50 50 50 49 46 41 40 44 47 46 45 45 44 43 44 45 46 46 46 46 46 45 44 44 45 46 47
55 54 51 49 46 45 44 44 43 44 44 45 46 46 47 48 48 49 49 49 48 45 42 46 46 45 44 43 42 41 40 41 43 43 43 43 43 43 42 41 42 43 44
50 48 46 44 43 42 42 42 42 43 42 43 43 45 45 46 46 46 46 46 46 46 45 44 43 43 43 42 40 38 36 36 39 40 40 39 41 39 38 38 38 40 42
47 44 43 42 41 40 40 40 40 41 41 41 42 43 43 44 44 43 42 42 43 44 45 43 42 40 41 41 40 36 30 30 35 38 37 38 37 36 35 35 35 36 40
44 43 41 41 40 40 39 39 39 39 40 40 41 41 42 43 43 42 41 40 41 42 42 42 42 41 40 39 37 35 30 27 24 29 30 35 37 34 34 34 34 34 37
42 41 40 39 39 39 39 39 39 39 39 39 40 40 40 40 40 40 40 40 39 40 40 41 41 39 38 36 35 33 31 28 26 22 26 28 30 31 33 34 33 33 35
40 40 39 39 39 38 38 39 39 39 39 39 39 38 39 38 37 38 37 39 37 37 38 39 39 37 35 33 33 32 32 29 27 25 22 22 23 24 29 31 32 34 33
39 39 38 38 38 37 39 40 39 38 38 38 38 37 37 36 36 35 33 32 33 35 36 37 37 36 35 33 30 30 32 30 28 25 22 22 23 22 27 32 32 33 34
39 39 39 38 39 38 40 40 40 39 39 39 38 37 34 31 33 34 34 31 29 31 31 34 35 35 34 31 31 31 29 27 22 25 22 19 23 21 27 31 31 32 32
39 39 38 38 38 38 40 40 40 41 40 40 39 37 33 29 28 29 26 25 22 24 25 23 27 32 32 32 31 31 29 24 23 23 23 22 21 21 25 30 32 32 32
39 39 39 38 39 38 40 39 40 39 38 37 36 35 32 27 25 27 23 23 21 23 30 30 30 29 29 28 26 24 23 22 20 21 24 22 22 21 23 26 26 31 30
39 39 38 38 38 38 39 39 38 37 35 35 34 31 31 26 27 29 24 21 18 21 23 27 28 29 29 29 26 24 26 28 24 22 24 25 23 23 25 25 26 26 26

GFSMA_sfc_30mbdewp_099.txt.gz
Dewpoint
55 55 55 56 55 54 53 53 52 52 51 53 55 55 55 55 54 54 55 56 56 58 60 61 62 63 63 63 62 62 62 63 62 63 63 62 60 58 57 56 56 55 54
54 54 54 55 55 56 55 55 54 55 55 55 55 55 55 55 55 56 56 58 58 59 60 62 62 63 62 61 61 62 62 62 62 61 60 62 62 61 59 58 57 56 55
56 57 57 59 58 57 56 56 55 55 55 55 56 56 56 56 56 55 54 55 58 58 59 61 62 63 64 61 62 62 61 60 59 58 58 59 61 61 61 61 59 58 57
60 60 61 61 60 59 58 56 55 54 53 54 55 56 56 57 56 54 54 54 54 55 59 60 61 61 62 62 61 61 60 58 57 57 57 57 58 58 59 59 60 60 59
62 63 62 62 61 59 58 57 54 52 52 55 56 56 57 56 54 53 53 54 54 55 56 58 60 59 60 61 61 61 59 57 57 56 55 55 55 55 55 57 59 60 60
63 63 62 61 61 60 58 56 55 52 54 55 57 55 55 54 54 53 53 52 52 55 56 57 58 60 61 60 62 60 58 56 56 56 55 55 55 54 53 54 55 58 59
63 63 63 62 61 60 58 55 55 54 56 58 56 54 54 53 53 54 53 51 51 55 56 56 57 60 59 59 59 58 56 56 56 55 54 54 54 54 53 52 57 58 58
62 63 62 62 62 61 59 57 56 57 59 58 54 54 51 49 52 52 53 52 51 53 54 55 57 58 59 57 57 57 56 54 54 53 53 53 53 53 55 56 55 54 54
63 63 62 62 62 62 60 60 61 61 59 59 59 55 49 45 47 48 51 51 51 51 53 54 55 56 55 54 53 52 53 54 53 53 56 56 56 55 55 55 55 53 53
64 64 63 63 63 63 62 62 61 61 59 57 58 58 56 52 46 41 49 51 51 51 51 52 52 53 53 52 51 52 53 53 52 52 52 53 54 53 53 53 54 55 55
63 63 63 63 63 61 60 60 59 57 56 52 50 50 47 48 49 47 44 44 50 50 51 51 51 51 51 50 51 51 51 52 52 52 54 53 52 51 51 52 52 53 54
62 62 63 62 61 60 59 59 59 58 57 56 53 51 49 47 47 47 46 44 46 47 50 50 51 50 50 50 48 49 50 50 51 51 51 52 50 48 48 49 51 51 52
59 60 61 60 60 60 60 60 59 57 54 53 51 49 50 51 50 49 47 46 45 45 46 49 49 49 48 48 48 47 49 49 49 50 50 50 47 46 46 47 48 49 50
59 60 61 61 60 60 59 58 57 55 53 52 51 50 50 49 50 49 48 47 45 45 45 46 49 48 48 47 46 45 47 47 47 47 47 47 46 46 45 45 45 47 48
59 59 60 60 59 58 57 55 52 50 48 49 49 49 49 49 50 50 50 49 47 42 41 46 47 46 46 46 44 43 44 45 46 46 46 46 45 44 43 43 43 44 45
59 58 58 56 53 52 51 48 46 46 46 46 47 48 48 48 49 49 49 49 48 46 43 46 46 46 45 44 42 42 41 42 43 43 43 43 43 42 41 40 40 41 43
56 55 53 52 50 48 46 45 45 44 44 44 44 45 45 47 47 48 48 47 47 47 45 45 45 44 44 43 41 38 37 38 41 41 40 40 40 39 38 37 37 38 40
52 51 48 47 46 45 43 42 42 42 42 43 43 43 44 45 46 46 45 45 44 44 45 43 44 42 42 42 40 36 31 31 38 40 38 38 38 36 35 34 34 34 38
49 45 45 44 43 42 41 41 41 41 41 41 42 42 43 44 44 44 43 42 42 42 42 43 42 42 41 40 38 36 31 28 27 33 31 36 37 35 34 34 33 33 36
47 44 43 42 41 41 41 41 40 40 40 40 41 42 42 43 43 43 42 41 41 41 41 41 41 41 39 37 37 35 33 29 26 23 28 29 30 29 31 33 34 34 34
44 43 41 41 41 40 40 40 39 39 40 40 40 41 41 40 39 39 39 39 39 39 39 40 40 39 37 34 35 35 34 31 28 28 26 24 24 25 28 32 32 34 34
42 41 40 40 40 39 39 40 40 40 40 40 39 39 38 37 38 38 36 34 35 37 37 37 39 37 37 35 33 32 33 31 32 28 25 24 25 25 29 32 33 33 34
41 40 40 40 40 39 39 41 40 40 40 40 40 39 37 36 36 35 35 34 33 32 32 35 36 37 36 34 33 32 32 32 28 26 25 21 24 23 28 32 33 33 33
41 41 40 40 40 40 41 41 41 41 40 40 40 39 37 32 34 34 32 27 23 24 25 24 30 34 35 34 34 34 32 27 24 23 24 23 22 22 26 31 33 33 33
41 41 41 40 40 40 41 41 41 39 39 39 39 38 37 32 30 31 28 26 22 24 31 30 30 30 30 30 29 28 26 23 22 22 25 24 22 22 23 27 28 32 31
41 42 40 40 40 40 40 41 40 38 37 37 37 36 35 32 29 31 25 25 22 22 25 30 31 31 30 29 27 27 27 28 25 23 25 26 24 24 25 26 27 28 27

GFSMA_sfc_30mbdewp_102.txt.gz
Dewpoint
59 60 61 61 60 59 59 57 55 53 52 52 54 55 55 55 55 55 55 55 56 58 60 61 62 62 63 62 62 62 62 62 62 62 61 61 62 61 59 58 57 56 55
57 57 57 57 56 56 54 54 53 54 53 54 55 56 55 55 55 56 57 56 58 59 60 62 63 63 64 61 61 62 62 62 61 59 59 59 61 62 62 61 59 58 57
56 55 55 56 57 57 57 56 55 55 56 56 56 56 56 56 56 56 56 58 59 59 60 62 63 63 63 63 61 62 62 60 59 58 58 58 58 59 60 60 60 61 59
56 57 59 60 59 58 58 57 56 56 55 55 56 56 56 57 57 56 54 55 56 58 58 60 61 62 61 62 62 61 61 59 58 57 56 56 56 56 56 57 59 60 61
59 61 62 62 60 60 58 58 56 54 53 53 56 56 57 57 56 54 53 53 55 55 56 59 60 60 59 61 62 61 59 57 57 56 55 55 55 55 54 54 55 57 59
62 62 63 62 61 60 59 58 56 55 53 54 56 56 56 56 55 54 54 53 54 56 57 57 59 60 60 60 62 61 58 57 56 56 55 55 55 54 55 53 57 58 58
63 63 62 62 62 61 59 58 56 55 53 58 57 56 55 55 54 53 53 52 54 55 55 56 60 59 59 60 61 59 58 57 56 55 54 54 54 54 54 56 56 55 55
64 63 63 62 62 61 61 59 56 56 57 59 56 55 51 51 53 52 53 52 52 54 55 56 57 59 58 57 57 57 57 55 54 53 55 56 56 56 56 55 55 55 54
62 63 63 63 62 61 60 61 61 60 58 60 59 56 50 47 49 53 52 51 51 52 54 55 55 55 54 54 53 53 53 54 54 54 54 55 55 55 54 53 53 55 55
63 63 63 63 63 63 61 61 61 59 59 58 59 56 53 52 46 41 51 51 51 51 51 52 54 54 52 51 51 52 53 53 52 52 52 53 53 53 52 52 52 53 54
63 63 63 63 63 62 61 61 60 59 58 57 55 52 49 49 51 48 45 48 51 51 51 51 51 51 50 51 51 50 51 52 53 54 55 54 52 51 50 50 50 52 51
61 62 63 63 62 61 61 60 58 57 57 56 54 52 49 47 47 47 46 46 46 48 51 50 50 50 50 49 48 50 50 50 51 51 52 52 50 49 48 49 49 50 50
60 60 62 61 61 60 59 59 59 58 58 57 55 53 51 49 50 49 48 46 45 46 48 49 50 49 48 48 47 48 49 49 49 50 51 50 48 47 47 46 47 47 48
60 60 60 61 60 60 60 59 59 58 57 55 54 51 50 50 50 50 48 47 45 45 46 47 48 48 47 47 46 46 48 48 47 48 48 48 47 46 45 44 44 44 46
60 60 60 60 60 60 60 59 57 57 54 53 52 51 49 50 50 50 50 49 47 42 42 47 46 46 46 45 44 44 44 46 47 46 46 45 45 44 43 42 42 42 44
60 59 59 60 60 59 59 57 55 52 51 50 49 49 48 49 50 50 49 49 48 47 43 46 46 45 45 44 43 42 42 43 43 44 44 43 43 41 40 40 39 40 41
58 58 58 56 55 54 54 53 51 49 47 46 47 47 47 48 48 49 48 48 48 47 44 45 45 44 44 42 41 39 37 39 41 41 41 41 40 39 37 36 35 35 38
55 54 53 53 52 51 49 48 46 45 45 45 44 45 45 46 47 47 47 46 46 46 45 44 44 42 42 42 40 36 32 33 39 40 39 39 38 36 36 34 34 34 35
51 49 49 48 47 46 45 45 45 45 43 43 43 43 43 44 44 45 45 44 43 42 43 43 42 42 41 40 38 36 31 30 29 35 33 35 37 35 33 33 35 35 35
48 45 45 45 44 44 43 43 43 42 42 42 42 42 43 44 44 44 42 41 41 41 41 41 42 41 40 38 38 36 34 31 28 23 29 30 29 27 30 32 34 35 35
46 45 43 42 42 42 42 42 41 41 41 41 41 42 42 41 41 42 42 41 40 40 40 39 40 40 38 35 36 36 35 33 31 29 27 24 25 26 29 34 34 34 36
43 43 42 41 41 41 41 42 41 40 40 40 40 40 39 39 39 39 38 37 38 39 37 37 38 37 37 36 35 34 34 31 31 28 25 24 24 25 29 32 33 33 33
42 41 41 40 40 40 40 41 41 40 40 40 40 39 38 38 38 37 37 36 35 34 35 37 36 36 36 36 34 33 33 33 29 25 24 22 24 24 29 33 34 33 33
41 41 40 40 40 40 40 41 41 40 40 39 39 39 38 36 36 35 35 31 27 25 26 28 33 35 36 36 34 34 33 27 24 23 24 20 22 23 28 31 33 33 33
41 41 41 40 40 40 41 41 42 40 40 40 40 39 38 34 35 36 34 28 24 25 29 28 30 32 33 36 33 32 28 25 22 22 24 23 22 22 23 27 30 32 31
41 41 41 41 40 40 42 42 42 39 39 39 39 39 39 34 34 35 31 27 23 23 30 31 30 30 30 29 29 29 27 23 22 21 24 24 23 23 21 26 27 28 27

GFSMA_sfc_30mbdewp_105.txt.gz
Dewpoint
63 63 62 62 63 63 62 61 60 57 55 53 54 55 54 54 55 56 56 56 58 60 60 61 61 62 63 63 63 63 62 62 62 61 60 60 61 63 61 60 59 58 57
62 62 62 62 62 61 61 59 57 55 53 51 52 55 55 55 55 56 55 55 57 58 60 62 62 63 63 61 62 63 62 62 60 59 58 58 59 61 61 61 61 61 59
60 60 60 60 60 58 57 56 54 54 55 54 55 55 56 56 56 56 57 56 57 59 61 62 63 63 63 62 62 63 62 61 59 58 57 57 57 57 57 58 59 60 61
57 58 57 57 57 57 57 56 56 55 56 56 56 56 56 56 57 56 55 58 58 59 60 60 61 62 62 62 62 62 62 59 58 57 56 56 56 55 55 55 55 57 59
56 57 58 59 59 58 57 57 56 56 55 54 54 56 57 57 57 54 53 55 56 56 57 59 60 59 59 61 62 62 61 58 57 56 56 56 55 55 55 54 56 57 58
58 61 61 61 60 59 58 58 56 55 53 53 54 56 57 57 55 54 53 54 56 57 56 57 59 60 61 61 63 62 59 57 56 56 55 55 55 54 55 56 56 56 56
60 62 62 62 61 60 59 58 57 55 53 56 57 57 56 55 54 53 52 53 55 55 56 59 59 59 59 61 62 61 59 57 56 55 54 54 55 56 56 56 56 56 55
62 62 63 62 62 60 60 59 56 56 55 58 56 54 52 52 53 53 52 52 54 55 55 57 59 58 57 57 57 57 58 56 54 54 56 56 56 56 56 54 54 55 55
63 63 63 62 62 61 61 60 58 57 57 59 59 55 51 48 51 53 53 51 52 54 55 56 56 55 54 54 53 53 53 55 55 55 54 55 55 54 54 53 53 53 54
63 63 63 63 62 62 61 61 61 60 59 57 58 56 55 52 45 48 52 51 51 52 53 54 54 53 52 52 52 53 53 54 53 53 53 54 54 53 52 52 52 51 52
63 63 63 63 62 62 61 61 60 59 59 58 57 55 52 50 52 46 45 49 51 51 51 51 53 52 51 51 50 50 51 53 54 55 55 55 53 52 51 50 51 51 51
61 62 62 62 62 62 61 60 60 59 58 57 55 53 49 47 45 47 46 46 49 49 51 51 51 50 49 49 49 50 51 51 51 52 53 53 51 50 49 49 49 49 48
59 60 61 61 61 61 61 60 59 58 57 56 55 54 52 49 49 49 47 46 45 46 49 49 50 49 48 47 48 48 49 49 49 50 52 51 49 47 47 47 47 46 47
60 60 60 61 61 60 60 60 59 58 58 57 56 55 53 51 50 49 48 47 45 46 46 47 48 47 47 47 47 47 48 48 48 49 49 49 47 46 45 44 44 43 44
59 59 59 60 60 60 60 59 59 58 57 57 56 55 52 51 50 50 50 48 45 41 43 46 46 46 46 45 45 45 45 47 47 47 46 45 45 44 43 42 42 41 41
58 59 60 60 60 60 60 59 58 58 56 55 54 53 51 49 50 50 50 49 48 45 41 45 45 45 45 44 44 43 43 43 44 44 44 43 43 41 40 38 37 37 39
59 59 59 59 59 59 59 58 58 55 55 54 52 51 49 48 49 49 49 48 48 47 45 44 44 44 43 42 41 39 39 40 42 42 41 42 40 38 37 36 35 35 35
56 57 57 57 56 56 55 56 54 53 53 51 49 48 47 48 48 48 48 47 47 47 46 44 44 43 43 42 41 37 34 34 40 41 40 39 38 37 35 34 36 36 35
52 52 52 52 52 52 51 51 50 49 49 48 46 46 45 46 46 46 46 46 45 45 45 44 43 42 42 41 39 36 32 31 32 37 36 35 37 35 31 33 35 36 35
49 47 47 47 48 47 46 46 46 47 47 46 46 44 44 45 45 45 44 44 43 42 41 42 42 42 40 39 38 37 35 32 30 25 29 31 30 27 30 34 34 36 36
45 46 44 44 44 44 44 44 45 45 45 44 44 45 44 44 45 44 43 42 41 40 40 39 39 40 39 37 37 37 36 35 32 30 26 25 25 26 30 34 34 34 34
43 43 43 42 42 42 42 43 42 42 42 42 42 42 43 42 43 43 43 42 41 40 39 39 38 38 37 37 36 36 35 33 33 30 26 24 24 24 28 32 33 33 33
42 42 41 41 40 41 41 42 43 41 41 41 41 41 40 40 40 40 40 39 38 40 40 38 37 37 37 37 36 34 34 33 32 27 25 22 24 23 29 33 33 32 32
41 41 41 41 40 40 41 41 42 41 40 40 40 40 39 38 38 37 36 35 34 33 34 34 36 37 37 37 36 35 34 30 24 24 24 18 23 22 28 30 33 32 33
41 41 41 41 40 40 41 42 41 40 39 39 39 40 39 37 38 38 35 33 28 25 29 29 29 31 34 38 36 33 30 27 25 22 23 22 22 22 24 28 29 32 30
42 42 41 41 41 40 40 42 42 40 39 39 39 39 40 37 38 38 34 32 28 24 27 29 29 31 32 36 36 32 29 28 23 21 23 22 22 22 18 25 26 27 28

GFSMA_sfc_30mbdewp_108.txt.gz
Dewpoint
63 62 63 64 64 63 63 62 61 59 56 55 54 54 54 53 55 55 57 59 60 61 62 62 62 62 63 63 63 63 63 62 62 61 59 59 61 62 62 62 61 60 59
62 62 61 62 62 62 62 62 60 58 55 55 53 54 55 54 55 55 55 56 58 59 61 62 62 62 63 62 61 63 62 62 61 59 58 58 58 58 59 59 59 60 61
62 61 61 61 62 62 62 60 59 57 55 53 52 53 55 56 56 56 56 55 56 59 61 62 63 63 63 62 61 62 62 62 59 58 57 57 56 56 56 56 56 57 58
62 62 61 61 61 60 59 58 57 55 54 55 54 55 56 56 56 57 55 57 57 58 59 60 61 62 62 61 61 63 62 60 58 57 56 56 56 56 56 55 56 58 58
61 60 60 60 59 59 57 56 56 55 55 55 55 56 56 57 57 56 55 57 58 58 57 59 60 59 59 61 61 63 62 59 57 56 56 56 55 55 55 57 57 57 57
59 59 58 58 58 58 57 57 56 56 55 55 54 54 56 57 56 53 54 55 56 57 57 58 59 60 61 62 62 63 62 58 57 56 55 55 55 55 56 56 56 56 56
58 59 59 59 59 58 58 57 57 55 54 54 54 55 57 56 55 54 53 55 56 56 57 59 59 59 59 61 62 62 60 58 57 55 54 55 55 56 56 55 54 55 55
59 61 60 61 60 59 59 58 57 56 55 56 56 55 53 53 53 53 52 54 55 55 57 59 58 57 57 57 58 59 59 58 56 54 55 56 56 56 55 55 54 52 54
60 62 62 62 61 61 59 59 58 57 56 58 58 56 52 51 51 53 52 52 53 54 55 57 58 56 55 54 54 54 54 55 55 55 56 55 55 54 54 53 53 52 53
61 62 62 62 62 61 61 60 60 58 58 57 59 58 57 51 49 49 52 51 51 53 54 55 55 53 53 52 52 52 53 54 53 53 54 55 56 54 53 52 52 52 52
62 63 63 62 62 61 61 61 61 60 60 58 58 56 55 54 53 47 49 50 51 52 53 53 53 52 51 51 50 51 51 54 55 55 55 55 54 53 52 51 50 50 50
60 62 62 62 62 61 61 60 60 60 60 59 59 57 55 52 51 49 45 47 50 50 51 51 52 51 51 50 50 51 51 51 52 52 53 54 52 51 50 49 49 49 48
59 60 61 61 61 61 61 60 60 59 59 58 57 56 52 51 52 51 49 47 46 48 49 50 50 49 48 48 48 48 49 49 50 51 53 52 50 48 47 47 47 46 46
59 60 60 60 60 60 59 59 59 59 58 58 57 55 54 53 52 51 49 47 45 46 47 47 47 47 47 47 47 48 48 48 48 49 51 49 47 46 45 45 44 44 43
60 60 60 60 60 60 60 59 59 58 58 58 57 56 55 54 52 51 49 48 46 43 44 45 46 46 46 46 46 45 45 47 47 48 47 46 45 43 42 42 40 39 39
59 59 59 59 59 59 60 59 59 59 57 57 56 56 55 53 52 50 50 49 47 44 40 45 45 45 45 44 45 43 43 44 45 45 45 44 43 41 40 38 37 37 36
59 58 59 59 59 59 59 59 59 58 57 57 55 55 54 51 50 49 49 49 48 47 44 44 44 44 44 43 42 40 40 41 42 43 42 42 41 39 38 36 36 37 36
55 56 56 57 57 57 57 58 58 57 56 56 55 54 53 51 49 49 48 48 47 47 46 44 43 43 43 42 41 39 36 36 40 42 41 40 40 38 36 35 35 36 36
51 51 51 52 53 54 54 54 54 54 54 54 53 52 52 50 48 48 48 47 46 46 46 44 42 42 42 41 39 37 34 32 35 39 39 37 39 36 32 32 35 35 37
46 48 47 47 48 48 48 49 49 50 50 50 50 50 49 48 48 47 47 46 45 44 44 43 42 41 40 40 39 38 37 33 33 28 33 30 33 29 30 35 34 35 35
43 44 45 44 44 44 45 45 46 46 47 47 47 47 47 47 47 47 46 45 44 43 41 41 40 40 39 37 38 38 38 37 34 32 26 27 26 26 28 32 34 35 34
42 42 42 42 42 42 42 43 44 44 44 45 45 45 45 46 45 46 46 45 44 42 41 40 39 39 38 38 37 37 36 34 35 32 29 27 24 24 26 31 34 33 32
41 41 41 41 41 41 41 42 43 43 42 42 43 43 43 43 44 44 46 45 44 44 42 40 38 38 38 38 37 36 35 34 34 29 27 26 24 23 27 32 34 32 32
40 41 41 41 41 41 41 42 42 42 41 41 41 41 41 40 41 41 41 40 40 41 42 40 39 38 38 38 37 36 35 33 27 26 24 21 23 22 25 30 34 31 33
38 40 41 41 40 40 41 41 42 41 40 39 40 40 40 39 40 41 38 37 36 34 32 35 36 37 38 39 37 35 33 31 28 25 24 20 22 21 24 27 29 33 30
37 39 39 41 42 42 42 42 42 42 40 39 39 39 40 40 39 41 37 35 34 31 28 28 30 31 35 37 39 35 32 32 26 27 24 21 21 22 18 24 26 27 28

GFSMA_sfc_30mbdewp_111.txt.gz
Dewpoint
62 61 63 64 63 64 64 63 62 60 58 55 54 54 54 54 54 55 58 58 61 62 63 63 63 62 63 63 63 63 64 63 62 61 59 59 59 60 60 59 59 59 60
62 62 63 63 63 63 63 62 61 60 57 55 54 54 54 54 54 55 55 56 59 60 62 63 62 62 62 62 61 62 63 62 61 59 58 58 57 57 57 57 57 57 57
63 62 62 62 62 62 62 62 61 59 57 55 54 53 54 55 55 55 55 55 56 59 60 62 62 63 63 62 62 61 64 62 60 58 57 57 57 57 56 56 56 58 58
63 62 61 61 62 61 61 61 60 58 56 55 53 53 54 55 56 56 56 56 56 57 58 61 61 62 63 62 61 61 63 62 59 57 56 56 56 56 56 56 57 58 57
64 62 62 61 61 61 60 60 59 57 56 54 55 55 56 56 57 57 56 56 57 57 58 58 59 60 59 60 61 61 63 61 58 57 56 55 56 55 56 57 57 57 56
63 63 62 61 60 60 59 58 57 56 55 54 55 55 55 56 57 57 55 56 57 57 57 59 59 60 61 61 61 61 63 60 58 56 55 55 55 55 56 56 55 55 55
63 62 61 60 59 59 58 58 56 55 55 55 54 54 56 56 55 54 54 55 56 56 57 58 59 59 59 61 63 64 62 60 58 56 55 55 56 56 56 55 55 53 54
61 59 60 59 58 58 57 57 57 56 55 55 54 54 52 54 54 54 53 54 55 56 57 58 58 57 57 58 59 60 60 59 58 56 55 56 56 56 55 55 54 53 52
61 61 61 61 59 59 58 58 57 56 55 56 57 55 52 52 52 53 52 52 54 55 56 58 57 56 56 55 55 55 55 55 56 56 57 57 56 55 54 54 53 52 53
61 62 61 61 60 60 59 59 59 57 57 56 58 58 57 52 50 50 52 52 52 54 55 56 57 55 54 53 53 53 53 53 54 54 54 55 56 56 54 53 52 52 51
61 60 61 60 61 61 61 60 60 59 58 57 57 56 56 55 54 49 49 51 51 52 54 55 55 53 52 51 51 51 52 54 55 55 55 55 55 54 53 52 51 50 50
60 61 61 61 61 61 60 60 60 60 60 59 59 58 57 55 54 53 50 48 51 51 52 52 53 52 51 50 50 51 51 52 52 53 53 54 54 52 51 50 50 49 48
58 60 60 60 60 60 60 60 60 59 59 59 58 58 58 57 55 53 51 48 49 50 50 50 51 51 50 49 49 49 50 50 50 51 53 54 51 49 48 48 48 47 46
58 60 60 60 60 60 60 60 59 59 59 58 58 57 57 55 53 53 52 49 47 47 48 48 48 48 48 48 48 48 48 49 49 49 51 50 48 46 45 45 44 43 42
59 60 60 60 60 60 59 59 59 58 58 58 58 58 57 56 55 54 53 52 50 47 47 46 47 47 47 46 47 46 46 47 48 48 47 46 45 44 42 41 40 39 39
59 59 59 60 59 59 59 59 59 59 58 58 58 57 57 55 54 53 52 51 49 47 45 45 46 45 45 45 46 44 44 45 46 46 45 44 43 41 40 39 38 39 39
58 58 59 58 58 58 58 58 58 58 58 58 57 56 56 56 54 53 52 51 50 47 45 44 45 44 44 44 44 42 42 42 43 44 44 43 42 39 38 37 37 38 38
53 53 54 54 55 56 57 57 57 57 57 56 56 56 55 54 54 53 51 50 49 48 46 43 43 43 44 43 42 40 39 39 41 42 43 41 41 39 37 35 35 36 37
47 48 48 48 49 51 51 52 53 53 53 54 55 55 55 54 52 51 50 50 49 48 47 44 42 42 42 42 40 39 37 35 37 41 41 40 40 39 34 33 36 34 36
43 44 45 45 45 45 46 47 47 48 49 50 51 51 52 51 51 50 49 48 47 46 45 44 42 41 41 40 40 39 37 34 34 32 37 34 35 34 31 35 35 35 35
42 42 42 42 42 43 43 43 44 44 45 46 47 48 49 49 49 49 48 47 46 45 44 43 42 41 40 38 38 38 38 37 35 33 29 30 30 27 27 31 33 35 34
41 41 41 41 41 41 42 42 43 43 43 43 43 45 46 47 47 48 48 47 46 45 43 42 41 41 40 39 38 37 37 36 35 34 30 28 25 25 26 28 34 33 32
39 39 40 40 40 40 42 43 43 42 41 41 41 42 42 43 44 45 47 47 47 46 45 43 42 41 40 40 38 36 36 35 35 31 30 29 25 24 25 30 35 33 32
37 37 38 39 39 40 41 42 43 42 41 40 40 41 41 41 42 42 43 45 44 44 45 43 42 41 40 39 38 37 37 34 29 27 27 27 23 23 25 30 33 32 32
37 36 37 36 37 39 41 42 43 42 41 41 40 40 40 40 41 42 41 40 40 40 38 40 40 40 40 40 38 36 34 33 31 27 25 23 22 22 23 26 29 33 31
37 37 38 37 36 37 38 40 41 41 40 41 41 40 40 41 41 41 42 39 38 38 36 35 35 36 39 39 39 37 35 34 31 29 25 23 21 21 18 24 27 28 28

GFSMA_sfc_30mbdewp_114.txt.gz
Dewpoint
63 61 63 63 64 65 65 64 63 61 58 56 54 54 54 54 53 54 56 59 60 63 64 63 63 63 62 63 63 63 64 64 63 61 59 58 58 58 57 57 57 57 57
62 61 62 63 63 64 64 63 62 60 58 56 54 54 54 54 54 54 55 56 58 60 62 63 63 62 62 63 62 62 63 63 62 59 58 57 57 57 57 56 57 58 58
63 62 62 63 63 63 63 62 61 60 58 56 54 54 53 54 55 54 55 55 56 57 60 61 63 62 63 63 62 62 62 63 61 58 57 57 57 57 56 57 58 57 57
64 63 62 63 63 63 62 61 61 60 58 56 55 54 53 53 55 56 56 56 56 56 57 59 61 63 63 63 62 61 61 63 60 58 57 57 56 56 56 57 57 57 57
64 63 62 62 63 62 61 61 60 59 58 56 55 54 54 54 55 56 56 56 56 57 57 58 59 60 60 60 61 61 61 63 60 58 56 56 56 56 56 57 56 56 56
64 64 63 63 62 62 61 60 60 58 58 56 55 54 55 56 57 57 57 56 57 57 58 58 59 59 60 61 62 61 61 62 60 57 56 55 55 55 56 56 55 54 53
64 63 63 62 62 61 60 59 58 58 57 56 54 54 55 56 56 56 55 55 56 57 57 58 58 59 59 60 62 64 63 62 60 57 56 55 55 56 56 56 56 55 54
63 63 62 60 61 61 60 59 58 56 56 55 54 54 52 53 54 54 54 54 55 56 56 57 58 57 57 58 60 61 62 61 59 58 56 55 57 56 56 55 55 54 54
62 62 61 60 59 60 59 59 58 57 55 55 56 54 52 50 53 53 53 53 54 55 56 57 57 56 56 56 57 57 57 57 57 56 57 58 57 56 56 55 54 53 52
62 60 58 57 58 59 59 59 58 57 56 55 56 57 57 53 51 50 52 53 53 54 55 56 57 56 55 55 54 54 54 54 55 55 55 55 56 56 55 54 54 52 52
61 61 59 58 58 60 60 59 58 57 57 57 56 56 56 55 52 49 50 51 52 52 54 55 57 56 54 53 53 52 53 54 54 55 55 55 56 55 54 53 52 51 50
60 61 62 62 61 61 61 59 59 58 58 58 57 57 56 55 55 54 52 52 52 52 52 55 55 54 53 52 51 51 51 52 53 53 54 53 56 54 52 51 50 50 49
59 59 60 60 60 60 60 60 59 59 59 59 59 58 58 57 57 55 54 53 51 51 51 52 53 53 52 51 50 51 51 51 51 52 53 53 53 51 49 49 48 47 46
59 60 60 60 60 60 60 59 59 59 59 58 58 58 57 57 56 55 54 53 51 49 49 50 49 50 50 50 49 49 49 50 50 51 51 53 50 48 46 45 44 42 42
59 59 59 59 60 60 59 59 58 58 58 58 58 58 57 57 56 55 55 54 53 50 48 49 49 49 49 49 49 48 47 48 49 49 50 49 47 45 44 42 40 40 41
59 59 59 59 59 59 59 59 58 58 58 58 58 58 57 57 57 56 55 54 53 52 49 49 48 47 47 47 47 47 46 47 48 49 48 47 45 43 42 40 39 39 39
55 55 56 58 58 58 58 58 58 58 58 58 58 57 57 57 56 54 54 53 52 52 50 48 46 45 45 46 45 45 44 44 45 47 46 45 44 42 40 38 37 38 38
48 48 48 49 50 51 52 53 53 54 54 55 56 56 56 56 55 55 54 53 52 51 50 48 44 44 44 44 44 42 41 41 42 44 45 44 43 41 39 36 35 37 36
43 44 45 45 45 45 46 47 47 48 49 50 51 52 52 54 53 53 52 52 51 50 49 47 43 43 43 43 41 40 39 37 37 41 44 43 43 41 38 35 35 35 35
42 42 42 42 42 42 43 43 43 43 44 45 46 47 48 49 50 51 50 50 50 48 46 46 43 42 42 41 41 40 40 37 36 35 40 40 40 41 37 34 36 34 35
41 41 41 41 41 41 42 43 43 42 42 42 43 44 45 46 47 48 49 48 47 47 45 45 43 41 40 39 40 40 41 39 37 35 33 35 33 31 30 34 33 35 34
38 38 38 38 38 40 42 44 44 42 41 41 41 41 42 43 43 45 47 49 48 46 44 44 43 42 41 40 40 40 39 37 37 37 34 31 29 29 27 28 30 35 33
36 36 37 37 36 37 41 42 43 42 41 40 40 40 40 41 42 42 44 46 48 48 47 44 44 43 42 41 40 38 38 37 37 33 33 32 26 26 26 27 34 34 32
36 36 36 37 36 36 39 40 41 41 40 40 40 40 40 40 40 41 41 42 44 46 47 47 45 44 43 42 41 40 38 36 31 30 31 32 25 26 25 28 34 33 32
33 34 35 36 35 36 38 39 39 39 39 39 39 41 41 40 41 42 42 41 40 41 43 45 45 44 43 43 41 38 36 35 33 30 28 27 23 23 23 26 30 34 32
32 32 33 34 34 33 35 34 34 35 35 36 37 37 38 41 41 42 42 41 39 39 39 38 39 41 41 41 41 38 35 35 33 31 28 27 22 21 18 24 27 30 30

GFSMA_sfc_30mbdewp_117.txt.gz
Dewpoint
66 66 66 66 66 66 64 64 65 63 61 58 55 53 53 52 52 54 55 57 60 62 63 64 64 64 63 63 63 63 64 64 64 63 59 58 58 57 57 57 57 58 58
65 65 64 64 64 65 65 64 63 62 60 57 55 54 54 54 54 55 55 55 58 60 62 63 64 64 62 62 63 62 63 64 63 61 58 58 57 57 57 57 58 58 57
64 63 63 63 64 65 64 64 63 62 59 58 56 54 54 54 55 55 55 55 56 57 59 62 61 63 63 63 63 62 62 64 63 60 58 57 57 57 57 57 57 57 57
64 63 62 63 64 64 64 63 62 61 59 58 57 54 54 55 54 54 56 56 57 56 57 59 61 62 64 63 63 62 61 62 63 60 58 57 56 56 56 57 57 57 56
64 64 63 63 64 63 63 62 61 60 59 58 57 56 55 55 54 54 55 56 57 57 57 57 59 60 62 62 61 61 61 62 63 60 58 57 56 56 56 57 56 55 54
63 64 64 63 63 63 63 62 61 60 60 59 57 55 56 55 56 56 56 57 57 58 58 58 59 60 59 60 61 61 61 61 62 60 58 56 56 56 56 57 56 55 54
62 63 64 64 63 62 62 62 61 60 59 58 57 56 55 55 55 56 57 57 57 57 58 58 59 59 60 60 60 62 61 60 62 60 58 56 55 56 57 57 56 55 54
62 62 63 63 62 62 61 61 60 58 58 58 56 55 52 53 55 56 56 55 56 57 57 58 58 58 59 58 59 62 64 63 62 60 58 56 56 57 57 56 55 54 54
62 62 62 62 62 62 61 60 60 59 57 57 57 54 53 51 53 54 54 54 55 56 57 58 57 58 58 58 59 60 61 62 61 60 59 57 58 58 57 56 55 54 53
62 62 62 61 61 61 60 60 60 59 58 56 57 57 57 55 52 51 52 54 54 54 55 56 57 57 57 56 56 57 56 57 58 58 58 57 57 57 57 56 55 53 52
61 62 61 60 59 59 58 57 57 56 58 56 57 56 57 57 54 52 52 52 53 53 55 56 56 57 56 56 55 55 55 55 56 57 57 56 56 56 56 55 53 52 51
61 61 60 59 58 58 59 60 59 59 58 58 57 56 55 55 55 53 52 53 53 54 54 54 55 57 56 55 54 53 53 54 55 55 55 55 54 55 55 54 52 50 49
59 60 61 60 59 59 59 60 59 59 59 58 57 57 58 58 57 56 55 54 54 53 52 53 55 55 55 54 53 52 53 53 53 54 54 54 53 55 53 51 50 48 47
59 60 60 60 60 60 60 60 59 59 59 59 59 58 58 58 58 57 56 55 53 53 52 52 52 53 53 52 52 52 52 53 53 52 52 52 55 52 50 48 46 44 43
59 59 60 59 59 59 59 59 59 58 59 58 58 58 58 58 58 57 57 56 54 51 52 51 50 50 52 51 51 51 51 51 51 51 51 53 50 48 47 45 42 41 42
59 59 59 59 59 59 59 59 58 58 58 58 58 58 58 58 58 57 56 56 56 54 51 52 50 50 50 50 50 50 48 49 50 50 51 49 48 46 45 42 40 40 40
51 52 53 53 55 56 56 57 58 58 57 58 58 57 57 57 57 57 56 55 54 53 51 52 48 47 47 47 47 47 47 47 47 49 49 48 47 45 43 41 39 39 39
46 46 47 46 47 48 49 50 50 51 51 51 52 52 53 54 54 55 55 54 53 53 52 50 48 45 46 47 47 45 44 44 44 45 47 47 46 44 42 40 38 37 37
42 42 42 42 42 43 43 43 44 44 45 45 46 47 48 48 49 50 52 52 52 52 51 50 49 44 44 44 42 43 42 42 42 43 45 46 45 44 42 40 37 37 36
41 41 41 41 41 42 43 43 43 42 42 42 43 44 44 44 45 46 47 48 49 49 49 48 46 43 42 42 43 41 40 40 40 40 43 45 45 44 44 40 37 37 34
38 38 38 38 39 40 43 43 43 42 41 41 42 42 42 43 43 43 44 45 46 47 47 46 45 43 41 40 41 42 42 41 39 39 39 41 42 41 41 38 37 35 34
37 37 37 37 36 37 41 41 42 40 40 39 39 40 41 41 42 43 43 44 46 45 45 45 45 43 43 42 42 41 42 39 37 39 38 37 37 35 32 32 32 32 34
36 36 36 36 36 37 39 39 40 40 40 39 39 39 39 40 41 41 41 42 43 44 47 46 44 44 44 43 43 40 41 39 39 37 38 36 31 32 31 28 31 32 34
33 33 34 35 34 35 37 36 36 37 37 37 38 37 38 38 39 40 40 41 41 41 43 45 46 46 45 45 43 42 41 39 34 34 36 35 30 30 28 28 31 35 33
32 33 33 31 33 32 33 32 31 30 30 31 31 33 35 35 38 39 40 40 41 41 41 43 45 46 46 46 44 40 37 36 34 32 32 33 27 29 27 28 30 35 33
31 31 28 30 31 29 29 30 31 29 28 28 28 28 30 32 34 35 36 37 37 39 40 40 39 41 43 44 44 41 38 36 34 32 32 32 25 25 26 25 28 32 32

GFSMA_sfc_30mbdewp_120.txt.gz
Dewpoint
64 65 66 66 65 64 62 58 56 57 59 57 55 54 53 53 54 53 53 56 58 62 63 63 65 64 65 64 64 64 64 64 64 64 60 58 58 57 57 57 58 58 57
65 65 64 65 64 64 63 61 58 57 58 57 55 53 51 50 51 52 53 53 56 59 62 62 62 63 64 62 62 63 63 63 64 63 60 58 57 57 57 57 58 57 57
65 64 64 64 64 63 63 63 60 59 57 57 56 53 51 50 51 52 53 54 54 57 58 61 62 62 62 63 63 63 62 63 64 63 60 58 57 57 56 57 57 57 57
65 65 63 63 64 64 64 63 62 61 61 58 55 54 53 51 52 52 53 54 55 56 57 58 60 62 62 63 63 63 62 63 64 64 60 58 57 56 56 57 57 56 56
61 63 63 63 63 64 64 63 62 62 60 59 58 55 55 53 52 52 51 52 55 57 57 58 58 60 61 63 63 62 62 61 63 64 61 59 57 56 56 56 57 56 54
58 59 60 62 63 64 64 64 62 62 61 59 58 56 56 55 55 54 53 53 54 57 58 58 58 58 59 61 61 61 61 61 63 64 61 59 57 56 56 56 57 56 56
59 60 60 61 63 63 63 63 63 61 61 61 59 58 57 55 55 55 54 55 56 57 58 58 59 58 58 60 60 61 61 60 61 64 61 59 57 56 56 57 57 57 55
59 60 60 61 62 63 63 63 62 61 60 60 56 56 53 50 51 54 53 55 55 57 57 58 58 59 59 59 58 59 61 61 59 63 62 59 58 57 57 57 57 56 55
60 60 60 61 62 63 62 62 61 61 58 59 58 55 52 49 53 55 55 56 56 56 57 58 59 59 59 59 58 58 60 62 63 62 62 60 58 58 58 57 57 56 55
60 60 61 61 62 62 62 61 62 61 59 57 58 58 57 56 52 50 54 55 56 55 57 58 59 59 59 58 57 57 58 60 62 61 60 60 59 58 57 57 57 56 55
60 61 62 62 61 61 61 61 61 59 59 57 56 56 57 57 57 54 49 51 55 55 55 56 57 58 57 58 57 57 57 58 60 60 60 59 58 57 56 56 57 56 54
60 61 61 61 61 61 61 61 60 59 58 57 57 56 55 55 55 55 53 52 53 55 56 56 56 56 57 57 57 56 56 57 58 59 58 57 56 54 55 54 56 54 52
59 60 61 61 60 60 60 59 59 58 58 57 57 57 56 55 55 55 55 54 54 55 55 55 56 56 57 57 56 54 54 55 56 56 56 56 55 54 55 56 54 52 50
59 60 60 60 60 60 59 59 59 59 59 58 57 57 56 57 58 57 55 54 52 54 54 54 54 55 56 56 56 53 54 54 55 55 55 55 54 55 54 53 51 49 47
59 60 60 60 60 60 59 59 59 58 58 58 58 58 58 59 58 58 58 57 55 51 50 54 53 53 54 54 54 53 53 53 54 54 54 53 54 53 51 50 48 45 45
57 56 58 59 59 59 59 59 58 59 58 58 58 58 58 58 58 58 57 57 56 55 52 54 54 53 51 52 53 53 53 52 53 53 52 53 52 50 49 47 45 44 43
50 50 51 51 52 53 55 57 57 57 57 57 57 57 57 57 57 57 57 56 55 55 52 53 53 51 50 50 50 51 50 50 51 52 52 52 50 49 48 46 44 42 42
46 46 46 45 46 47 47 48 48 48 49 49 49 50 50 51 51 52 53 54 54 54 52 50 52 50 48 49 49 48 48 48 49 50 51 51 49 48 47 45 43 42 41
43 43 43 43 42 43 43 43 43 43 44 44 44 44 44 44 45 46 47 48 48 50 51 50 49 49 47 46 46 46 45 46 46 47 50 50 49 48 46 45 43 41 39
38 38 39 40 41 42 42 42 42 42 42 42 42 42 42 43 42 43 43 43 44 45 46 47 47 47 45 44 44 43 41 42 43 43 46 48 48 47 46 45 43 40 39
36 36 35 36 38 39 40 40 39 38 38 38 38 39 39 40 41 42 42 42 42 42 43 44 44 45 43 41 42 43 43 43 42 42 42 43 46 47 46 45 43 40 38
36 36 36 36 37 37 39 39 39 37 37 37 36 37 37 37 37 40 41 42 42 42 42 42 41 42 42 43 44 44 43 40 39 41 40 40 43 42 43 44 43 39 38
33 34 34 34 35 36 36 36 36 36 37 36 36 35 34 34 35 34 36 37 38 40 41 42 41 42 43 44 45 43 42 41 41 41 40 39 39 40 39 38 40 39 36
32 32 32 31 32 33 34 33 31 30 30 31 30 30 30 29 32 35 34 35 36 36 37 39 40 41 42 44 45 45 43 42 38 37 40 38 34 37 35 34 37 36 35
31 29 28 31 30 28 31 32 30 28 27 27 28 28 28 29 30 31 31 31 32 33 35 38 41 42 42 43 44 44 39 38 36 35 36 35 32 33 32 32 32 35 35
29 27 27 29 28 26 30 31 30 28 28 28 27 28 28 29 30 32 31 31 30 31 33 35 36 39 41 41 42 43 42 37 36 33 33 34 30 30 30 31 32 35 36